[[{"header":{"parameterUnit":"m.s-1","parameterCategory":1,"la1":30.6,"la2":28.766,"lo1":-90.7593,"lo2":-88.6598,"dy":0.0162,"dx":0.0183,"nx":116,"ny":114,"refTime":"2024-02-13T06:00:00:Z","depth":0,"parameterNumber":2,"parameterNumberName":"U-component_of_WINDS"},"data":[0.0,0.0,0.0,0.0,0.0,0.0,0.0,0.0,0.0,0.0,0.0,0.0,0.0,0.0,0.0,0.0,0.0,0.0,0.0,0.0,0.0,0.0,0.0,0.0,0.0,0.0,0.0,0.0,0.0,0.0,0.0,0.0,0.0,0.0,0.0,0.0,0.0,0.0,0.0,0.0,0.0,0.0,0.0,0.0,0.0,0.0,0.0,0.0,0.0,0.0,0.0,0.0,0.0,0.0,0.0,0.0,0.0,0.0,0.0,0.0,0.0,0.0,0.0,0.0,0.0,0.0,0.0,0.0,0.0,0.0,0.0,0.0,0.0,0.0,0.0,0.0,0.0,0.0,0.0,0.0,0.0,0.0,0.0,0.0,0.0,0.0,0.0,0.0,0.0,0.0,0.0,0.0,0.0,0.0,0.0,0.0,0.0,0.0,0.0,0.0,0.0,0.0,0.0,0.0,0.0,0.0,0.0,0.0,0.0,0.0,0.0,0.0,0.0,0.0,0.0,0.0,0.0,0.0,0.0,0.0,0.0,0.0,0.0,0.0,0.0,0.0,0.0,0.0,0.0,0.0,0.0,0.0,0.0,0.0,0.0,0.0,0.0,0.0,0.0,0.0,0.0,0.0,0.0,0.0,0.0,0.0,0.0,0.0,0.0,0.0,0.0,0.0,0.0,0.0,0.0,0.0,0.0,0.0,0.0,0.0,0.0,0.0,0.0,0.0,0.0,0.0,0.0,0.0,0.0,0.0,0.0,0.0,0.0,0.0,0.0,0.0,0.0,0.0,0.0,0.0,0.0,0.0,0.0,0.0,0.0,0.0,0.0,0.0,0.0,0.0,0.0,0.0,0.0,0.0,0.0,0.0,0.0,0.0,0.0,0.0,0.0,0.0,0.0,0.0,0.0,0.0,0.0,0.0,0.0,0.0,0.0,0.0,0.0,0.0,0.0,0.0,0.0,0.0,0.0,0.0,0.0,0.0,0.0,0.0,0.0,0.0,0.0,0.0,0.0,0.0,0.0,0.0,0.0,0.0,0.0,0.0,0.0,0.0,0.0,0.0,0.0,0.0,0.0,0.0,0.0,0.0,0.0,0.0,0.0,0.0,0.0,0.0,0.0,0.0,0.0,0.0,0.0,0.0,0.0,0.0,0.0,0.0,0.0,0.0,0.0,0.0,0.0,0.0,0.0,0.0,0.0,0.0,0.0,0.0,0.0,0.0,0.0,0.0,0.0,0.0,0.0,0.0,0.0,0.0,0.0,0.0,0.0,0.0,0.0,0.0,0.0,0.0,0.0,0.0,0.0,0.0,0.0,0.0,0.0,0.0,0.0,0.0,0.0,0.0,0.0,0.0,0.0,0.0,0.0,0.0,0.0,0.0,0.0,0.0,0.0,0.0,0.0,0.0,0.0,0.0,0.0,0.0,0.0,0.0,0.0,0.0,0.0,0.0,0.0,0.0,0.0,0.0,0.0,0.0,0.0,0.0,0.0,0.0,0.0,0.0,0.0,0.0,0.0,0.0,0.0,0.0,0.0,0.0,0.0,0.0,0.0,0.0,0.0,0.0,0.0,0.0,0.0,0.0,0.0,0.0,0.0,0.0,0.0,0.0,0.0,0.0,0.0,0.0,0.0,0.0,0.0,0.0,0.0,0.0,0.0,0.0,0.0,0.0,0.0,0.0,0.0,0.0,0.0,0.0,0.0,0.0,0.0,0.0,0.0,0.0,0.0,0.0,0.0,0.0,0.0,0.0,0.0,0.0,0.0,0.0,0.0,0.0,0.0,0.0,0.0,0.0,0.0,0.0,0.0,0.0,0.0,0.0,0.0,0.0,0.0,0.0,0.0,0.0,0.0,0.0,0.0,0.0,0.0,0.0,0.0,0.0,0.0,0.0,0.0,0.0,0.0,0.0,0.0,0.0,0.0,0.0,0.0,0.0,0.0,0.0,0.0,0.0,0.0,0.0,0.0,0.0,0.0,0.0,0.0,0.0,0.0,0.0,0.0,0.0,0.0,0.0,0.0,0.0,0.0,0.0,0.0,0.0,0.0,0.0,0.0,0.0,0.0,0.0,0.0,0.0,0.0,0.0,0.0,0.0,0.0,0.0,0.0,0.0,0.0,0.0,0.0,0.0,0.0,0.0,0.0,0.0,0.0,0.0,0.0,0.0,0.0,0.0,0.0,0.0,0.0,0.0,0.0,0.0,0.0,0.0,0.0,0.0,0.0,0.0,0.0,0.0,0.0,0.0,0.0,0.0,0.0,0.0,0.0,0.0,0.0,0.0,0.0,0.0,0.0,0.0,0.0,0.0,0.0,0.0,0.0,0.0,0.0,0.0,0.0,0.0,0.0,0.0,0.0,0.0,0.0,0.0,0.0,0.0,0.0,0.0,0.0,0.0,0.0,0.0,0.0,0.0,0.0,0.0,0.0,0.0,0.0,0.0,0.0,0.0,0.0,0.0,0.0,0.0,0.0,0.0,0.0,0.0,0.0,0.0,0.0,0.0,0.0,0.0,0.0,0.0,0.0,0.0,0.0,0.0,0.0,0.0,0.0,0.0,0.0,0.0,0.0,0.0,0.0,0.0,0.0,0.0,0.0,0.0,0.0,0.0,0.0,0.0,0.0,0.0,0.0,0.0,0.0,0.0,0.0,0.0,0.0,0.0,0.0,0.0,0.0,0.0,0.0,0.0,0.0,0.0,0.0,0.0,0.0,0.0,0.0,0.0,0.0,0.0,0.0,0.0,0.0,0.0,0.0,0.0,0.0,0.0,0.0,0.0,0.0,0.0,0.0,0.0,0.0,0.0,0.0,0.0,0.0,0.0,0.0,0.0,0.0,0.0,0.0,0.0,0.0,0.0,0.0,0.0,0.0,0.0,0.0,0.0,0.0,0.0,0.0,0.0,0.0,0.0,0.0,0.0,0.0,0.0,0.0,0.0,0.0,0.0,0.0,0.0,0.0,0.0,0.0,0.0,0.0,0.0,0.0,0.0,0.0,0.0,0.0,0.0,0.0,0.0,0.0,0.0,0.0,0.0,0.0,0.0,0.0,0.0,0.0,0.0,0.0,0.0,0.0,0.0,0.0,0.0,0.0,0.0,0.0,0.0,0.0,0.0,0.0,0.0,0.0,0.0,0.0,0.0,0.0,0.0,0.0,0.0,0.0,0.0,0.0,0.0,0.0,0.0,0.0,0.0,0.0,0.0,0.0,0.0,0.0,0.0,0.0,0.0,0.0,0.0,0.0,0.0,0.0,0.0,0.0,0.0,0.0,0.0,0.0,0.0,0.0,0.0,0.0,0.0,0.0,0.0,0.0,0.0,0.0,0.0,0.0,0.0,0.0,0.0,0.0,0.0,0.0,0.0,0.0,0.0,0.0,0.0,0.0,0.0,0.0,0.0,0.0,0.0,0.0,0.0,0.0,0.0,0.0,0.0,0.0,0.0,0.0,0.0,0.0,0.0,0.0,0.0,0.0,0.0,0.0,0.0,0.0,0.0,0.0,0.0,0.0,0.0,0.0,0.0,0.0,0.0,0.0,0.0,0.0,0.0,0.0,0.0,0.0,0.0,0.0,0.0,0.0,0.0,0.0,0.0,0.0,0.0,0.0,0.0,0.0,0.0,0.0,0.0,0.0,0.0,0.0,0.0,0.0,0.0,0.0,0.0,0.0,0.0,0.0,0.0,0.0,0.0,0.0,0.0,0.0,0.0,0.0,0.0,0.0,0.0,0.0,0.0,0.0,0.0,0.0,0.0,0.0,0.0,0.0,0.0,0.0,0.0,0.0,0.0,0.0,0.0,0.0,0.0,0.0,0.0,0.0,0.0,0.0,0.0,0.0,0.0,0.0,0.0,0.0,0.0,0.0,0.0,0.0,0.0,0.0,0.0,0.0,0.0,0.0,0.0,0.0,0.0,0.0,0.0,0.0,0.0,0.0,0.0,0.0,0.0,0.0,0.0,0.0,0.0,0.0,0.0,0.0,0.0,0.0,0.0,0.0,0.0,0.0,0.0,0.0,0.0,0.0,0.0,0.0,0.0,0.0,0.0,0.0,0.0,0.0,0.0,0.0,0.0,0.0,0.0,0.0,0.0,0.0,0.0,0.0,0.0,0.0,0.0,0.0,0.0,0.0,0.0,0.0,0.0,0.0,0.0,0.0,0.0,0.0,0.0,0.0,0.0,0.0,0.0,0.0,0.0,0.0,0.0,0.0,0.0,0.0,0.0,0.0,0.0,0.0,0.0,0.0,0.0,0.0,0.0,0.0,0.0,0.0,0.0,0.0,0.0,0.0,0.0,0.0,0.0,0.0,0.0,0.0,0.0,0.0,0.0,0.0,0.0,0.0,0.0,0.0,0.0,0.0,0.0,0.0,0.0,0.0,0.0,0.0,0.0,0.0,0.0,0.0,0.0,0.0,0.0,0.0,0.0,0.0,0.0,0.0,0.0,0.0,0.0,0.0,0.0,0.0,0.0,0.0,0.0,0.0,0.0,0.0,0.0,0.0,0.0,0.0,0.0,0.0,0.0,0.0,0.0,0.0,0.0,0.0,0.0,0.0,0.0,0.0,0.0,0.0,0.0,0.0,0.0,0.0,0.0,0.0,0.0,0.0,0.0,0.0,0.0,0.0,0.0,0.0,0.0,0.0,0.0,0.0,0.0,0.0,0.0,0.0,0.0,0.0,0.0,0.0,0.0,0.0,0.0,0.0,0.0,0.0,0.0,0.0,0.0,0.0,0.0,0.0,0.0,0.0,0.0,0.0,0.0,0.0,0.0,0.0,0.0,0.0,0.0,0.0,0.0,0.0,0.0,0.0,0.0,0.0,0.0,0.0,0.0,0.0,0.0,0.0,0.0,0.0,0.0,0.0,0.0,0.0,0.0,0.0,0.0,0.0,0.0,0.0,0.0,0.0,0.0,0.0,0.0,0.0,0.0,0.0,0.0,0.0,0.0,0.0,0.0,0.0,0.0,0.0,0.0,0.0,0.0,0.0,0.0,0.0,0.0,0.0,0.0,0.0,0.0,0.0,0.0,0.0,0.0,0.0,0.0,0.0,0.0,0.0,0.0,0.0,0.0,0.0,0.0,0.0,0.0,0.0,0.0,0.0,0.0,0.0,0.0,0.0,0.0,0.0,0.0,0.0,0.0,0.0,0.0,0.0,0.0,0.0,0.0,0.0,0.0,0.0,0.0,0.0,0.0,0.0,0.0,0.0,0.0,0.0,0.0,0.0,0.0,0.0,0.0,0.0,0.0,0.0,0.0,0.0,0.0,0.0,0.0,0.0,0.0,0.0,0.0,0.0,0.0,0.0,0.0,0.0,0.0,0.0,0.0,0.0,0.0,0.0,0.0,0.0,0.0,0.0,0.0,0.0,0.0,0.0,0.0,0.0,0.0,0.0,0.0,0.0,0.0,0.0,0.0,0.0,0.0,0.0,0.0,0.0,0.0,0.0,0.0,0.0,0.0,0.0,0.0,0.0,0.0,0.0,0.0,0.0,0.0,0.0,0.0,0.0,0.0,0.0,0.0,0.0,0.0,0.0,0.0,0.0,0.0,0.0,0.0,0.0,0.0,0.0,0.0,0.0,0.0,0.0,0.0,0.0,0.0,0.0,0.0,0.0,0.0,0.0,0.0,0.0,0.0,0.0,0.0,0.0,0.0,0.0,0.0,0.0,0.0,0.0,0.0,0.0,0.0,0.0,0.0,0.0,0.0,0.0,0.0,0.0,0.0,0.0,0.0,0.0,0.0,0.0,0.0,0.0,0.0,0.0,0.0,0.0,0.0,0.0,0.0,0.0,0.0,0.0,0.0,0.0,0.0,0.0,0.0,0.0,0.0,0.0,0.0,0.0,0.0,0.0,0.0,0.0,0.0,0.0,0.0,0.0,0.0,0.0,0.0,0.0,0.0,0.0,0.0,0.0,0.0,0.0,0.0,0.0,0.0,0.0,0.0,0.0,0.0,0.0,0.0,0.0,0.0,0.0,0.0,0.0,0.0,0.0,0.0,0.0,0.0,0.0,0.0,0.0,0.0,0.0,0.0,0.0,0.0,0.0,0.0,0.0,0.0,0.0,0.0,0.0,0.0,0.0,0.0,0.0,0.0,0.0,0.0,3.2842,3.2845,0.0,0.0,0.0,0.0,0.0,0.0,0.0,0.0,0.0,0.0,0.0,0.0,0.0,0.0,0.0,0.0,0.0,0.0,0.0,0.0,0.0,0.0,0.0,0.0,0.0,0.0,0.0,0.0,0.0,0.0,0.0,0.0,0.0,0.0,-2.4762,-2.1959,-1.9662,-1.8086,-0.5407,0.4459,1.1524,1.1997,1.365,1.6017,0.0,0.0,0.0,0.0,0.0,0.0,0.0,0.0,0.0,0.0,0.0,0.0,0.0,0.0,0.0,0.0,0.0,0.0,0.0,0.0,0.0,0.0,0.0,0.0,0.0,0.0,0.0,0.0,0.0,0.0,0.0,0.0,0.0,0.0,0.0,0.0,0.0,0.0,0.0,0.0,0.0,0.0,0.0,0.0,0.0,0.0,0.0,0.0,0.0,0.0,0.0,0.0,0.0,0.0,0.0,0.0,0.0,0.0,0.0,0.0,0.0,0.0,0.0,0.0,0.0,0.0,0.0,0.0,0.0,0.0,3.375,3.3409,0.0,0.0,0.0,0.0,0.0,0.0,0.0,0.0,0.0,0.0,0.0,0.0,0.0,0.0,0.0,0.0,0.0,0.0,0.0,0.0,0.0,0.0,0.0,-2.1087,-2.1103,-2.1247,-2.1708,-2.2091,-2.2355,-2.3012,-2.3629,-2.411,-2.4502,-2.4261,-2.3326,-1.7356,-1.1779,-0.6629,0.5408,1.4854,2.1689,2.2143,2.125,0.0,0.0,0.0,0.0,0.0,0.0,0.0,0.0,0.0,0.0,0.0,0.0,0.0,0.0,0.0,0.0,0.0,0.0,0.0,0.0,0.0,0.0,0.0,0.0,0.0,0.0,0.0,0.0,0.0,0.0,0.0,0.0,0.0,0.0,0.0,0.0,0.0,0.0,0.0,0.0,0.0,0.0,0.0,0.0,0.0,0.0,0.0,0.0,0.0,0.0,0.0,0.0,0.0,0.0,0.0,0.0,0.0,0.0,0.0,0.0,0.0,0.0,0.0,0.0,0.0,3.4933,3.5305,3.5986,3.5977,3.5948,3.5821,3.4438,3.3843,3.3836,3.384,0.0,0.0,0.0,0.0,0.0,0.0,0.0,0.0,0.0,0.0,0.0,0.0,0.0,0.0,0.0,0.0,0.0,0.0,0.0,0.0,0.0,-2.0715,-2.0769,-2.1389,-2.1463,-2.1724,-2.2294,-2.3039,-2.3467,-2.3421,-2.4037,-2.1287,-1.4678,-1.3291,-0.6932,0.4745,1.7221,2.3686,2.4398,2.4592,2.4528,2.4233,0.0,0.0,0.0,0.0,0.0,0.0,0.0,0.0,0.0,0.0,0.0,0.0,0.0,0.0,0.0,0.0,0.0,0.0,0.0,0.0,0.0,0.0,0.0,0.0,0.0,0.0,0.0,0.0,0.0,0.0,0.0,0.0,0.0,0.0,0.0,0.0,0.0,0.0,0.0,0.0,0.0,0.0,0.0,0.0,3.1703,3.1727,0.0,0.0,0.0,0.0,0.0,0.0,0.0,0.0,0.0,0.0,0.0,0.0,0.0,3.3571,3.4528,3.453,3.4974,3.5831,3.5825,3.5856,3.5914,3.5914,3.5917,3.5892,3.5678,0.0,3.5558,3.5563,0.0,0.0,0.0,0.0,0.0,0.0,0.0,0.0,0.0,0.0,0.0,0.0,0.0,0.0,0.0,0.0,0.0,0.0,0.0,0.0,0.0,-2.0198,-2.0391,-2.052,-2.1143,-2.1584,-2.1783,-2.2473,-2.2799,-2.257,-1.8795,-1.4991,-1.1358,-0.2838,0.658,1.6787,2.3175,2.6387,2.6533,2.659,2.6588,2.6507,2.5441,2.4525,2.3727,2.3522,0.0,0.0,0.0,0.0,0.0,0.0,0.0,0.0,0.0,0.0,0.0,0.0,0.0,0.0,0.0,0.0,0.0,0.0,0.0,0.0,0.0,0.0,0.0,0.0,0.0,0.0,0.0,0.0,0.0,0.0,0.0,0.0,0.0,0.0,0.0,0.0,0.0,0.0,0.0,3.2023,3.2241,3.226,3.2278,3.226,0.0,0.0,0.0,0.0,0.0,0.0,0.0,0.0,0.0,3.4016,3.4066,3.4527,3.5427,3.5435,3.5617,3.6004,3.5958,3.5938,3.5908,3.5891,3.5898,3.5905,3.5905,3.5892,3.5897,3.5897,3.5922,3.5938,0.0,0.0,0.0,0.0,3.5994,3.5999,0.0,0.0,0.0,0.0,0.0,0.0,0.0,0.0,0.0,0.0,0.0,0.0,-1.8957,-1.9431,-1.9767,-1.9698,-2.0438,-2.0889,-2.0832,-2.1203,-2.0516,-1.8467,-1.2946,-0.7927,-0.373,0.9422,1.928,2.5421,2.6696,2.7656,2.8348,2.8304,2.8171,2.8023,2.7972,2.7105,2.5615,2.5432,2.5227,0.0,0.0,0.0,0.0,0.0,0.0,0.0,0.0,0.0,0.0,0.0,0.0,0.0,0.0,0.0,0.0,0.0,0.0,0.0,0.0,0.0,0.0,0.0,0.0,0.0,0.0,0.0,0.0,0.0,0.0,0.0,0.0,0.0,0.0,0.0,0.0,0.0,0.0,3.2882,3.3033,3.3101,3.3135,3.3116,0.0,0.0,0.0,0.0,0.0,0.0,3.3713,3.3824,3.4212,3.4944,3.5011,3.5332,3.5999,3.5981,3.5966,3.5977,3.5914,3.5897,3.5872,3.5866,3.5872,3.5864,3.5864,3.5864,3.5884,3.5898,3.5911,3.5905,3.5891,3.5908,3.5899,3.5958,3.5962,3.5962,0.0,0.0,0.0,0.0,0.0,0.0,0.0,0.0,0.0,0.0,0.0,-1.8644,-1.8358,-1.8382,-1.8671,-1.9347,-1.9108,-1.9069,-1.9267,-1.9062,-1.5808,-0.8919,-0.7811,-0.0826,1.3266,2.2233,2.712,2.7918,2.825,2.8885,2.9794,2.9664,2.9532,2.9401,2.927,2.8424,2.7078,2.7018,2.6882,2.6759,0.0,0.0,0.0,0.0,0.0,0.0,0.0,0.0,0.0,0.0,0.0,0.0,0.0,0.0,0.0,0.0,0.0,0.0,0.0,0.0,0.0,0.0,0.0,0.0,0.0,0.0,0.0,0.0,0.0,0.0,0.0,0.0,0.0,0.0,0.0,0.0,0.0,0.0,0.0,3.5059,3.512,0.0,0.0,0.0,0.0,3.5335,3.5434,3.5533,3.5646,3.5728,3.5816,3.5932,3.5937,3.5962,3.5997,3.5938,3.5904,3.5889,3.5897,3.5872,3.5811,3.5811,3.5815,3.5818,3.5818,3.5818,3.5799,3.5864,3.5905,3.5905,3.5905,3.5892,3.5911,3.5891,3.5903,3.5908,0.0,0.0,0.0,0.0,0.0,0.0,0.0,0.0,-1.7746,-1.8017,-1.7287,-1.6456,-1.5733,-1.6185,-1.6604,-1.6894,-1.6824,-1.4965,-1.0653,-1.0027,-0.6711,0.0275,0.5493,1.3129,2.3518,2.6981,2.8767,2.8989,2.9878,3.0674,3.1388,3.1632,3.173,3.1687,3.1646,3.1318,3.0676,2.8975,2.8221,2.8142,2.837,2.8417,0.0,0.0,0.0,0.0,0.0,0.0,0.0,0.0,0.0,0.0,0.0,0.0,0.0,0.0,0.0,0.0,0.0,0.0,0.0,0.0,0.0,0.0,0.0,0.0,0.0,0.0,0.0,0.0,0.0,0.0,0.0,0.0,0.0,0.0,0.0,0.0,0.0,3.5364,3.5405,0.0,3.5483,3.5476,3.5531,3.5618,3.5698,3.5771,3.5862,3.5894,3.5929,3.5993,3.5994,3.6247,3.6777,3.6752,3.703,3.7572,3.7176,3.698,3.6931,3.6148,3.581,3.5801,3.5801,3.5801,3.5801,3.5826,3.5834,3.5842,3.5877,3.5864,3.5833,3.5885,3.5892,3.5898,0.0,0.0,0.0,0.0,0.0,0.0,0.0,0.0,-1.5644,-1.5269,-1.4755,-1.4046,-1.3076,-1.3657,-1.3342,-1.1403,-1.1219,-0.8292,-0.1558,-0.0768,0.2547,0.9506,1.7117,2.3708,2.9045,2.9763,3.0141,3.027,3.12,3.183,3.225,3.2994,3.3339,3.3324,3.3125,3.2992,3.282,3.1084,3.0234,3.0075,3.0386,3.0459,3.0446,0.0,0.0,0.0,0.0,0.0,0.0,0.0,0.0,0.0,0.0,0.0,0.0,0.0,0.0,0.0,0.0,0.0,0.0,0.0,0.0,0.0,0.0,0.0,0.0,0.0,0.0,0.0,0.0,0.0,0.0,0.0,0.0,0.0,0.0,3.5216,3.5364,3.555,3.5574,3.5588,3.5659,3.566,3.5688,3.5735,3.5791,3.5976,3.6312,3.6359,3.6521,3.6834,3.6838,3.7106,3.7625,3.7634,3.7929,3.8468,3.7875,3.7697,3.7855,3.7236,3.685,3.6675,3.6675,3.6675,3.6675,3.6684,3.6684,3.6615,3.6087,3.5834,3.5815,3.585,3.5869,3.585,0.0,0.0,0.0,0.0,0.0,0.0,0.0,-1.3172,-1.3532,-1.2272,-1.1794,-1.1271,-1.0295,-1.0547,-0.8521,-0.2976,-0.2102,0.0925,0.7452,0.8214,1.1577,1.8733,2.6005,2.9966,3.0158,3.1141,3.171,3.1861,3.22,3.2368,3.2396,3.3653,3.4251,3.4228,3.3632,3.3336,3.3272,3.3285,3.3017,3.2595,3.2424,3.2635,3.2999,0.0,0.0,0.0,0.0,0.0,0.0,0.0,0.0,0.0,0.0,0.0,0.0,0.0,0.0,0.0,0.0,0.0,0.0,0.0,0.0,0.0,0.0,0.0,0.0,0.0,0.0,0.0,0.0,0.0,0.0,0.0,0.0,0.0,3.5197,3.5383,3.5565,3.5678,3.5699,3.5727,3.5799,3.5799,3.5807,3.5846,3.5917,3.6328,3.7187,3.7304,3.7692,3.8481,3.8493,3.85,3.8536,3.8533,3.8526,3.8459,3.7957,3.7972,3.8499,3.9013,3.8974,3.8479,3.8479,3.8479,3.8479,3.8441,3.8421,3.8246,3.6537,3.5849,3.5888,3.5881,3.5891,3.5853,0.0,0.0,0.0,0.0,0.0,0.0,0.0,-0.8552,-0.9105,-0.756,-0.3364,-0.0772,-0.1515,0.1701,0.4462,0.5898,0.6346,0.9408,1.607,1.67,1.9952,2.6877,2.98,0.0,3.1399,3.2329,3.2846,3.2898,3.3606,3.3861,3.3701,3.4882,3.5429,3.5425,3.5211,3.5091,3.5086,3.5093,3.5019,3.482,3.401,3.3704,3.3758,0.0,0.0,0.0,0.0,0.0,0.0,0.0,0.0,0.0,0.0,0.0,0.0,0.0,0.0,0.0,0.0,0.0,0.0,0.0,0.0,0.0,0.0,0.0,0.0,0.0,0.0,0.0,0.0,0.0,0.0,0.0,3.5297,3.5387,3.54,3.555,3.5688,3.5763,3.5779,3.5803,3.5879,3.5879,3.6125,3.6776,3.6875,3.7272,3.8105,3.8161,3.8277,3.8488,3.8497,3.8803,3.9441,3.9384,3.9675,4.0276,4.0135,4.0118,4.0228,4.0364,4.0344,4.0208,4.0208,4.0208,4.015,3.9315,3.8966,3.886,3.7531,3.7278,3.7647,3.7996,3.7857,3.7448,0.0,0.0,0.0,0.0,0.0,0.0,0.0,-0.2878,-0.3952,-0.0075,0.5297,0.7894,0.5655,0.8562,1.1629,1.404,1.4486,1.7374,2.3865,2.4467,0.0,0.0,0.0,3.1923,3.1985,3.3225,3.3871,3.3844,3.4726,3.5056,3.4931,3.5552,3.5836,3.5763,3.5752,3.5735,3.573,3.571,3.5727,3.569,3.5078,3.4783,3.4753,3.5063,3.5037,3.4814,3.4642,3.4447,3.4255,3.4074,0.0,0.0,0.0,0.0,0.0,0.0,0.0,0.0,0.0,0.0,0.0,0.0,0.0,0.0,0.0,0.0,0.0,0.0,0.0,0.0,0.0,0.0,0.0,0.0,3.5512,3.5591,3.566,3.5717,3.5779,3.584,3.5833,3.6008,3.6406,3.648,3.6848,3.7689,3.7787,3.8164,3.9,3.9039,3.9199,3.9577,3.9583,3.9986,4.0838,4.0441,4.0867,4.2085,4.2052,4.2033,4.1995,4.2228,4.2189,4.1995,4.1995,4.1772,4.1393,4.0733,4.0228,3.9721,0.0,0.0,0.0,0.0,3.8402,3.8003,0.0,0.0,0.0,0.0,0.0,0.0,0.0,0.3808,0.233,0.8271,1.3565,1.5453,1.1951,1.3015,1.6166,2.1551,2.214,2.4543,3.0039,3.0502,0.0,3.0818,3.1676,3.2204,3.2362,3.3979,3.4795,3.4749,3.5516,3.5884,3.5875,3.5803,3.5696,3.5571,3.5611,3.562,3.5579,3.5549,3.5599,3.5658,3.5648,3.5678,3.5698,3.5646,3.5512,3.5329,3.52,3.5043,3.4874,3.4755,0.0,0.0,0.0,0.0,0.0,0.0,0.0,0.0,0.0,0.0,0.0,0.0,0.0,0.0,0.0,0.0,0.0,0.0,0.0,0.0,0.0,0.0,0.0,0.0,3.5641,3.5768,3.5879,3.5943,3.5988,3.6036,3.6046,3.6391,3.7258,3.7402,3.7768,3.8593,3.8651,3.9034,3.99,4.0033,0.0,0.0,0.0,4.1727,4.2448,4.1665,4.2058,4.3603,4.353,4.351,4.353,4.3976,4.3938,4.3481,4.3481,4.3033,4.2313,4.2322,4.1823,4.0892,3.9204,3.8515,3.845,3.8369,3.832,3.8189,0.0,0.0,0.0,0.0,0.0,0.0,0.0,1.1825,1.2234,1.1315,1.9123,2.3251,1.9233,2.332,2.6859,2.8072,2.8344,2.8979,3.024,0.0,3.0782,3.1553,3.2467,3.3304,3.4024,3.5061,3.558,3.558,3.5749,3.5782,3.5741,3.562,3.5504,3.5353,3.532,3.5321,3.535,3.5239,3.5273,3.5383,3.538,3.5551,3.5779,3.5761,3.5732,3.568,3.5606,3.5523,3.5414,3.529,3.5109,3.4899,3.4699,0.0,0.0,0.0,0.0,0.0,0.0,0.0,0.0,0.0,0.0,0.0,0.0,0.0,0.0,0.0,0.0,0.0,0.0,0.0,0.0,3.5724,3.5815,3.5872,3.5897,3.6536,3.6989,3.6944,3.6953,3.7292,3.816,3.8258,3.8613,3.9486,3.9549,3.9934,4.0803,4.1518,4.1941,4.2065,4.2753,4.3187,4.3342,4.3128,4.3188,4.3519,4.3501,0.0,4.351,4.3538,4.3507,4.341,4.3354,4.3233,4.3085,4.3034,4.284,4.2402,4.0795,4.0092,3.9969,3.9957,3.9945,3.9819,0.0,0.0,0.0,0.0,0.0,0.0,0.0,1.7294,1.7976,1.6758,2.1973,2.5094,2.3255,2.6597,2.9087,2.9327,2.9594,2.9794,0.0,3.0043,3.0352,3.0874,3.225,3.3219,3.3684,3.4982,3.564,3.5649,3.5657,3.5593,3.5488,3.5476,3.5307,3.5101,3.5064,3.4997,3.4962,3.4906,3.4944,3.5016,3.5066,3.5254,3.5466,3.5651,3.5731,3.5799,3.5755,3.5756,3.5729,3.5624,3.5505,3.5377,3.5238,3.5059,3.4861,0.0,0.0,0.0,0.0,0.0,0.0,0.0,0.0,0.0,0.0,0.0,0.0,0.0,0.0,3.5393,3.5527,0.0,3.5732,3.5833,3.5878,3.6051,3.6531,3.7005,3.7284,3.7204,3.7596,3.8184,3.9061,3.9157,3.9502,4.0395,4.0823,4.1245,4.1675,4.2519,4.2999,4.2946,4.3366,4.3728,4.4008,4.3975,4.422,4.4754,4.4743,4.4741,4.4707,4.4664,4.4601,4.4544,4.4517,4.4225,4.3777,4.3281,4.3047,4.2865,4.2036,4.1407,4.0952,4.0511,4.0342,4.0307,0.0,0.0,0.0,0.0,0.0,0.0,0.0,2.0146,2.0495,2.0882,2.2835,2.4373,2.4848,2.6647,2.8057,2.8544,2.8894,0.0,0.0,2.9529,2.9794,3.0106,3.1771,3.2801,3.3057,3.4597,3.54,3.5399,3.5399,3.5331,3.52,3.5286,3.5148,3.4851,3.4793,3.4693,3.4569,3.4569,3.4591,3.4632,3.4752,3.487,3.5026,3.5345,3.5596,3.5766,3.5786,3.5818,3.587,3.5822,3.5768,3.5704,3.5663,3.5484,3.5321,3.5284,3.5158,0.0,0.0,0.0,0.0,0.0,0.0,0.0,0.0,3.5155,3.5331,3.5444,3.5557,3.5659,3.5735,3.5787,3.5839,3.5908,3.6056,3.6417,3.7187,3.7575,3.7762,3.7707,3.8331,3.9088,3.9959,4.018,4.0574,4.129,4.2085,4.2539,4.2558,4.3378,4.3828,4.3828,4.3966,4.4277,4.4714,4.4696,4.5142,4.5975,4.596,4.5912,4.586,4.5847,4.5786,4.5688,4.5673,4.5224,4.447,4.3766,4.3444,4.335,4.312,4.2642,4.1972,4.1092,4.0787,4.0788,0.0,0.0,0.0,0.0,0.0,0.0,0.0,0.0,1.8965,1.9316,2.1319,2.2919,2.3375,2.5326,2.6974,2.7843,0.0,0.0,2.8847,2.895,2.95,3.0565,3.1693,3.2688,3.3587,3.4549,3.5062,3.5049,3.5049,3.4978,3.4851,3.4925,3.4842,3.4626,3.4386,3.434,3.4409,3.4197,3.4179,3.434,3.4363,3.4483,3.4675,3.4905,3.5259,3.5631,3.5694,3.5752,3.5802,3.5795,3.58,3.5786,3.5779,3.5752,3.5709,3.5588,3.5534,3.5496,3.5361,3.5309,3.5315,3.532,3.5328,3.5361,0.0,3.5546,3.56,3.5736,3.5773,3.5799,3.5878,3.587,3.591,3.5979,3.6598,3.7109,3.7278,3.8588,3.9519,3.95,3.9591,3.9973,4.0791,4.1565,4.2065,4.2162,4.2972,4.3452,4.3447,4.4228,4.4657,4.4657,4.5356,4.5761,4.582,4.5762,4.5783,4.5919,4.5794,4.5733,4.5718,4.5661,4.5629,4.5613,4.5547,4.5438,4.5265,4.5169,4.5092,4.4954,4.4169,4.3806,4.3634,4.2813,4.2507,4.2526,0.0,0.0,0.0,0.0,0.0,0.0,0.0,0.0,0.0,1.8721,2.0262,2.1644,2.2648,2.4616,2.6148,2.6815,0.0,0.0,2.8021,2.834,2.8767,2.9398,3.046,3.1287,3.1824,3.2731,3.3449,3.3996,3.3938,3.4062,3.4398,3.4633,3.4492,3.4074,3.3913,3.3854,3.3868,3.3842,3.3842,3.3895,3.4023,3.4179,3.4394,3.463,3.4907,3.5174,3.5485,3.565,0.0,0.0,3.5838,3.5862,3.5858,3.5856,3.5854,3.5788,3.5775,3.5745,3.5666,3.5592,3.5557,3.5566,3.5611,3.565,3.5706,3.5763,3.5779,3.5859,3.5897,3.5909,3.5942,3.5966,3.5976,3.5996,3.6674,3.7379,3.7917,3.9006,3.9921,4.0385,4.0446,4.0777,4.168,4.2089,4.249,4.2972,4.3771,4.422,4.4169,4.4982,4.5425,4.5394,4.5757,4.5906,4.5822,4.5794,4.5733,4.5669,4.5658,4.5629,4.558,4.5565,4.5512,4.5476,4.5419,4.536,4.5338,4.5338,4.5317,4.5258,4.4895,4.4762,4.4609,4.3271,4.2794,4.2794,0.0,0.0,0.0,0.0,0.0,0.0,0.0,0.0,0.0,0.0,1.9353,2.0712,2.2363,2.4064,2.5281,0.0,0.0,0.0,0.0,2.7643,2.8029,2.835,2.9398,0.0,3.0327,3.124,3.2032,3.2728,3.2623,3.2937,3.364,3.4046,3.4007,3.3597,3.3424,3.3367,3.3404,3.3473,3.3502,3.3502,3.3726,3.3895,3.4124,3.4404,3.4604,3.4793,3.5224,3.5489,0.0,0.0,3.5764,3.584,3.5875,3.5896,3.5897,3.5894,3.5916,3.5908,3.5856,3.5794,3.5767,3.576,3.5795,3.583,3.585,3.5889,3.5938,3.5923,3.5968,3.6007,3.5995,3.5995,3.6066,3.6289,3.7015,3.7864,3.8702,3.9517,4.0235,4.08,4.1052,4.1535,4.2451,4.2578,4.2947,4.3733,4.4566,4.4979,4.4918,4.5498,4.5819,4.5757,4.5781,4.5765,4.5677,4.5642,4.561,4.5505,4.5545,4.5531,4.5477,4.5438,4.5419,4.5359,4.5317,4.5297,4.5297,4.5297,4.5297,4.5297,4.5297,4.5297,4.5144,4.394,4.3482,4.3482,0.0,0.0,0.0,0.0,0.0,0.0,0.0,0.0,0.0,0.0,0.0,0.0,0.0,2.3522,2.4241,0.0,0.0,0.0,0.0,2.697,2.733,2.7982,2.888,2.9512,2.9926,3.075,3.1239,3.1258,3.1258,3.1652,3.2465,3.2993,3.327,3.3321,3.2919,3.2862,3.3117,3.3042,3.3086,3.322,3.3433,3.3615,3.3842,3.4124,3.4381,3.4647,3.5,0.0,0.0,3.5457,3.5607,3.5727,3.5784,3.5858,0.0,3.5903,3.5948,3.5976,3.5917,3.5896,3.5896,3.5896,3.5896,3.5915,3.5971,3.5992,3.5994,3.5994,3.5996,3.5996,3.5995,3.5999,3.6263,3.7045,3.7887,3.8741,3.9544,4.0353,4.0858,4.0818,4.1422,4.2207,4.3076,4.3298,4.3703,4.4499,4.5383,4.5808,4.5679,4.5692,4.568,4.5613,4.5601,4.5603,4.5603,4.5531,4.5513,4.5495,4.5438,4.5418,4.5418,4.5338,4.5317,4.5297,4.5297,4.5297,4.5297,4.5297,4.5297,4.5297,4.5297,4.5297,4.5277,4.5239,4.522,4.522,0.0,0.0,0.0,0.0,0.0,0.0,0.0,0.0,0.0,0.0,0.0,0.0,0.0,0.0,0.0,0.0,0.0,0.0,0.0,2.6333,2.6807,2.7238,2.7727,2.8153,2.8503,2.8891,2.935,2.9926,3.0035,3.0394,3.1004,3.1601,3.1936,3.2018,3.1622,3.1909,3.2705,3.2722,3.277,3.2816,3.3086,3.328,3.3494,3.3815,3.4049,3.4245,0.0,0.0,0.0,3.5326,3.5451,3.5581,3.5649,3.5752,3.5846,3.5899,3.5923,3.5923,3.5913,3.59,3.5892,3.5906,3.5908,3.5925,3.5989,3.5992,3.5994,3.5994,3.6003,3.6163,3.6703,3.6801,3.7049,3.7864,3.8688,3.9302,3.9549,4.0261,4.0732,4.0688,4.133,4.2101,4.2929,4.3655,4.4409,4.521,4.5538,4.5645,4.551,4.5547,4.5531,4.5477,4.5476,4.5457,4.5458,4.54,4.5361,4.536,4.5359,4.5338,4.5338,4.5317,4.5297,4.5297,4.5297,4.5297,4.5297,4.5297,4.5297,4.5297,4.5297,4.5297,4.5297,4.5297,4.5297,4.5297,0.0,0.0,0.0,0.0,0.0,0.0,0.0,0.0,0.0,0.0,0.0,0.0,0.0,0.0,0.0,0.0,0.0,0.0,0.0,0.0,2.628,2.6623,2.6922,2.7227,2.7582,2.7683,2.8029,2.8658,2.8752,2.9101,2.9704,3.0203,3.0564,3.0826,3.1089,3.1493,3.1933,3.2264,3.2438,3.2472,3.2784,3.3006,3.319,3.3559,3.3807,0.0,0.0,0.0,0.0,3.5105,3.5251,3.5402,3.5489,3.5618,3.5745,3.5818,3.5846,3.5859,3.5852,3.5853,3.5853,3.5851,3.586,3.5875,3.5951,3.5962,3.5968,3.5968,3.62,3.6587,3.7094,3.7428,3.7884,3.8692,3.9246,3.9645,3.9859,4.0314,4.0714,4.0924,4.1601,4.2336,4.314,4.4077,4.4861,4.5435,4.5491,4.5438,4.5321,4.538,4.5361,4.5297,4.53,4.53,4.5317,4.5279,4.5279,4.5297,4.5275,4.5256,4.5256,4.5235,4.5213,4.5213,4.5213,4.5213,4.5213,4.5213,4.5213,4.5213,4.5213,4.5213,4.5213,4.5213,4.5423,4.5674,0.0,0.0,0.0,0.0,0.0,0.0,0.0,0.0,0.0,0.0,0.0,0.0,0.0,0.0,0.0,0.0,0.0,0.0,0.0,0.0,0.0,2.6158,2.6436,2.6758,2.7149,2.7181,2.7276,2.7465,2.7465,2.7844,2.8523,2.8871,2.9221,2.9676,3.1133,3.1393,3.0837,3.1671,3.2108,3.2214,3.2521,3.2752,3.2916,3.3316,0.0,0.0,0.0,0.0,0.0,3.4772,3.5019,3.5226,3.535,3.5483,3.5607,3.5659,3.5727,3.5782,3.5791,3.5788,3.5791,3.5794,3.5801,3.5807,3.5878,3.5883,3.5903,3.5942,3.6624,3.7227,3.7305,3.7936,3.8716,3.9539,3.9606,3.9801,4.0486,4.0534,4.0748,4.151,4.218,4.2911,4.3729,4.452,4.5065,4.5243,4.5282,4.526,4.5192,4.5192,4.517,4.5103,4.5103,4.5125,4.5192,4.5249,4.529,4.5373,4.5328,4.5325,4.5325,4.5258,4.5236,4.5236,4.5236,4.5236,4.5217,4.5217,4.5217,4.5236,4.5236,4.5236,4.5236,4.5236,4.575,4.634,0.0,0.0,0.0,0.0,0.0,0.0,0.0,0.0,0.0,0.0,0.0,0.0,0.0,0.0,0.0,0.0,0.0,0.0,0.0,0.0,0.0,0.0,0.0,0.0,0.0,0.0,0.0,0.0,0.0,2.7252,2.7196,2.7533,2.7944,2.8459,2.8793,2.9491,3.0409,3.1086,3.1524,3.1765,0.0,3.2283,3.2623,0.0,0.0,0.0,0.0,0.0,0.0,3.452,3.485,3.5072,3.5203,3.534,3.5457,3.5476,3.5523,3.5596,3.5637,3.5648,3.5669,3.5708,3.5726,3.5735,3.5823,3.583,3.6005,3.6666,3.6977,3.7502,3.8766,3.9111,3.949,4.0289,4.032,4.0289,4.0438,4.0358,4.0539,4.1283,4.1993,4.2758,4.3507,4.4285,4.4796,4.4852,4.5042,4.5129,4.5038,4.5103,4.5084,4.5033,4.5061,4.5065,4.5049,4.5734,4.6096,4.6119,4.6706,4.6991,4.6991,4.6968,4.6968,4.6968,4.6968,4.6944,4.689,4.689,4.6846,4.6797,4.6797,4.6797,4.6797,4.6797,4.6948,4.7125,0.0,0.0,0.0,0.0,0.0,0.0,0.0,0.0,0.0,0.0,0.0,0.0,0.0,0.0,0.0,0.0,0.0,0.0,0.0,0.0,0.0,0.0,0.0,0.0,0.0,0.0,0.0,0.0,0.0,0.0,0.0,2.6826,2.7029,2.7106,2.7674,2.8465,2.9433,0.0,0.0,0.0,0.0,0.0,0.0,0.0,0.0,0.0,0.0,0.0,0.0,3.4269,3.4604,3.4908,3.4999,3.5138,3.5273,3.5262,3.534,3.543,3.5457,3.5496,3.5526,3.5596,3.5629,3.5669,3.5737,3.6037,3.6473,3.6968,3.7666,3.8481,3.9384,3.9816,4.0152,4.0538,4.0515,4.0425,4.029,4.0196,4.0517,4.1627,4.204,4.2724,4.3863,4.4403,4.4659,4.4659,4.4846,4.4943,4.4919,4.4986,4.4986,4.4976,4.4962,4.5138,4.5504,4.6396,4.6858,4.6901,4.7289,4.7467,4.7467,4.7441,4.7422,4.7422,4.7422,4.739,4.7311,4.7311,4.7284,4.7164,4.7164,4.7164,4.7183,4.7257,4.7483,4.7813,0.0,0.0,0.0,0.0,0.0,0.0,0.0,0.0,0.0,0.0,0.0,0.0,0.0,0.0,0.0,0.0,0.0,0.0,0.0,0.0,0.0,0.0,0.0,0.0,0.0,0.0,0.0,0.0,0.0,0.0,0.0,0.0,0.0,0.0,0.0,0.0,0.0,0.0,0.0,0.0,0.0,0.0,0.0,0.0,0.0,0.0,0.0,0.0,0.0,0.0,3.4316,3.4666,3.4752,3.4908,3.5057,3.5075,3.5162,3.5277,3.5285,3.534,3.5405,3.5489,3.5546,3.5601,3.5657,3.6355,3.7013,3.7112,3.844,3.9592,3.9635,4.0192,4.0612,4.0489,4.0411,4.0271,4.0098,4.0015,4.0536,4.2087,4.2153,4.2761,4.4409,4.4578,4.4578,4.4578,4.4685,4.4789,4.4789,4.4846,4.494,4.5041,4.5129,4.5578,4.6329,4.7117,4.756,4.7612,4.7621,4.7597,4.7597,4.7514,4.7486,4.7486,4.7486,4.7457,4.74,4.7371,4.7293,4.7177,4.7177,4.7166,4.7196,4.7293,4.7803,4.8405,0.0,0.0,0.0,0.0,0.0,0.0,0.0,0.0,0.0,0.0,2.1082,0.0,0.0,0.0,0.0,0.0,0.0,0.0,0.0,0.0,0.0,0.0,0.0,0.0,0.0,0.0,0.0,0.0,0.0,0.0,0.0,0.0,0.0,0.0,0.0,0.0,0.0,0.0,0.0,0.0,0.0,0.0,0.0,0.0,0.0,0.0,0.0,0.0,0.0,0.0,3.4074,3.4386,3.4583,3.4728,3.4868,3.4908,3.5038,3.5145,3.5209,3.527,3.5345,3.5468,3.5509,3.554,3.5596,3.6296,3.7119,3.7771,3.8723,3.9618,4.0298,4.0423,4.0441,4.0341,4.0196,4.0038,3.9933,3.9845,4.0335,4.192,4.2102,4.2735,4.4373,4.4515,4.4496,4.444,4.4496,4.4605,4.4712,4.4738,4.5059,4.5795,4.6814,4.7229,4.7022,4.7815,4.8202,4.8174,4.888,4.9141,4.9044,4.9013,4.9013,4.9013,4.9013,4.8983,4.8909,4.8864,4.8749,4.8613,4.8565,4.8565,4.8565,4.8632,4.8758,4.8903,0.0,0.0,0.0,0.0,0.0,0.0,0.0,0.0,0.0,0.0,2.1616,2.1746,0.0,0.0,0.0,0.0,0.0,0.0,0.0,0.0,0.0,0.0,0.0,0.0,0.0,0.0,2.6063,2.6043,0.0,0.0,0.0,2.5502,2.5464,2.5342,0.0,0.0,0.0,0.0,0.0,0.0,0.0,0.0,0.0,0.0,0.0,0.0,0.0,0.0,0.0,0.0,3.3815,3.4074,3.4316,3.4561,3.4749,3.479,3.4889,3.502,3.5091,3.5141,3.5223,3.5324,3.5379,3.5518,3.604,3.6818,3.766,3.8493,3.9369,4.0068,4.0434,4.0408,4.0306,4.0177,4.0038,3.9911,3.9796,3.9727,4.0282,4.1863,4.2044,4.2682,4.429,4.4458,4.4383,4.4248,4.4277,4.4364,4.4532,4.5096,4.5735,4.6412,4.7803,4.8243,4.7661,4.834,4.8721,4.8771,4.9089,4.9193,4.916,4.916,4.916,4.916,4.916,4.9094,4.9046,4.8925,4.882,4.8732,4.8642,4.8624,4.8697,4.8785,4.8855,4.889,0.0,0.0,0.0,0.0,0.0,0.0,0.0,2.1375,2.1568,2.1712,2.2044,2.2278,2.2338,2.2417,2.2678,0.0,0.0,0.0,0.0,0.0,0.0,0.0,0.0,0.0,0.0,0.0,0.0,2.5844,2.5717,0.0,0.0,0.0,0.0,0.0,2.6904,2.7492,2.7259,0.0,0.0,0.0,0.0,3.0593,0.0,0.0,0.0,0.0,0.0,0.0,0.0,0.0,3.3587,3.3842,3.4074,3.4381,3.4623,3.4687,3.4771,3.4889,3.4945,3.5037,3.5105,3.5157,3.5223,3.5515,3.6424,3.7283,3.8124,3.8984,3.9845,4.0425,4.0342,4.0289,4.0158,3.9996,3.9889,3.9819,3.9717,3.9693,4.0246,4.1804,4.1965,4.2575,4.4186,4.4306,4.4218,4.403,4.4135,4.4339,4.4557,4.5746,4.6607,4.6968,4.8352,4.8786,4.8226,4.871,4.8974,4.9027,4.8855,4.8785,4.875,4.875,4.875,4.875,4.875,4.8732,4.866,4.8569,4.8476,4.8419,4.8286,4.8286,4.8419,4.8495,4.8587,4.8679,0.0,0.0,0.0,0.0,0.0,0.0,0.0,2.1746,2.1996,2.2137,2.2278,2.2477,2.2704,2.2783,2.3024,0.0,0.0,0.0,0.0,0.0,0.0,0.0,0.0,0.0,0.0,0.0,0.0,2.5738,2.553,0.0,0.0,0.0,0.0,0.0,0.0,2.7486,2.7237,2.8838,0.0,0.0,0.0,0.0,0.0,0.0,0.0,0.0,0.0,0.0,3.2948,0.0,3.3484,3.3834,3.3972,3.4173,3.4386,3.4623,3.4751,3.4812,3.4889,3.5,3.5105,3.5105,3.5157,3.542,3.6241,3.7152,3.8049,3.8856,3.9696,4.0289,4.0157,4.0058,3.9996,3.9848,3.975,3.9717,3.9693,3.9645,4.0196,4.1732,4.1856,4.2436,4.3972,4.4079,4.3955,4.3744,4.4297,4.4789,4.5101,4.6675,4.7568,4.7623,4.846,4.8834,4.8637,4.8711,4.8641,4.8458,4.8458,4.8402,4.8344,4.8344,4.8344,4.8344,4.8344,4.8344,4.8344,4.8265,4.8226,4.8226,4.809,4.8032,4.8072,4.8169,4.8226,4.8265,0.0,0.0,0.0,0.0,0.0,0.0,0.0,2.2137,2.231,2.2495,2.2632,2.2814,2.3068,2.3201,2.3348,0.0,0.0,0.0,0.0,0.0,0.0,0.0,0.0,0.0,0.0,0.0,2.5546,2.5454,2.5416,0.0,0.0,0.0,0.0,0.0,0.0,2.7166,2.7194,2.8643,0.0,0.0,0.0,0.0,0.0,0.0,0.0,0.0,0.0,0.0,3.277,3.2993,3.3327,3.3661,3.3868,3.4074,3.4293,3.4561,3.4728,3.481,3.483,3.4889,3.4908,3.4908,3.4963,3.5361,3.6692,3.7281,3.7947,3.9258,3.983,4.0019,3.9933,3.9911,3.9845,3.975,3.9717,3.9693,3.9645,3.9596,4.012,4.1669,4.1726,4.2196,4.3706,4.3795,4.3867,4.4175,4.4839,4.5517,4.614,4.6893,4.7555,4.8053,4.8366,4.8514,4.8476,4.842,4.8344,4.8267,4.819,4.8151,4.8111,4.8111,4.8111,4.8111,4.8111,4.8111,4.8111,4.8046,4.8024,4.8024,4.7866,4.7866,4.7966,4.8006,4.8028,4.809,0.0,0.0,0.0,0.0,0.0,0.0,2.231,2.2449,2.2632,2.2799,2.2934,2.3083,2.3275,2.3451,2.3581,2.3653,0.0,0.0,0.0,0.0,0.0,0.0,0.0,0.0,0.0,0.0,2.5355,2.5294,2.5317,2.5224,0.0,0.0,2.5045,2.5069,0.0,0.0,0.0,0.0,0.0,0.0,0.0,0.0,0.0,0.0,0.0,0.0,0.0,0.0,0.0,0.0,0.0,3.3549,0.0,0.0,0.0,0.0,3.4666,3.4768,3.4768,3.479,3.4811,3.4811,3.4831,3.5324,3.699,3.7368,3.7842,3.9504,3.9845,3.9823,3.9777,3.9777,3.975,3.9693,3.9669,3.9645,3.962,3.9546,4.0068,4.1586,4.1582,4.2014,4.3498,4.3529,4.3739,4.4401,4.5109,4.5872,4.6652,4.7083,4.7584,4.8172,4.8229,4.819,4.8169,4.8148,4.8087,4.8028,4.797,4.7929,4.7929,4.7929,4.7929,4.7929,4.7929,4.7929,4.7929,4.7842,4.7861,4.7819,4.7717,4.7759,4.7861,4.7861,4.7866,4.7929,0.0,0.0,0.0,0.0,0.0,0.0,0.0,2.2799,2.2934,2.3083,2.3216,2.3319,2.3319,2.348,2.3653,2.3797,0.0,0.0,0.0,0.0,0.0,0.0,0.0,0.0,0.0,0.0,0.0,2.5294,2.5146,2.5123,2.521,2.506,2.5005,2.5069,0.0,0.0,0.0,0.0,0.0,0.0,0.0,0.0,0.0,0.0,0.0,0.0,0.0,0.0,0.0,0.0,0.0,0.0,0.0,3.4049,3.4245,0.0,3.4602,3.4687,3.4687,3.4747,3.4788,3.4788,3.4788,3.5241,3.692,3.7297,3.7769,3.9368,3.9689,3.9708,3.9717,3.9693,3.9669,3.9602,3.9602,3.9602,3.9602,3.9546,4.0061,4.152,4.1452,4.1862,4.3367,4.3269,4.3432,4.4251,4.4935,4.5653,4.6468,4.7265,4.7765,4.7992,4.7992,4.797,4.7902,4.7902,4.7861,4.7717,4.7699,4.7699,4.7699,4.7699,4.7699,4.7699,4.7699,4.7699,4.7699,4.7699,4.7717,4.7717,4.7717,4.7717,4.7717,4.7717,4.7699,4.7699,0.0,0.0,0.0,0.0,0.0,0.0,0.0,2.3083,2.3216,2.3436,2.348,2.3566,2.3754,2.3855,2.3882,2.394,0.0,0.0,0.0,0.0,0.0,0.0,0.0,0.0,0.0,0.0,0.0,0.0,2.5107,2.5045,2.4918,2.4982,2.4886,2.4773,2.6267,2.6851,0.0,0.0,0.0,0.0,0.0,0.0,0.0,0.0,0.0,0.0,0.0,0.0,0.0,0.0,0.0,0.0,0.0,0.0,0.0,3.4363,3.4495,3.4561,3.4623,3.4645,3.4666,3.4666,3.4666,3.5098,3.6791,3.7167,3.7638,3.9293,3.9631,3.965,3.9626,3.9645,3.9602,3.9602,3.9602,3.9577,3.9546,3.9399,3.9816,4.1267,4.2099,4.2703,4.3069,4.3013,4.35,4.4859,4.5204,4.5888,4.7265,4.7572,4.7741,4.7783,4.7783,4.7783,4.7759,4.7759,4.7759,4.7717,4.7717,4.7717,4.7717,4.7717,4.7717,4.7717,4.7717,4.7717,4.7717,4.7717,4.7717,4.7717,4.7717,4.7717,4.7717,4.7717,4.7717,4.7717,0.0,0.0,0.0,0.0,0.0,0.0,0.0,2.3436,2.3538,2.3739,2.3739,2.3797,2.3982,2.4067,2.4109,2.4109,0.0,0.0,0.0,0.0,0.0,0.0,0.0,0.0,0.0,0.0,0.0,0.0,0.0,0.0,2.4726,2.4806,2.4751,2.4651,2.6096,2.6704,0.0,0.0,0.0,0.0,0.0,0.0,3.03,0.0,0.0,0.0,0.0,0.0,0.0,0.0,0.0,0.0,0.0,0.0,0.0,0.0,3.4427,3.4495,3.4561,3.4602,3.4602,3.4602,3.4846,3.5428,3.6779,3.7324,3.7943,3.9339,3.9602,3.9602,3.9602,3.9602,3.9577,3.9571,3.9571,3.9502,3.9399,3.9508,4.0063,4.1397,4.2466,4.3049,4.292,4.3154,4.3878,4.52,4.558,4.6323,4.7645,4.7717,4.7717,4.7717,4.7717,4.7717,4.7717,4.7717,4.7717,4.7717,4.7717,4.7717,4.7717,4.7717,4.7717,4.7717,4.7717,4.7717,0.0,4.7717,4.7717,4.7717,4.7717,4.7717,4.7717,4.7717,4.7717,4.7717,0.0,0.0,0.0,0.0,0.0,0.0,0.0,0.0,0.0,0.0,2.4024,2.4024,2.4024,2.4193,2.4317,0.0,0.0,0.0,0.0,0.0,0.0,0.0,0.0,0.0,0.0,0.0,0.0,2.4782,2.4782,2.4726,2.4589,0.0,2.4589,2.4611,2.5908,2.6545,0.0,0.0,0.0,0.0,2.9454,2.9881,0.0,0.0,0.0,0.0,0.0,0.0,0.0,0.0,0.0,0.0,0.0,0.0,0.0,0.0,0.0,0.0,0.0,3.4583,3.4602,3.4602,3.5259,3.6104,3.6911,3.7718,0.0,3.9408,3.9602,3.9596,3.9577,3.9596,3.9552,3.9495,3.9469,3.9399,3.9202,3.9806,4.0683,4.1829,4.2632,4.3049,4.292,4.3625,4.4421,4.5236,4.6051,4.6866,4.7663,4.7717,4.7717,4.7717,4.7717,4.7717,4.7717,4.7717,4.7717,4.7717,4.7717,4.7717,4.7717,4.7717,4.7717,4.7717,4.7717,4.7717,4.7717,4.7717,4.7717,4.7717,4.7717,4.7717,4.7717,4.7717,4.7753,4.7808,0.0,0.0,0.0,0.0,0.0,0.0,0.0,0.0,0.0,0.0,2.4193,2.4276,2.4374,2.4482,0.0,0.0,0.0,0.0,0.0,0.0,0.0,0.0,0.0,0.0,0.0,0.0,0.0,2.4782,2.4686,2.4549,2.4385,2.4508,0.0,0.0,0.0,0.0,0.0,0.0,0.0,0.0,2.9321,2.9694,0.0,0.0,0.0,0.0,3.1709,3.1965,0.0,0.0,0.0,0.0,0.0,0.0,0.0,0.0,3.4221,3.434,3.4409,0.0,3.4602,3.4602,3.5259,3.6104,0.0,3.7718,0.0,0.0,0.0,0.0,0.0,3.9432,3.9343,3.9283,3.9183,3.9073,3.8979,3.9945,4.0967,4.1814,4.2541,4.2938,4.2882,4.3625,4.4421,4.5236,4.6051,4.6866,4.7663,4.7717,4.7717,4.7717,4.7717,4.7717,4.7717,4.7717,4.7717,4.7717,4.7717,4.7717,4.7717,4.7717,4.7717,4.7717,4.7717,4.7717,4.7717,4.7717,4.7717,4.7717,4.7717,4.7717,4.7717,4.7717,4.8098,4.8641,0.0,0.0,0.0,0.0,0.0,0.0,0.0,0.0,0.0,0.0,0.0,0.0,0.0,0.0,0.0,0.0,0.0,0.0,0.0,0.0,0.0,0.0,0.0,0.0,0.0,0.0,0.0,0.0,0.0,2.441,0.0,0.0,0.0,0.0,0.0,0.0,0.0,0.0,0.0,0.0,2.9321,0.0,0.0,0.0,0.0,0.0,3.1688,3.1929,0.0,3.2438,3.269,3.2902,0.0,0.0,0.0,0.0,3.4074,3.4173,3.4269,3.4404,3.4517,3.4517,3.5263,3.6176,3.6855,0.0,0.0,0.0,0.0,0.0,0.0,3.932,3.9165,3.9055,3.896,3.9121,3.9693,4.0328,4.1141,4.225,4.2666,4.2882,4.2882,4.3951,4.482,4.5273,4.6395,4.7246,4.7681,4.7717,4.7717,4.7717,4.7717,4.7717,4.7717,4.7717,4.7717,4.7717,4.7717,4.7717,4.7717,4.7717,4.7717,4.7717,4.7717,4.7717,4.7717,4.7717,4.7717,4.7717,4.7717,4.7717,4.7753,4.8116,4.855,4.8967,0.0,0.0,0.0,0.0,0.0,0.0,0.0,0.0,0.0,0.0,0.0,0.0,0.0,0.0,0.0,0.0,0.0,0.0,0.0,0.0,0.0,0.0,0.0,0.0,0.0,0.0,0.0,0.0,0.0,0.0,0.0,0.0,2.4288,0.0,0.0,0.0,0.0,0.0,0.0,0.0,2.9305,0.0,0.0,0.0,0.0,0.0,0.0,0.0,0.0,3.2422,3.2641,3.287,3.317,0.0,0.0,0.0,0.0,0.0,3.4099,3.4221,3.4316,3.4363,3.5291,3.6311,3.6764,0.0,0.0,0.0,0.0,0.0,0.0,3.9157,3.8952,3.8789,3.8847,3.9337,4.0573,4.0813,4.1379,4.2757,4.2882,4.2882,4.2882,4.4349,4.5291,4.5291,4.6794,4.7717,4.7717,4.7717,4.7717,4.7717,4.7717,4.7717,4.7717,4.7717,4.7717,4.7717,4.7717,4.7717,4.7717,4.7717,4.7717,4.7717,4.7717,4.7717,4.7717,4.7717,4.7717,4.7717,4.7717,4.779,4.7989,4.8659,4.9075,4.9383,0.0,0.0,0.0,0.0,0.0,0.0,0.0,0.0,0.0,0.0,0.0,0.0,0.0,0.0,0.0,0.0,0.0,0.0,0.0,0.0,0.0,0.0,0.0,0.0,0.0,0.0,0.0,0.0,0.0,0.0,2.4024,2.4166,2.4734,2.5758,0.0,0.0,0.0,0.0,0.0,2.892,2.9198,0.0,0.0,0.0,0.0,0.0,0.0,0.0,0.0,3.2422,3.2657,3.2884,3.3028,0.0,0.0,0.0,0.0,0.0,3.3842,3.3868,3.3947,3.4173,3.5429,3.6638,0.0,0.0,0.0,0.0,0.0,0.0,0.0,3.8752,3.8589,3.8566,3.8998,3.9667,4.0419,4.1144,4.1868,4.2774,4.2882,4.2882,4.2882,4.4349,4.5291,4.5291,4.6794,4.7717,4.7717,4.7717,4.7717,4.7717,4.7717,4.7717,4.7717,4.7717,4.7717,4.7717,4.7717,4.7717,4.7717,4.7717,4.7717,4.7717,4.7717,4.7717,4.7717,4.7717,4.7717,4.7717,4.7717,4.8134,4.8749,4.8858,4.9764,5.1049,0.0,0.0,0.0,0.0,0.0,0.0,0.0,0.0,0.0,0.0,0.0,0.0,0.0,0.0,0.0,0.0,0.0,0.0,0.0,0.0,0.0,0.0,0.0,0.0,0.0,0.0,0.0,0.0,0.0,2.4333,2.4139,2.4548,2.5463,2.675,0.0,0.0,2.8652,2.8763,2.8873,2.8904,0.0,0.0,0.0,0.0,0.0,0.0,0.0,0.0,0.0,0.0,3.2657,3.287,3.2965,0.0,0.0,0.0,0.0,0.0,3.3671,3.3698,3.3726,3.3842,3.4944,0.0,0.0,0.0,0.0,0.0,0.0,0.0,0.0,3.8585,3.8436,3.8368,3.8946,3.9675,4.0401,4.1198,4.2013,4.2792,4.2882,4.2882,4.2882,4.4349,4.5291,4.5291,4.6794,4.7717,4.7717,4.7717,4.7717,4.7717,4.7717,4.7717,4.7717,4.7717,4.7717,4.7717,4.7717,4.7717,4.7717,4.7717,4.7717,4.7717,4.7717,4.7717,4.7717,4.7717,4.7717,4.7753,4.8188,4.8586,4.9021,4.989,5.0941,5.1991,0.0,0.0,0.0,0.0,0.0,0.0,0.0,0.0,0.0,0.0,0.0,0.0,0.0,0.0,0.0,0.0,0.0,0.0,0.0,0.0,0.0,0.0,0.0,0.0,0.0,0.0,2.4549,2.4523,2.4498,2.4451,2.4468,2.5295,2.6319,2.7396,0.0,2.814,2.8826,2.8873,2.8951,2.9013,0.0,0.0,0.0,0.0,0.0,0.0,0.0,0.0,0.0,0.0,0.0,0.0,0.0,0.0,0.0,3.3286,3.3393,3.3481,3.3549,3.3549,3.3549,3.3556,0.0,0.0,0.0,0.0,0.0,0.0,0.0,0.0,3.8606,3.8455,3.8322,3.8225,3.9007,3.9858,4.0437,4.1361,4.2212,4.2828,4.2882,4.2882,4.2882,4.4349,4.5291,4.5291,4.6794,4.7717,4.7717,4.7717,4.7717,4.7717,4.7717,4.7717,4.7717,4.7717,4.7717,4.7717,4.7717,4.7717,4.7717,4.7717,4.7717,4.7717,4.7717,4.7717,4.7717,4.7717,4.7717,4.779,4.8605,4.9148,4.9637,5.1049,5.1973,5.2498,0.0,0.0,0.0,0.0,0.0,0.0,0.0,0.0,0.0,0.0,0.0,0.0,0.0,0.0,0.0,0.0,0.0,0.0,0.0,0.0,0.0,0.0,0.0,0.0,0.0,2.4599,2.4558,2.4589,2.4385,2.4599,2.5173,2.6595,2.7304,2.7427,0.0,2.8764,2.8904,2.8904,2.9044,2.9243,2.9305,0.0,0.0,0.0,0.0,0.0,0.0,0.0,0.0,0.0,0.0,0.0,0.0,0.0,3.3117,3.3117,3.3256,3.3411,3.3393,3.3393,3.3429,3.3418,0.0,0.0,0.0,0.0,0.0,3.8415,0.0,0.0,0.0,3.8292,3.8225,3.8192,3.9441,4.0456,4.051,4.1832,4.2828,4.2882,4.2882,4.2882,4.2882,4.4349,4.5291,4.5291,4.6794,4.7717,4.7717,4.7717,4.7717,4.7717,4.7717,4.7717,4.7717,4.7717,4.7717,4.7717,4.7717,4.7717,4.7717,4.7717,4.7717,4.7717,4.7717,4.7717,4.7717,4.7717,4.7717,4.779,4.8605,4.9818,5.123,5.21,5.2444,5.2498,0.0,0.0,0.0,0.0,0.0,0.0,0.0,0.0,0.0,0.0,0.0,0.0,0.0,0.0,0.0,0.0,0.0,0.0,0.0,0.0,0.0,0.0,0.0,2.4902,2.4926,2.4871,2.4791,2.4726,2.5025,2.5691,2.6717,2.7302,0.0,0.0,0.0,2.8936,2.9029,2.9106,2.9213,2.9305,2.9486,2.9592,0.0,0.0,0.0,0.0,0.0,0.0,0.0,0.0,3.2641,3.2805,3.2934,3.3042,3.3135,3.3214,3.3304,3.3393,3.3393,3.3393,3.349,3.3924,0.0,0.0,0.0,0.0,0.0,3.8274,3.8274,0.0,0.0,3.8225,3.8355,3.8844,3.9822,4.0691,4.1198,4.2194,4.2882,4.2882,4.2882,4.2882,4.2882,4.4349,4.5291,4.5291,4.6794,4.7717,4.7717,4.7717,4.7717,4.7717,4.7717,4.7717,4.7717,4.7717,4.7717,4.7717,4.7717,4.7717,4.7717,4.7717,4.7717,4.7717,4.7717,4.7717,4.7717,4.7717,4.8007,4.8586,4.989,5.1067,5.2082,5.2389,5.2498,5.2498,0.0,0.0,0.0,0.0,0.0,0.0,0.0,0.0,0.0,0.0,0.0,0.0,0.0,0.0,0.0,0.0,0.0,0.0,0.0,0.0,0.0,0.0,0.0,2.4838,2.4926,2.5147,2.5257,2.5192,2.6005,2.6814,2.7658,0.0,0.0,0.0,0.0,2.9013,2.9167,2.9259,2.935,2.9441,2.9637,2.9742,0.0,0.0,0.0,0.0,0.0,0.0,0.0,0.0,3.2641,3.2805,3.2965,3.3091,3.3165,3.3262,3.3322,3.3382,3.3382,3.3515,3.3828,0.0,0.0,0.0,0.0,0.0,0.0,3.8124,3.8124,3.8124,3.8124,3.8323,3.8667,3.9227,4.0131,4.098,4.1522,4.2318,4.2862,4.2862,4.29,4.2991,4.3244,4.4494,4.5399,4.5653,4.6939,4.7717,4.7717,4.7717,4.7717,4.7717,4.7717,4.7717,4.7717,4.7717,4.7717,4.7717,4.7717,4.7717,4.7717,4.7717,4.7717,4.7717,4.7717,4.7717,4.7717,4.7717,4.8333,4.942,5.076,5.1774,5.2498,5.2498,5.2498,5.2498,0.0,0.0,0.0,0.0,0.0,0.0,0.0,0.0,0.0,0.0,0.0,0.0,0.0,0.0,0.0,0.0,0.0,0.0,0.0,0.0,0.0,0.0,0.0,2.4804,2.4798,2.5529,2.5957,2.6024,2.7284,2.7825,2.7734,2.8544,0.0,0.0,0.0,2.9167,2.9305,2.9305,2.9441,2.9697,2.9697,2.9786,2.9902,0.0,0.0,0.0,0.0,0.0,0.0,0.0,3.2641,3.2805,3.2965,3.3122,3.331,3.331,3.331,3.331,3.331,3.379,3.4379,0.0,0.0,0.0,0.0,0.0,0.0,3.7899,3.7899,3.7899,3.7899,3.8564,3.9103,3.9103,4.0398,4.1405,4.1423,4.2201,4.2783,4.2783,4.288,4.3208,4.4023,4.482,4.5635,4.645,4.7246,4.7717,4.7717,4.7717,4.7717,4.7717,4.7717,4.7717,4.7717,4.7717,4.7717,4.7717,4.7717,4.7717,4.7717,4.7717,4.7717,4.7717,4.7717,4.7717,4.7717,4.7735,4.8677,5.018,5.0995,5.1792,5.2498,5.2498,5.2498,5.2498,0.0,0.0,0.0,0.0,0.0,0.0,0.0,0.0,0.0,0.0,0.0,0.0,0.0,0.0,0.0,0.0,0.0,0.0,0.0,0.0,0.0,0.0,0.0,0.0,0.0,0.0,2.7391,2.7363,2.78,2.8196,0.0,0.0,0.0,2.9075,0.0,0.0,2.9305,2.9502,2.9637,2.9697,2.9786,2.9902,2.9989,0.0,0.0,0.0,0.0,0.0,0.0,0.0,0.0,0.0,3.3011,3.3183,3.331,3.331,3.331,3.3262,3.3165,3.371,3.4451,3.5086,0.0,0.0,0.0,0.0,0.0,0.0,3.7899,3.7899,3.7899,3.8564,3.9265,3.9805,4.0739,4.1602,4.216,4.2505,4.2649,4.2649,4.2688,4.2994,4.3786,4.4597,4.5431,4.6308,4.7102,4.7615,4.7699,4.7717,4.7717,4.7717,4.7717,4.7717,4.7717,4.7717,4.7717,4.7717,4.7717,4.7717,4.7717,4.7717,4.7717,4.7717,4.7717,4.7717,4.779,4.8912,4.9999,5.1013,5.1828,5.2281,5.2498,5.2498,5.2498,5.2498,0.0,0.0,0.0,0.0,0.0,0.0,0.0,0.0,0.0,0.0,2.5005,0.0,0.0,0.0,0.0,0.0,0.0,0.0,0.0,0.0,0.0,0.0,0.0,0.0,0.0,2.7652,2.8176,0.0,0.0,0.0,0.0,0.0,0.0,2.9167,0.0,2.935,2.9457,2.9637,2.9742,2.9786,2.9902,2.9973,3.0017,0.0,0.0,0.0,0.0,0.0,0.0,0.0,0.0,0.0,3.3024,3.3196,3.3322,3.331,3.3262,3.3214,3.3104,3.3831,3.4766,3.5216,3.613,3.7041,3.7506,0.0,0.0,0.0,3.7793,3.7882,3.8223,3.8904,3.9693,4.0446,4.1253,4.1934,4.2418,4.2548,4.2548,4.2548,4.257,4.3041,4.4173,4.4713,4.5492,4.6596,4.7198,4.7554,4.7615,4.7657,4.7717,4.7717,4.7717,4.7717,4.7717,4.7717,4.7717,4.7717,4.7717,4.7717,4.7717,4.7717,4.7717,4.7717,4.7717,4.7898,4.8297,4.9564,5.056,5.1375,5.219,5.2498,5.2498,5.2498,5.2498,5.2498,0.0,0.0,2.6026,2.5974,0.0,0.0,0.0,0.0,0.0,0.0,2.4751,2.4589,0.0,0.0,0.0,0.0,0.0,0.0,0.0,0.0,0.0,0.0,0.0,0.0,0.0,0.0,0.0,0.0,0.0,0.0,0.0,0.0,2.9167,2.9305,0.0,2.9457,2.9697,2.9697,2.9786,2.9918,2.9973,3.0017,3.006,3.0401,0.0,0.0,0.0,0.0,0.0,0.0,0.0,0.0,3.3055,3.3226,3.3364,3.3292,3.3214,3.3086,3.3011,3.4059,3.5204,3.5204,3.6399,3.7577,3.7577,3.7577,3.7577,3.7577,3.7577,3.7844,3.8665,3.9414,4.0164,4.0967,4.177,4.2287,4.2287,4.2387,4.2463,4.2463,4.2548,4.3198,4.4797,4.4941,4.5605,4.715,4.7407,4.7511,4.7511,4.7615,4.7717,4.7717,4.7717,4.7717,4.7717,4.7717,4.7717,4.7717,4.7717,4.7717,4.7717,4.7717,4.7717,4.7717,4.7717,4.8206,4.9075,4.98,5.0615,5.1466,5.2208,5.2498,5.2498,5.2498,5.2498,5.2498,0.0,0.0,2.6132,2.597,0.0,0.0,0.0,0.0,0.0,0.0,0.0,0.0,0.0,0.0,0.0,0.0,0.0,0.0,0.0,0.0,0.0,0.0,0.0,0.0,0.0,0.0,0.0,0.0,0.0,0.0,0.0,0.0,0.0,2.9305,0.0,2.9653,2.9697,2.983,2.9874,2.9918,2.9973,3.006,3.0189,3.0384,3.0651,0.0,0.0,0.0,0.0,0.0,0.0,0.0,3.3055,3.3226,3.3364,3.3196,3.3117,3.3055,3.2948,3.4026,3.5204,3.5204,3.6399,3.7577,3.7577,3.7577,3.7577,3.7577,3.7577,3.7844,3.8665,3.9414,4.0164,4.0967,4.177,4.2287,4.2287,4.2328,4.2346,4.2346,4.2369,4.2995,4.4507,4.4668,4.5372,4.7097,4.7294,4.7407,4.7511,4.7615,4.7717,4.7717,4.7717,4.7717,4.7717,4.7717,4.7717,4.7717,4.7717,4.7717,4.7717,4.7717,4.7717,4.7717,4.7717,4.8514,4.9854,5.0017,5.0941,5.2263,5.2426,5.2498,5.2498,5.2498,5.2498,5.2498,0.0,0.0,0.0,0.0,0.0,0.0,0.0,0.0,0.0,0.0,0.0,0.0,0.0,0.0,0.0,0.0,0.0,0.0,0.0,0.0,2.6549,2.7178,0.0,0.0,0.0,0.0,0.0,0.0,0.0,0.0,0.0,0.0,0.0,2.9502,0.0,2.9742,2.9786,2.9874,2.9902,2.9946,3.0076,3.0205,3.0333,3.0526,3.0733,3.0952,3.1368,0.0,0.0,0.0,0.0,0.0,0.0,0.0,3.3364,3.3165,3.3086,3.3145,3.343,3.4329,3.5382,3.6167,3.697,3.7577,3.7577,3.754,3.7503,3.7503,3.7806,3.8342,3.9182,3.9946,4.0691,4.1538,4.2019,4.2287,4.2287,4.2287,4.2287,4.2287,4.2287,4.2912,4.4464,4.4624,4.5329,4.7071,4.7232,4.7363,4.7511,4.7615,4.7717,4.7717,4.7717,4.7717,4.7717,4.7717,4.7717,4.7717,4.7717,4.7717,4.7717,4.7717,4.7717,4.7717,4.7717,4.8605,5.009,5.009,5.1049,5.2498,5.2498,5.2498,5.2498,5.2498,5.2498,5.2498,0.0,0.0,0.0,0.0,0.0,0.0,0.0,0.0,0.0,0.0,0.0,0.0,0.0,0.0,0.0,0.0,0.0,0.0,0.0,2.6675,2.7469,2.8237,0.0,0.0,0.0,0.0,0.0,0.0,0.0,0.0,0.0,0.0,0.0,2.9697,0.0,2.9786,2.9918,2.9902,2.9946,3.0017,3.0146,3.0274,3.0401,3.0609,3.0773,3.0952,3.1368,3.1674,3.1966,3.2422,0.0,0.0,0.0,0.0,3.3364,3.3196,3.3224,3.3414,3.3984,3.474,3.5757,3.722,3.7577,3.7577,3.7577,3.7503,3.7392,3.7392,3.8013,3.8851,3.9694,4.0491,4.1291,4.2121,4.2287,4.2287,4.2287,4.2287,4.2287,4.2287,4.2287,4.2912,4.4464,4.4624,4.5329,4.7071,4.7232,4.7363,4.7511,4.7615,4.7717,4.7717,4.7717,4.7717,4.7717,4.7717,4.7717,4.7717,4.7717,4.7717,4.7717,4.7717,4.7717,4.7717,4.7717,4.8605,5.009,5.009,5.1049,5.2498,5.2498,5.2498,5.2498,5.2498,5.2498,5.2498,0.0,0.0,0.0,0.0,0.0,0.0,0.0,0.0,0.0,0.0,2.4523,2.4549,0.0,0.0,0.0,0.0,0.0,0.0,2.6867,0.0,0.0,2.8963,0.0,0.0,0.0,0.0,0.0,0.0,0.0,0.0,0.0,0.0,0.0,2.9697,0.0,0.0,2.9902,2.9946,2.9973,3.0017,3.0274,3.0359,3.0401,3.0609,3.0773,3.0952,3.1428,3.1785,3.2091,3.259,3.2902,0.0,0.0,0.0,3.3364,3.3292,3.3669,3.4146,3.4175,0.0,3.6453,3.7362,3.7577,3.7577,3.7577,3.7503,3.7392,3.7392,3.8011,3.873,3.9514,4.037,4.125,4.1979,4.2228,4.2287,4.2287,4.2287,4.2287,4.2287,4.2287,4.2912,4.4464,4.4624,4.5329,4.7071,4.7232,4.7363,4.7511,4.7615,4.7717,4.7717,4.7717,4.7717,4.7717,4.7717,4.7717,4.7717,4.7717,4.7717,4.7717,4.7717,4.7717,4.7717,4.7717,4.8605,5.009,5.009,5.1049,5.2498,5.2498,5.2498,5.2498,5.2498,5.2498,5.2498,0.0,0.0,0.0,0.0,0.0,0.0,0.0,0.0,0.0,0.0,0.0,2.4786,0.0,0.0,0.0,0.0,0.0,0.0,2.8189,2.8505,0.0,0.0,0.0,0.0,0.0,0.0,0.0,0.0,0.0,0.0,0.0,2.9786,2.983,0.0,0.0,0.0,0.0,0.0,3.0103,3.0231,3.0359,3.0401,3.0485,3.0651,3.0773,3.0952,3.1428,3.1768,3.2074,3.2623,3.2916,3.3117,3.3262,0.0,0.0,0.0,3.3839,3.4569,3.5337,3.6291,3.7148,3.7487,3.7577,3.7577,3.7577,3.7466,3.7317,3.7317,3.821,3.9083,3.9522,4.0624,4.1605,4.2008,4.2145,4.2187,4.2287,4.2287,4.2287,4.2287,4.2287,4.2912,4.4464,4.4624,4.5354,4.7124,4.7276,4.7407,4.7615,4.7657,4.7717,4.7717,4.7717,4.7717,4.7717,4.7717,4.7717,4.7717,4.7717,4.7717,4.7717,4.7717,4.7717,4.7717,4.7717,4.8605,5.009,5.009,5.1049,5.2498,5.2498,5.2498,5.2498,5.2498,5.2498,5.2498,0.0,0.0,0.0,0.0,0.0,0.0,0.0,0.0,0.0,0.0,0.0,0.0,0.0,0.0,0.0,0.0,0.0,0.0,2.909,0.0,0.0,0.0,0.0,0.0,0.0,0.0,0.0,0.0,0.0,0.0,2.9742,2.9874,2.9902,0.0,2.9902,0.0,0.0,0.0,0.0,3.0417,3.0401,3.0443,3.051,0.0,3.0773,0.0,0.0,3.1785,3.2127,3.2657,3.2948,3.3135,3.3292,3.3352,0.0,0.0,0.0,3.5101,3.6536,3.7256,3.7613,3.7613,3.7613,3.7577,3.7577,3.7484,3.7334,3.7297,3.8395,3.9388,3.9494,4.0782,4.1866,4.1977,4.2061,4.2145,4.2246,4.2287,4.2287,4.2287,4.2287,4.2912,4.4464,4.4624,4.5398,4.7194,4.732,4.745,4.7675,4.7717,4.7717,4.7717,4.7717,4.7717,4.7717,4.7717,4.7717,4.7717,4.7717,4.7717,4.7717,4.7717,4.7717,4.7717,4.7935,4.8804,5.0108,5.0307,5.1212,5.2498,5.2498,5.2498,5.2498,5.2498,5.2498,5.2498,0.0,0.0,0.0,0.0,0.0,0.0,0.0,0.0,0.0,0.0,0.0,0.0,0.0,0.0,0.0,0.0,0.0,0.0,0.0,0.0,0.0,0.0,0.0,0.0,0.0,0.0,0.0,0.0,0.0,0.0,2.9874,2.9918,2.9946,2.9973,2.9973,2.9973,3.0017,0.0,0.0,3.0417,3.0485,3.0485,3.051,0.0,0.0,0.0,0.0,3.1839,3.2249,3.2755,3.2979,3.3117,3.3334,3.3411,3.3393,0.0,0.0,0.0,3.7413,3.7774,3.7703,3.7703,3.7649,3.7577,3.7577,3.7503,3.7392,3.7297,3.8475,3.9429,3.9364,4.0654,4.178,4.1823,4.1995,4.2103,4.2103,4.2246,4.2287,4.2287,4.2287,4.2912,4.4464,4.4711,4.5502,4.7194,4.7407,4.7554,4.7699,4.7717,4.7717,4.7717,4.7717,4.7717,4.7717,4.7717,4.7717,4.7717,4.7717,4.7717,4.7717,4.7717,4.7717,4.7753,4.8532,4.9329,5.0144,5.0904,5.1737,5.2498,5.2498,5.2498,5.2498,5.2498,5.2498,5.2498,0.0,0.0,0.0,0.0,0.0,0.0,0.0,0.0,0.0,0.0,0.0,0.0,0.0,0.0,0.0,2.8542,2.8575,0.0,0.0,0.0,0.0,0.0,0.0,0.0,0.0,0.0,0.0,0.0,0.0,2.9902,2.9973,2.9973,3.0017,3.0103,3.0017,3.0119,3.0274,3.0375,0.0,3.0485,3.0485,3.0526,3.051,0.0,0.0,0.0,0.0,3.1929,3.2284,3.2755,3.3011,0.0,0.0,0.0,0.0,0.0,0.0,0.0,0.0,0.0,3.7703,3.7703,3.7649,3.7577,3.7577,3.7503,3.7392,3.7354,3.8536,3.9552,3.9494,4.0697,4.1692,4.1797,4.1927,4.2055,4.2103,4.2205,4.2287,4.2287,4.2287,4.2912,4.4464,4.4711,4.5502,4.7194,4.7407,4.7554,4.7699,4.7717,4.7717,4.7717,4.7717,4.7717,4.7717,4.7717,4.7717,4.7717,4.7717,4.7717,4.7717,4.7717,4.7717,4.7772,4.9094,4.9818,5.0144,5.0959,5.1756,5.2498,5.2498,5.2498,5.2498,5.2498,5.2498,5.2498,0.0,0.0,0.0,0.0,0.0,0.0,0.0,0.0,0.0,0.0,0.0,0.0,0.0,0.0,0.0,2.8795,2.8732,2.8684,2.8779,2.8826,0.0,0.0,0.0,0.0,0.0,0.0,0.0,0.0,0.0,0.0,0.0,0.0,3.0146,3.0274,3.0146,3.0231,0.0,0.0,0.0,3.0526,3.0526,3.0526,3.0526,0.0,0.0,0.0,3.1634,3.2001,3.2301,3.2755,3.3011,3.3135,0.0,0.0,0.0,0.0,0.0,0.0,3.7871,0.0,0.0,3.7757,3.7685,3.7613,3.7631,3.754,3.7466,3.7429,3.8383,3.9337,3.9562,4.0553,4.1437,4.1805,4.197,4.2055,4.2103,4.2205,4.2287,4.2287,4.2287,4.2935,4.4507,4.4814,4.5545,4.7237,4.7511,4.7615,4.7717,4.7717,4.7717,4.7717,4.7717,4.7717,4.7717,4.7717,4.7717,4.7717,4.7717,4.7717,4.7717,4.7717,4.7717,4.779,4.9401,5.009,5.0162,5.1249,5.2009,5.2498,5.2498,5.2498,5.2498,5.2498,5.2498,5.2498,0.0,2.568,2.5394,2.531,2.5155,2.5274,0.0,0.0,0.0,0.0,0.0,0.0,0.0,0.0,0.0,2.8621,2.8444,2.8444,2.8573,2.8653,0.0,0.0,0.0,0.0,0.0,0.0,0.0,0.0,0.0,0.0,0.0,0.0,3.0274,0.0,3.0401,3.0401,3.0417,0.0,3.0526,3.0526,0.0,3.0526,3.0526,0.0,0.0,3.123,3.1651,3.202,3.2352,3.2737,3.2961,3.3135,0.0,0.0,0.0,0.0,0.0,0.0,0.0,0.0,0.0,3.7934,3.781,3.7667,3.7613,3.7577,3.7577,3.7411,3.8051,3.8795,3.9456,4.0253,4.1049,4.1881,4.2055,4.2103,4.2103,4.2205,4.2287,4.2287,4.2287,4.2953,4.4653,4.4899,4.569,4.7385,4.7615,4.7717,4.7717,4.7717,4.7717,4.7717,4.7717,4.7717,4.7717,4.7717,4.7717,4.7717,4.7717,4.7717,4.7717,4.7717,4.7717,4.779,4.9401,5.009,5.0198,5.1828,5.2498,5.2498,5.2498,5.2498,5.2498,5.2498,5.2498,5.2498,2.5954,2.5584,2.5454,2.5903,2.5805,2.5961,0.0,0.0,0.0,0.0,0.0,0.0,0.0,0.0,0.0,2.8171,2.8039,2.8039,2.8284,2.8525,2.8811,2.9121,2.9382,0.0,0.0,0.0,0.0,0.0,0.0,0.0,0.0,0.0,0.0,0.0,3.0485,3.0485,3.0485,3.0485,0.0,3.0526,3.0526,3.0526,3.0526,3.0692,3.0855,3.1095,3.1445,3.1856,3.2214,3.2573,3.2834,3.318,0.0,0.0,0.0,0.0,0.0,0.0,3.8119,0.0,0.0,0.0,0.0,0.0,3.7667,3.7649,3.7577,3.754,3.8182,3.8946,3.9694,4.0477,4.1279,4.2098,4.2163,4.2103,4.2103,4.2205,4.2287,4.2287,4.2405,4.3071,4.4653,4.5,4.5791,4.7385,4.7615,4.7717,4.7717,4.7717,4.7717,4.7717,4.7717,4.7717,4.7717,4.7717,4.7717,4.7717,4.7717,4.7717,4.7717,4.7717,4.7717,4.779,4.9401,5.009,5.0198,5.1828,5.2498,5.2498,5.2498,5.2498,5.2498,5.2498,5.2498,5.2498,2.5917,2.5788,2.5831,2.6125,2.636,2.6704,0.0,0.0,0.0,0.0,0.0,0.0,0.0,0.0,0.0,0.0,2.7725,2.779,2.8103,2.8396,2.8668,2.9075,2.9382,2.9608,0.0,0.0,0.0,0.0,0.0,0.0,0.0,0.0,0.0,0.0,0.0,0.0,0.0,0.0,0.0,0.0,3.0526,3.0526,3.051,3.0651,3.0814,3.1055,3.1368,3.1783,3.2144,3.2506,3.3066,3.3728,3.437,0.0,0.0,0.0,0.0,0.0,0.0,0.0,0.0,0.0,0.0,0.0,3.7792,3.7739,3.7703,3.7649,3.8025,3.8649,3.9718,4.0289,4.0967,4.2091,4.2228,4.2187,4.2187,4.2246,4.2328,4.2387,4.2445,4.3028,4.433,4.4903,4.573,4.6976,4.7476,4.7717,4.7717,4.7717,4.7717,4.7717,4.7717,4.7717,4.7717,4.7717,4.7717,4.7717,4.7717,4.7717,4.7717,4.7717,4.7717,4.779,4.9401,5.009,5.0198,5.1828,5.2498,5.2498,5.2498,5.2498,5.2498,5.2498,5.2498,5.2498,0.0,2.6202,2.6397,2.6411,2.6841,0.0,0.0,0.0,0.0,0.0,0.0,0.0,0.0,0.0,0.0,0.0,2.7488,2.7604,2.7955,2.825,0.0,2.9075,2.9366,2.9681,2.9973,0.0,0.0,0.0,0.0,0.0,0.0,0.0,0.0,0.0,3.0526,3.0526,0.0,0.0,0.0,3.0526,3.0526,3.0526,3.051,3.0651,3.0814,3.1015,3.1329,3.1709,3.2126,3.2578,3.3544,3.4614,3.4736,3.5792,3.6997,0.0,3.7631,0.0,0.0,0.0,0.0,0.0,3.8018,0.0,3.7916,3.7899,3.7864,3.7757,3.7703,3.8187,3.9667,3.9953,4.0471,4.206,4.2328,4.2328,4.2328,4.2328,4.2387,4.2503,4.2544,4.2929,4.3902,4.4714,4.559,4.645,4.7265,4.7717,4.7717,4.7717,4.7717,4.7717,4.7717,4.7717,4.7717,4.7717,4.7717,4.7717,4.7717,4.7717,4.7717,4.7717,4.7753,4.7935,4.9438,5.0144,5.0343,5.1864,5.2498,5.2498,5.2498,5.2498,5.2498,5.2498,5.2498,5.2498,2.6442,2.6727,2.7174,2.7632,0.0,0.0,0.0,0.0,0.0,0.0,0.0,0.0,0.0,0.0,0.0,0.0,0.0,2.7625,0.0,0.0,2.8653,2.892,2.9396,2.9726,2.9853,3.0146,0.0,0.0,0.0,0.0,0.0,0.0,0.0,0.0,0.0,3.0526,0.0,0.0,0.0,3.0526,3.0526,3.0526,3.0526,3.0526,3.0651,3.0773,3.1015,3.1312,3.1832,3.3125,3.4228,3.5198,3.6095,3.6576,3.6988,3.7757,3.8065,0.0,0.0,0.0,0.0,3.8174,3.8088,0.0,3.8002,3.7951,3.7899,3.7864,3.7864,3.8331,3.9856,4.0143,4.0664,4.2261,4.253,4.253,4.2445,4.2463,4.2486,4.2588,4.2667,4.3069,4.392,4.4777,4.5594,4.645,4.7265,4.7717,4.7717,4.7717,4.7717,4.7717,4.7717,4.7717,4.7717,4.7717,4.7717,4.7717,4.7717,4.7717,4.7717,4.7717,4.8061,4.8731,4.9673,5.0452,5.1122,5.21,5.2498,5.2498,5.2498,5.2498,5.2498,5.2498,5.2498,5.2498,2.6985,2.7338,2.7755,2.7942,0.0,0.0,0.0,0.0,0.0,0.0,0.0,0.0,0.0,0.0,0.0,0.0,0.0,0.0,0.0,0.0,2.8763,2.9106,2.9502,2.9814,3.0,3.0274,0.0,0.0,0.0,0.0,0.0,0.0,0.0,0.0,0.0,0.0,0.0,0.0,3.0526,3.0526,3.0526,3.0526,3.0526,3.0526,3.0568,3.0783,3.1256,3.2032,3.2896,3.3841,3.4836,3.5811,3.6414,3.698,3.7478,3.7962,3.814,3.8192,3.8192,3.8192,3.8192,3.8192,3.814,0.0,0.0,3.8054,3.8038,3.7951,3.7951,3.8419,3.993,4.0218,4.0739,4.234,4.2609,4.2609,4.2645,4.2606,4.2444,4.2147,4.2492,4.2822,4.286,4.4328,4.5798,4.7011,4.7482,4.7717,4.7717,4.7717,4.7717,4.7717,4.7717,4.7717,4.7717,4.7717,4.7717,4.7717,4.7717,4.7717,4.7717,4.7717,4.8152,4.8949,4.9745,5.0542,5.1357,5.2172,5.2498,5.2498,5.2498,5.2498,5.2498,5.2498,5.2498,5.2498,2.7614,2.7969,2.8268,2.8074,0.0,0.0,0.0,0.0,0.0,0.0,0.0,0.0,0.0,0.0,0.0,0.0,0.0,0.0,0.0,0.0,2.8905,2.9305,2.9592,2.9902,3.0189,3.0316,3.0443,0.0,0.0,0.0,0.0,0.0,0.0,0.0,0.0,0.0,0.0,0.0,0.0,3.0526,3.0634,3.0642,3.0543,3.0675,3.0784,3.0991,3.1834,3.2991,3.4186,3.4519,3.5372,3.6361,3.6542,3.7184,3.7915,3.7967,3.8054,3.8158,3.814,3.8174,3.8174,3.8192,3.8192,3.8192,0.0,0.0,0.0,3.807,3.8144,3.8669,4.0022,4.0381,4.0957,4.2397,4.2649,4.2688,4.2804,4.2727,4.2382,4.172,4.219,4.2334,4.1741,4.3896,4.5906,4.7373,4.7627,4.7717,4.7717,4.7717,4.7717,4.7717,4.7717,4.7717,4.7717,4.7717,4.7717,4.7717,4.7717,4.7717,4.7717,4.7717,4.8224,4.9184,4.9818,5.0633,5.1574,5.2226,5.2498,5.2498,5.2498,5.2498,5.2498,5.2498,5.2498,5.2498,2.8255,2.8505,2.8794,2.8623,0.0,0.0,0.0,0.0,0.0,0.0,0.0,0.0,0.0,0.0,0.0,0.0,0.0,0.0,2.8589,0.0,0.0,2.9305,2.971,3.0017,3.0205,3.0401,3.0485,3.0526,0.0,0.0,0.0,0.0,0.0,0.0,3.0526,0.0,0.0,0.0,3.0526,3.0576,3.1196,3.1064,3.0551,3.1255,3.1504,3.1629,3.256,3.3642,3.4686,3.5018,3.5826,3.6812,3.7175,3.7469,3.7685,3.7864,3.7934,3.7934,3.8002,3.8018,3.8036,3.8174,3.8192,3.8192,3.8192,0.0,3.8192,3.8174,0.0,3.9514,4.0311,0.0,0.0,4.2718,4.2862,4.2844,4.29,4.29,4.2555,4.1777,4.1759,4.1777,4.1686,4.3896,4.5671,4.6576,4.7301,4.7717,4.7717,4.7717,4.7717,4.7717,4.7717,4.7717,4.7717,4.7717,4.7717,4.7717,4.7717,4.7717,4.7717,4.7717,4.8532,4.9963,5.0053,5.0959,5.2371,5.2462,5.2498,5.2498,5.2498,5.2498,5.2498,5.2498,5.2498,5.2498,2.8665,2.8716,2.8732,2.8573,0.0,0.0,0.0,0.0,0.0,0.0,0.0,0.0,0.0,0.0,0.0,0.0,0.0,2.8795,2.8982,2.9121,0.0,0.0,2.9842,3.006,3.0189,3.0401,3.0526,3.0526,3.0526,0.0,0.0,0.0,0.0,0.0,3.0526,0.0,3.0526,0.0,3.0775,3.1189,3.1461,3.1686,3.1818,3.2116,3.2497,3.2928,3.3406,3.4242,3.5148,3.5471,3.6017,3.669,3.697,3.7241,3.7503,3.7667,3.7828,3.7899,3.7916,3.7967,3.8018,3.807,3.814,3.8301,3.879,3.8898,3.9007,3.9441,0.0,0.0,0.0,0.0,0.0,0.0,4.2882,4.2882,4.2882,4.2882,4.2592,4.1814,4.1723,4.1886,4.2357,4.3733,4.5128,4.6413,4.7265,4.7717,4.7717,4.7717,4.7717,4.7717,4.7717,4.7717,4.7717,4.7717,4.7717,4.7717,4.7717,4.7717,4.7735,4.8188,4.9021,5.0108,5.0578,5.143,5.2498,5.2498,5.2498,5.2498,5.2498,5.2498,5.2498,5.2498,5.2498,5.257,2.8826,0.0,0.0,0.0,0.0,0.0,0.0,0.0,0.0,0.0,0.0,0.0,2.7675,2.7989,0.0,0.0,2.8811,2.9059,2.935,2.9396,2.9486,2.9726,2.993,3.0103,3.0231,3.0443,3.0526,3.0526,0.0,0.0,0.0,0.0,0.0,0.0,0.0,3.0526,3.0526,3.0742,3.1097,3.1626,3.205,3.2646,3.3276,3.3061,3.3442,3.4087,3.4197,3.4714,3.535,3.5622,3.6112,3.6713,3.7004,3.7466,3.7975,3.8162,3.8311,3.8474,3.8474,3.8564,3.8598,3.8651,3.8739,3.8971,3.9568,3.9695,3.9858,4.0401,4.0691,0.0,0.0,0.0,0.0,0.0,0.0,4.2882,4.2882,4.2882,4.2592,4.1814,4.1524,4.1615,4.2176,4.3371,4.4584,4.5743,4.7011,4.7717,4.7717,4.7717,4.7717,4.7717,4.7717,4.7717,4.7717,4.7717,4.7717,4.7717,4.7717,4.7717,4.7735,4.855,4.9347,5.0126,5.0941,5.1756,5.2498,5.2498,5.2498,5.2498,5.2498,5.2498,5.2498,5.2498,5.2498,5.2625,2.8668,2.8493,0.0,0.0,0.0,0.0,0.0,0.0,0.0,0.0,2.7181,2.7386,2.7905,2.8088,2.8414,2.8858,2.9013,2.9229,2.9473,2.9608,2.971,2.981,3.0044,3.0248,3.0417,3.0485,3.0526,3.0526,3.0526,0.0,0.0,0.0,0.0,0.0,3.0526,3.0526,3.0576,3.1288,3.156,3.1692,3.316,3.417,3.475,3.4038,3.422,3.4866,3.4866,3.4977,3.5135,3.5333,3.6169,3.7168,3.7602,3.8485,3.9388,3.9642,3.98,3.9843,3.9994,4.0089,4.0146,4.0293,4.0402,4.0437,4.0474,4.0474,4.0492,4.051,4.1144,4.165,4.1723,0.0,0.0,0.0,0.0,0.0,0.0,4.2882,4.2592,4.1814,4.1017,4.0564,4.0582,4.2719,4.4114,4.4168,4.6377,4.7717,4.7717,4.7717,4.7717,4.7717,4.7717,4.7717,4.7717,4.7717,4.7717,4.7717,4.7717,4.7717,4.7735,4.855,4.9347,5.0126,5.0941,5.1756,5.2498,5.2498,5.2498,5.2498,5.2498,5.2498,5.2498,5.2498,5.2498,5.2625,2.8493,0.0,0.0,0.0,0.0,0.0,2.6951,2.6899,2.7003,2.7181,2.7372,2.7575,2.7955,2.8299,2.8621,2.9029,2.9229,2.9473,2.9742,2.9858,2.9886,2.9913,3.0189,3.0359,3.0417,3.0485,3.0526,3.0526,3.0526,0.0,0.0,0.0,0.0,0.0,0.0,3.0791,3.1212,3.1477,3.2183,3.3143,3.4121,3.4667,3.4866,3.4618,3.4667,3.4965,3.5446,3.5725,3.5904,3.6484,3.7121,3.7757,3.8109,3.872,3.937,3.9593,3.9775,3.9914,3.9971,4.0068,4.0218,4.0273,4.0366,4.0655,4.118,4.1307,4.147,4.1977,4.2303,4.2484,4.2484,0.0,0.0,0.0,0.0,0.0,0.0,4.2882,4.2792,4.252,4.1325,4.051,4.051,4.2194,4.3516,4.4059,4.6341,4.7717,4.7717,4.7717,4.7717,4.7717,4.7717,4.7717,4.7717,4.7717,4.7717,4.7717,4.7717,4.7717,4.7753,4.9075,4.9836,5.0162,5.1502,5.2245,5.2498,5.2498,5.2498,5.2498,5.2498,5.2498,5.2498,5.2498,5.2842,5.3476,2.8284,2.7989,0.0,0.0,2.7284,2.6974,2.6832,2.6899,2.7055,2.7233,2.7473,2.7816,2.8373,2.875,2.9183,2.9706,3.0068,3.0346,3.0545,3.0709,3.0798,3.0843,3.08,3.0797,3.0839,3.0617,3.0526,3.0526,3.0526,3.0526,0.0,0.0,0.0,0.0,0.0,3.1146,3.1609,3.2183,3.2928,3.3889,3.4883,3.5297,3.5313,3.5578,3.5512,3.5396,3.6125,3.6456,3.6621,3.7103,3.775,3.8323,3.864,3.9334,4.0026,4.0323,4.0512,4.0673,4.0753,4.0909,4.1063,4.1063,4.1214,4.1488,4.2013,4.214,4.2266,4.2774,4.2882,4.2882,4.2882,4.2882,0.0,0.0,0.0,0.0,0.0,4.2882,4.2882,4.2882,4.1488,4.051,4.051,4.1959,4.3099,4.3625,4.6178,4.7717,4.7717,4.7717,4.7717,4.7717,4.7717,4.7717,4.7717,4.7717,4.7717,4.7717,4.7717,4.7862,4.8188,4.9492,5.0253,5.0597,5.1919,5.2498,5.2498,5.2498,5.2498,5.2498,5.2498,5.2498,5.2498,5.2498,5.3186,5.4309,2.8024,2.7775,2.7524,2.7386,2.7041,2.6779,2.6779,2.6899,2.7122,2.7395,2.7584,2.8077,2.9114,2.9493,3.0005,3.0911,3.1355,3.1646,3.1774,3.2059,3.2292,3.2384,3.1846,3.1599,3.1626,3.099,3.0609,3.0576,3.0576,3.0559,0.0,0.0,0.0,0.0,3.1355,3.1643,3.1775,3.321,3.3839,3.4021,3.5446,3.6025,3.6141,3.6887,3.6721,3.6208,3.6903,3.7152,3.7168,3.7353,3.807,3.8923,3.933,4.022,4.13,4.1692,4.1952,4.2145,4.2287,4.245,4.2609,4.2609,4.2747,4.29,4.2882,4.2882,4.2882,4.2882,4.2882,4.2882,4.2882,4.2882,0.0,0.0,0.0,0.0,0.0,4.2882,4.2882,4.2846,4.147,4.051,4.051,4.1959,4.2882,4.2882,4.5888,4.7717,4.7717,4.7717,4.7717,4.7717,4.7717,4.7717,4.7717,4.7717,4.7717,4.7717,4.7717,4.8134,4.8949,4.9727,5.0524,5.1339,5.2136,5.2498,5.2498,5.2498,5.2498,5.2498,5.2498,5.2516,5.2552,5.2589,5.3603,5.507,2.7775,2.7386,2.7093,2.6989,2.6884,2.6779,2.6779,2.6989,2.741,2.8055,2.8426,2.8991,2.9867,3.0289,3.0619,3.0958,3.1355,3.1646,3.1774,3.2136,3.2384,3.2384,3.2397,3.2415,3.2415,3.2232,3.1868,3.1295,3.1295,3.1056,3.0526,0.0,0.0,0.0,3.21,3.2713,3.3259,3.364,3.4419,3.5462,3.5843,3.634,3.6903,3.7649,3.7814,3.7665,3.7864,3.793,3.8013,3.8595,3.9156,3.9665,3.9966,4.0603,4.13,4.1692,4.1952,4.2145,4.2287,4.2427,4.2526,4.257,4.2727,4.2842,4.29,4.2882,4.2882,4.2882,4.2882,4.2882,4.2882,4.2882,4.2882,0.0,0.0,0.0,4.2882,4.2882,4.2683,4.2085,4.1126,4.051,4.051,4.1959,4.2882,4.2882,4.5888,4.7717,4.7717,4.7717,4.7717,4.7717,4.7717,4.7717,4.7717,4.7717,4.7717,4.7717,4.7717,4.8134,4.8949,4.9727,5.0524,5.1339,5.2136,5.2498,5.2498,5.2498,5.2498,5.2498,5.2498,5.286,5.3458,5.4055,5.4888,5.583,2.7625,2.7335,2.7041,2.6884,2.717,2.7398,2.7307,2.7504,2.7988,2.8868,2.9275,2.9794,3.0646,3.1037,3.1368,3.1815,3.2174,3.2476,3.2625,3.3015,3.3254,3.3317,3.3205,3.3176,3.3176,3.2845,3.2497,3.2083,3.2083,3.1885,3.147,0.0,0.0,0.0,3.2845,3.3392,3.3839,3.4485,3.5247,3.6059,3.6704,3.7218,0.0,3.8394,3.8676,3.8676,3.8676,3.8676,3.8742,3.9139,3.9484,3.9746,4.0054,4.0468,4.0977,4.1408,4.1719,4.2065,4.2572,4.2864,4.3059,4.3481,4.3674,4.3794,4.3855,4.3894,4.3951,4.3951,4.3951,4.3824,4.348,4.3407,4.3299,4.2955,4.2882,4.2774,4.2411,4.2375,4.2085,4.1289,4.0492,4.0021,4.0021,4.1759,4.2882,4.2882,4.5888,4.7717,4.7717,4.7717,4.7717,4.7717,4.7717,4.7717,4.7717,4.7717,4.7717,4.7717,4.8079,4.8659,4.9456,5.0253,5.1049,5.1846,5.2299,5.2498,5.2498,5.2498,5.2498,5.2516,5.2878,5.3512,5.4327,5.5106,5.5631,5.612,2.7745,2.7505,2.7343,2.7342,2.7918,2.837,2.8366,2.8399,2.8777,2.981,3.0076,3.0563,3.1567,3.1874,3.2329,3.31,3.3508,3.3825,3.3982,3.4341,3.4627,3.4775,3.4409,3.417,3.4087,3.3442,3.3027,3.2829,3.2829,3.2779,0.0,0.0,0.0,3.2862,3.3607,3.3988,3.417,3.5462,3.6108,3.6406,3.7698,3.8278,3.8411,3.904,3.9272,3.9272,3.9272,3.9272,3.9272,3.9272,3.9395,3.9571,3.9915,4.0324,4.0786,4.1331,4.1751,4.2282,4.3172,4.3565,4.3895,4.4592,4.4923,4.507,4.5111,4.5192,4.5291,4.5291,4.5291,4.5091,4.4385,4.4258,4.4023,4.3317,4.3118,4.281,4.2122,4.194,4.1578,4.0763,4.0093,0.0,3.9695,4.1633,4.2882,4.2882,4.5888,4.7717,4.7717,4.7717,4.7717,4.7717,4.7717,4.7717,4.7717,4.7717,4.7717,4.7717,4.8532,4.9329,5.0108,5.0923,5.1737,5.2498,5.2498,5.2498,5.2498,5.2498,5.2552,5.2733,5.3548,5.4345,5.5142,5.5866,5.6156,5.6247,2.8359,2.8203,2.8207,2.8862,2.9109,2.9456,3.0213,2.9744,2.9678,3.0488,3.0852,3.1542,3.2921,3.3243,3.369,3.4488,3.4816,3.5094,3.5384,3.5706,3.5971,3.6299,3.6337,3.6142,3.5628,3.5479,3.4816,3.3607,3.3607,0.0,0.0,0.0,0.0,3.3624,3.4369,3.5048,3.5628,3.5893,3.6704,3.7847,3.8112,3.856,3.9106,3.9222,3.9272,3.9272,3.9272,3.9272,3.9272,3.9272,3.9395,3.9654,4.0555,4.1087,4.161,4.277,4.3313,4.3599,4.4014,4.4245,4.4395,4.4589,4.4856,4.5024,4.507,4.5192,4.5291,4.5291,4.5291,4.5254,4.511,4.5091,4.5037,4.4892,4.4313,4.3842,4.3697,4.3099,4.2393,4.1615,4.1397,4.1307,4.1307,4.2266,4.2882,4.2882,4.5888,4.7717,4.7717,4.7717,4.7717,4.7717,4.7717,4.7717,4.7717,4.7717,4.7717,4.7717,4.8532,4.9329,5.0108,5.0923,5.1737,5.2498,5.2498,5.2498,5.2498,5.2498,5.2878,5.3566,5.4381,5.5142,5.5903,5.6699,5.6989,5.7007,2.9185,2.9177,2.9267,2.9651,3.0051,3.0613,3.1515,3.1692,3.1814,3.2023,3.2181,3.2675,3.3844,3.414,3.4379,3.4878,3.5065,3.5347,3.5751,3.5969,3.6238,3.6519,3.6779,3.6785,3.6472,3.6522,3.6042,3.4932,3.4932,0.0,0.0,0.0,0.0,3.4386,3.5131,3.5876,3.6605,3.6986,3.7566,3.8245,3.8626,3.8974,3.9272,3.9272,3.952,3.9852,3.9852,4.0083,4.0332,3.9967,4.0138,4.0558,4.1197,4.1567,4.2039,4.2859,4.3311,4.3772,4.4525,4.4816,4.5025,4.5596,4.5944,4.618,4.623,4.6398,4.654,4.654,4.654,4.6432,4.5997,4.558,4.5291,4.5291,4.4983,4.4584,4.415,4.3769,4.3208,4.2411,4.2321,4.2321,4.2321,4.3425,4.4132,4.4132,4.6359,4.7717,4.7717,4.7717,4.7717,4.7717,4.7717,4.7717,4.7717,4.7717,4.7916,4.8333,4.9148,4.9945,5.0741,5.1556,5.2118,5.2498,5.2498,5.2498,5.2516,5.2951,5.3349,5.382,5.5015,5.5685,5.6084,5.6899,5.7188,5.7188,3.0213,3.0228,3.0411,3.0716,3.1313,3.202,3.2878,3.3547,3.3831,3.3529,3.3529,3.3848,3.4673,3.4852,3.5015,3.533,3.5446,3.5733,3.6214,3.638,3.6529,3.6852,3.7134,3.7225,3.7129,3.7232,3.6919,3.6241,3.6241,3.5943,3.5363,0.0,0.0,3.5396,3.5976,3.6655,3.7384,3.7963,3.8295,3.8493,3.9056,3.9371,3.9504,3.9504,3.9967,4.0597,4.0597,4.1044,4.1558,4.1011,4.1094,4.1442,4.1826,4.2083,4.2412,4.2976,4.3391,4.3935,4.4907,4.5308,4.5623,4.6478,4.6934,4.7178,4.7232,4.7468,4.7675,4.7699,4.7717,4.7518,4.6866,4.625,4.5816,4.5816,4.5671,4.5327,4.4693,4.4458,4.4114,4.348,4.3407,4.3462,4.3643,4.4802,4.5635,4.5798,4.6993,4.7717,4.7717,4.7717,4.7717,4.7717,4.7717,4.7717,4.7717,4.7717,4.8116,4.8931,4.9709,5.0506,5.1321,5.2118,5.2498,5.2498,5.2498,5.2589,5.2806,5.344,5.3892,5.4309,5.5522,5.6084,5.6319,5.6971,5.7188,5.7188,3.1303,3.1358,3.169,3.3104,3.3439,3.3758,3.4556,3.4769,3.4743,3.4585,3.4527,3.479,3.553,3.5608,3.5931,3.675,3.6961,3.7168,3.7668,3.7726,3.7898,3.8365,3.8421,3.8292,3.7903,3.7903,3.7593,3.7003,3.7003,3.697,3.6903,3.6903,3.6903,3.6903,3.697,3.7417,3.8112,3.8179,3.8593,3.9172,3.9239,3.9669,4.0282,4.0282,4.0713,4.1309,4.1309,4.1789,4.2402,4.2336,4.1922,4.1541,4.2409,4.2779,4.3121,4.4207,4.4739,4.5094,4.5459,4.5833,4.6147,4.6217,4.6637,4.7043,4.7178,4.7356,4.7554,4.7657,4.7717,4.7681,4.7609,4.7536,4.7482,4.7482,4.6866,4.6359,4.6287,4.5653,4.5164,4.5073,4.5073,4.5363,4.6087,4.6305,4.6703,4.7428,4.7627,4.7717,4.7717,4.7717,4.7717,4.7717,4.7717,4.7717,4.7717,4.7717,4.8116,4.8931,4.9709,5.0506,5.1321,5.2118,5.2498,5.2498,5.2498,5.2915,5.3585,5.3675,5.4526,5.5794,5.5939,5.6446,5.7098,5.717,5.7188,5.7188,3.2874,3.2944,3.3255,3.4404,3.4576,3.4867,3.5671,3.5823,3.5922,3.6346,3.5873,3.5755,3.638,3.6457,3.6627,3.7074,3.7254,3.7492,3.786,3.7992,3.8221,3.8464,3.856,3.8541,3.8504,3.8558,3.8319,3.7765,3.7765,3.7549,3.7102,3.7102,3.735,3.7765,3.7765,3.8179,3.8858,3.8858,3.9272,3.9934,3.9934,4.0365,4.0994,4.0994,4.1442,4.2071,4.2071,4.2551,4.3181,4.3181,4.2982,4.28,4.3157,4.3373,4.3671,4.4169,4.4575,4.4835,4.5266,4.5546,4.5786,4.6137,4.6495,4.6842,4.7043,4.7249,4.7407,4.7554,4.7657,4.7717,4.7717,4.7717,4.7717,4.7717,4.7446,4.7228,4.7228,4.6939,4.6739,4.6739,4.6739,4.6866,4.7192,4.7228,4.7355,4.7681,4.7717,4.7717,4.7717,4.7717,4.7717,4.7717,4.7717,4.7717,4.7717,4.8188,4.8822,4.9619,5.0434,5.123,5.2027,5.2353,5.2498,5.2516,5.3005,5.3403,5.3766,5.4689,5.5432,5.6047,5.6518,5.6917,5.7188,5.7188,5.7188,5.7188,3.4265,3.4359,3.4579,3.5414,3.554,3.5817,3.6627,3.6738,3.6911,3.7417,3.705,3.6808,3.7029,3.7044,3.7183,3.7492,3.7629,3.7947,3.8467,3.8659,3.8834,3.9007,3.8943,3.8925,3.9116,3.9013,3.8793,3.8526,3.8526,3.8261,3.7748,3.7748,3.8013,3.8526,3.8526,3.8924,3.9603,3.9603,4.0017,4.068,4.068,4.111,4.174,4.174,4.2204,4.285,4.285,4.3181,4.3628,4.3628,4.3628,4.3628,4.3628,4.3704,4.3822,4.3998,4.4196,4.4463,4.4906,4.5177,4.5441,4.5837,4.6235,4.6542,4.6795,4.7007,4.7276,4.7468,4.7572,4.7657,4.7699,4.7717,4.7717,4.7717,4.7717,4.7717,4.7717,4.7717,4.7717,4.7717,4.7717,4.7717,4.7717,4.7717,4.7717,4.7717,4.7717,4.7717,4.7717,4.7717,4.7717,4.7717,4.7717,4.7826,4.8061,4.8641,4.942,5.0452,5.1013,5.1719,5.2498,5.2498,5.2625,5.2878,5.3458,5.3965,5.4454,5.554,5.6138,5.641,5.6971,5.7188,5.7188,5.7188,5.7188,5.7188,3.5379,3.5379,3.56,3.6295,3.6421,3.6643,3.7354,3.7464,3.7464,3.748,3.8065,3.8162,3.7257,3.7194,3.7477,3.8199,3.8385,3.8898,3.9934,3.9966,4.0164,4.0464,3.9833,3.9617,3.9886,3.9165,3.8969,3.9309,3.9309,3.9255,3.9239,3.9239,3.9255,3.9309,3.9309,3.9669,4.0365,4.0365,4.0763,4.1409,4.1409,4.1839,4.2502,4.2502,4.2965,4.3611,4.3611,4.3611,4.3628,4.3628,4.3628,4.3628,4.3628,4.3628,4.3628,4.3822,4.3998,4.4138,4.4446,4.4835,4.523,4.5389,4.5786,4.6235,4.6398,4.6749,4.7116,4.7425,4.7511,4.7554,4.7675,4.7717,4.7717,4.7717,4.7717,4.7717,4.7717,4.7717,4.7717,4.7717,4.7717,4.7717,4.7717,4.7717,4.7717,4.7717,4.7717,4.7717,4.7717,4.7717,4.7717,4.7717,4.7717,4.8098,4.8894,4.8912,4.9709,5.1285,5.1285,5.1719,5.2498,5.2498,5.2933,5.3693,5.3693,5.4562,5.5957,5.5975,5.6464,5.7188,5.7188,5.7188,5.7188,5.7188,5.7188,5.7188,3.5995,3.609,3.6327,3.7022,3.7148,3.737,3.8081,3.8191,3.8349,3.8792,3.9044,3.9108,3.8809,3.8777,3.8872,3.9109,3.9265,3.9545,3.9982,4.0151,4.0273,4.0496,4.0286,4.0274,4.0449,4.0353,4.0409,4.0595,4.069,4.0729,4.0729,4.0729,4.0729,4.0729,4.0729,4.0862,4.1077,4.1077,4.1508,4.217,4.217,4.2618,4.328,4.328,4.3429,4.3628,4.3628,4.3628,4.3628,4.3628,4.3628,4.3628,4.3628,4.3628,4.3628,4.3704,4.3822,4.3998,4.431,4.4575,4.4835,4.5283,4.558,4.5837,4.6087,4.6495,4.6934,4.7116,4.7338,4.7511,4.7572,4.7657,4.7717,4.7717,4.7717,4.7717,4.7717,4.7717,4.7717,4.7717,4.7717,4.7717,4.7717,4.7717,4.7717,4.7717,4.7717,4.7717,4.7717,4.7717,4.7717,4.7717,4.8242,4.8659,4.8912,4.9999,5.0778,5.1303,5.1846,5.2245,5.2516,5.3078,5.3458,5.3766,5.4798,5.554,5.6029,5.6591,5.6971,5.7188,5.7188,5.7188,5.7188,5.7188,5.7188,5.7188,3.6738,3.6817,3.7038,3.7749,3.7875,3.8096,3.8776,3.8886,3.9029,3.9455,3.974,3.9914,3.9914,4.0135,4.0182,3.9945,4.0008,4.0292,4.0672,4.0876,4.1077,4.1245,4.1047,4.0961,4.114,4.0939,4.0983,4.1231,4.1312,4.1409,4.1409,4.1409,4.1409,4.1409,4.1409,4.1574,4.1823,4.1823,4.2253,4.2932,4.2932,4.3214,4.3628,4.3628,4.3628,4.3628,4.3628,4.3628,4.3628,4.3628,4.3628,4.3628,4.3628,4.3628,4.3628,4.3628,4.3687,4.3881,4.4155,4.4293,4.4575,4.5069,4.5336,4.5529,4.5837,4.6235,4.6637,4.6888,4.7116,4.7338,4.7407,4.7511,4.7554,4.7554,4.7615,4.7615,4.7615,4.7657,4.7717,4.7717,4.7717,4.7717,4.7717,4.7717,4.7717,4.7717,4.7717,4.7844,4.8134,4.788,4.7844,4.8152,4.8659,4.9202,4.98,5.0796,5.1448,5.1756,5.2263,5.2661,5.2969,5.3476,5.4019,5.4617,5.5577,5.6156,5.6482,5.6989,5.7188,5.7188,5.7188,5.7188,5.7188,5.7188,5.7188,5.7188,3.7607,3.7622,3.7828,3.8476,3.8586,3.8807,3.9471,3.9582,3.9598,3.9645,4.0245,4.0672,4.0672,4.1225,4.1336,4.0719,4.0672,4.1005,4.1866,4.2012,4.2174,4.2381,4.194,4.1707,4.1829,4.1222,4.0998,4.1379,4.146,4.1574,4.1574,4.1574,4.1574,4.1574,4.1574,4.1955,4.2601,4.2601,4.2999,4.3628,4.3628,4.3628,4.3628,4.3628,4.3628,4.3628,4.3628,4.3628,4.3628,4.3628,4.3628,4.3628,4.3678,4.3694,4.3694,4.3645,4.3661,4.3754,4.4065,4.4255,4.4518,4.4817,4.5132,4.5438,4.584,4.6145,4.6442,4.6844,4.7048,4.7186,4.7393,4.7383,4.7348,4.7348,4.7443,4.7511,4.7511,4.7615,4.7699,4.7717,4.7717,4.7717,4.7717,4.7717,4.7735,4.779,4.779,4.8134,4.8949,4.8279,4.8224,4.8967,4.9057,4.98,5.1285,5.1357,5.1774,5.257,5.257,5.3005,5.3784,5.3838,5.4635,5.5993,5.6047,5.65,5.7188,5.7188,5.7188,5.7188,5.7188,5.7188,5.7188,5.7188,5.7188,5.7188,3.8918,3.9029,3.9076,3.9234,3.9266,3.9518,4.023,4.034,4.0514,4.1035,4.1241,4.1351,4.1351,4.1494,4.1525,4.1367,4.1351,4.1512,4.1898,4.2012,4.2174,4.2381,4.2346,4.2375,4.2375,4.2415,4.2561,4.2861,4.3039,4.3098,4.3098,4.3098,4.3098,4.3098,4.3098,4.3197,4.3363,4.3363,4.3462,4.3628,4.3628,4.3628,4.3628,4.3628,4.3628,4.3628,4.3628,4.3628,4.3628,4.3628,4.3628,4.3727,4.4257,4.444,4.4324,4.3794,4.4009,4.45,4.468,4.514,4.5678,4.601,4.636,4.6686,4.7165,4.7348,4.7526,4.801,4.8279,4.8493,4.8639,4.8329,4.8038,4.8038,4.7671,4.7363,4.7511,4.7511,4.7615,4.7699,4.7717,4.7717,4.7717,4.7717,4.7971,4.8586,4.8641,4.8985,4.9764,4.9637,4.9619,4.98,5.0397,5.0904,5.1285,5.19,5.2625,5.3422,5.3422,5.3838,5.4653,5.5196,5.5649,5.6029,5.6645,5.7025,5.7188,5.7188,5.7188,5.7188,5.7188,5.7188,5.7188,5.7188,5.7188,5.7188,3.9424,3.9503,3.9613,3.9945,4.0008,4.0245,4.0941,4.1051,4.1178,4.1541,4.1588,4.1588,4.1588,4.1588,4.1588,4.1588,4.1588,4.167,4.1752,4.198,4.2174,4.2254,4.2508,4.2634,4.2634,4.2696,4.2945,4.3235,4.3492,4.3628,4.3628,4.3628,4.3628,4.3628,4.3628,4.3628,4.3628,4.3628,4.3628,4.3628,4.3628,4.3628,4.3628,4.3628,4.3628,4.3628,4.3628,4.3628,4.3678,4.3992,4.4108,4.4241,4.4953,4.5185,4.5119,4.4721,4.4887,4.5246,4.5369,4.5713,4.6074,4.6368,4.665,4.6927,4.7158,4.7498,4.783,4.8136,4.8417,4.8692,4.8776,4.8639,4.8484,4.8484,4.8318,4.8217,4.8308,4.8461,4.8612,4.8717,4.8743,4.8804,4.8804,4.8804,4.8985,4.942,4.9456,4.98,5.0597,5.0633,5.0633,5.0633,5.1067,5.1466,5.1828,5.2596,5.323,5.3693,5.4008,5.4587,5.5414,5.5812,5.6192,5.6573,5.7007,5.7188,5.7188,5.7188,5.7188,5.7188,5.7188,5.7188,5.7188,5.7188,5.7188,5.7243,3.9803,3.9819,4.0008,4.064,4.0751,4.0941,4.1494,4.1588,4.1588,4.1588,4.1588,4.1588,4.1588,4.1588,4.1588,4.1588,4.1588,4.1588,4.1588,4.1916,4.2109,4.2109,4.2429,4.2634,4.2634,4.2634,4.2805,4.3113,4.3432,4.3568,4.3628,4.3628,4.3628,4.3628,4.3628,4.3628,4.3628,4.3628,4.3628,4.3628,4.3628,4.3628,4.3628,4.3628,4.3694,4.3794,4.3794,4.386,4.4042,4.4638,4.4854,4.4986,4.5715,4.5963,4.598,4.6096,4.6129,4.6159,4.615,4.62,4.6362,4.6519,4.673,4.6937,4.6997,4.75,4.7916,4.8104,4.834,4.8573,4.8767,4.8818,4.8799,4.8868,4.9047,4.9221,4.9269,4.9618,4.982,4.9911,5.0001,5.009,5.009,5.009,5.0144,5.0253,5.0271,5.0615,5.143,5.1466,5.1466,5.1466,5.1466,5.1864,5.2661,5.3225,5.3677,5.4055,5.4543,5.5266,5.6174,5.6174,5.6536,5.7188,5.7188,5.7188,5.7188,5.7188,5.7188,5.7188,5.7188,5.7188,5.7188,5.7188,5.7279,5.7478,4.1146,4.1257,4.1304,4.1415,4.143,4.1478,4.1573,4.1588,4.1588,4.1588,4.1588,4.1588,4.1588,4.1588,4.1588,4.1588,4.1588,4.1588,4.1588,4.1916,4.2109,4.2109,4.2429,4.2634,4.2634,4.2775,4.2945,4.3113,4.3312,4.3509,4.3628,4.3628,4.3628,4.3628,4.3628,4.3628,4.3628,4.3628,4.3628,4.3628,4.3628,4.3628,4.3628,4.3628,4.3992,4.4522,4.4522,4.492,4.5483,4.5582,4.5616,4.5748,4.6493,4.6725,4.6841,4.7487,4.7653,4.752,4.6891,4.7253,4.7718,4.7894,4.7958,4.8069,4.8523,4.8707,4.895,4.9464,4.9637,4.9751,5.0049,4.9657,4.9327,4.9539,4.9115,4.8926,4.9269,4.9365,4.9525,4.9866,4.9911,5.0001,5.009,5.009,5.0361,5.1049,5.1104,5.1448,5.2263,5.2299,5.2299,5.2299,5.2299,5.2697,5.3512,5.3496,5.42,5.5631,5.5609,5.6079,5.7007,5.7007,5.708,5.7188,5.7188,5.7188,5.7188,5.7188,5.7188,5.7188,5.7188,5.7188,5.7188,5.7188,5.7623,5.8239,4.1525,4.1588,4.1588,4.1588,4.1588,4.1588,4.1588,4.1588,4.1588,4.1588,4.1588,4.1588,4.1588,4.1588,4.1588,4.1588,4.1588,4.1588,4.1588,4.1916,4.2109,4.2109,4.2429,4.2634,4.2634,4.2883,4.3052,4.3113,4.3372,4.3568,4.3628,4.3628,4.3628,4.3628,4.3628,4.3628,4.3628,4.3628,4.3628,4.3661,4.4042,4.4191,4.4241,4.4638,4.5003,4.5284,4.5284,4.55,4.5847,4.6245,4.6394,4.651,4.7255,4.7487,4.7554,4.7901,4.8001,4.7934,4.7587,4.7736,4.8001,4.8066,4.8179,4.8292,4.8483,4.8815,4.9063,4.935,4.9649,4.9825,4.9999,4.9933,4.9858,4.9948,4.9888,4.9907,5.0063,5.0335,5.0552,5.0844,5.1005,5.1146,5.1284,5.133,5.1538,5.1919,5.1937,5.21,5.248,5.2915,5.315,5.315,5.315,5.353,5.4345,5.4598,5.5139,5.5993,5.6277,5.6725,5.7188,5.7188,5.7188,5.7188,5.7188,5.7188,5.7188,5.7188,5.7188,5.7188,5.7188,5.7188,5.7243,5.7695,5.8076,5.8528,4.1588,4.1588,4.1588,4.1588,4.1588,4.1588,4.1588,4.1588,4.1588,4.1588,4.1588,4.1588,4.1588,4.1588,4.1588,4.1588,4.1588,4.1588,4.1588,4.1916,4.2109,4.2109,4.2429,4.2634,4.2634,4.2867,4.3052,4.3113,4.3432,4.3568,4.3628,4.3628,4.3628,4.3628,4.3794,4.3876,4.3893,4.4059,4.4125,4.4175,4.4721,4.4937,4.5003,4.5566,4.5897,4.6046,4.6046,4.6162,4.6394,4.6957,4.7156,4.7255,4.7819,4.8001,4.8001,4.8001,4.8001,4.8001,4.8001,4.8001,4.8001,4.8001,4.8066,4.8163,4.8163,4.8547,4.8877,4.9001,4.9307,4.953,4.9649,4.9884,5.0074,5.0074,5.038,5.0585,5.0712,5.1052,5.1436,5.164,5.184,5.2102,5.2264,5.2405,5.2524,5.277,5.277,5.286,5.3041,5.3639,5.4055,5.4237,5.4074,5.4363,5.516,5.5555,5.5934,5.6265,5.6747,5.7087,5.7188,5.7188,5.7188,5.7188,5.7188,5.7188,5.7188,5.7188,5.7188,5.7188,5.7188,5.7315,5.755,5.8166,5.8637,5.9144,4.1588,4.1588,4.1588,4.1588,4.1588,4.1588,4.1588,4.1588,4.1588,4.1588,4.1588,4.1588,4.1588,4.1588,4.1588,4.1588,4.1588,4.1588,4.1588,4.1916,4.2109,4.2109,4.2429,4.2634,4.2634,4.2837,4.2945,4.3113,4.3312,4.3509,4.3628,4.3628,4.3628,4.3661,4.4307,4.4605,4.4655,4.5334,4.5632,4.5632,4.5698,4.5715,4.5715,4.5765,4.6212,4.6825,4.6825,4.7255,4.7852,4.7901,4.7918,4.7934,4.7984,4.8001,4.8001,4.8001,4.8001,4.8001,4.8001,4.8001,4.8001,4.8001,4.8001,4.8066,4.8163,4.8227,4.842,4.8877,4.9001,4.9124,4.9488,4.953,4.959,4.9708,4.9884,5.0097,5.0397,5.0657,5.1035,5.147,5.164,5.1907,5.2264,5.2311,5.2665,5.3566,5.3603,5.3947,5.4689,5.478,5.5124,5.5812,5.5178,5.5178,5.5903,5.5808,5.6223,5.7116,5.7018,5.7087,5.7188,5.7188,5.7188,5.7188,5.7188,5.7188,5.7188,5.7188,5.7188,5.7188,5.7188,5.7659,5.8329,5.8383,5.9343,6.0647,4.1588,4.1588,4.1588,4.1588,4.1588,4.1588,4.1588,4.1588,4.1588,4.1588,4.1588,4.1588,4.1588,4.1588,4.1588,4.1588,4.1588,4.1588,4.1588,4.233,4.2703,4.2397,4.2508,4.2634,4.2634,4.2867,4.3281,4.3784,4.4092,4.4462,4.497,4.497,4.497,4.4986,4.5251,4.5367,4.5384,4.5665,4.5798,4.5831,4.6295,4.6477,4.6527,4.699,4.7338,4.7587,4.7587,4.7769,4.8001,4.8001,4.8001,4.8001,4.8001,4.8315,4.8779,4.9243,4.9375,4.9375,4.9375,4.9044,4.8796,4.926,4.9375,4.9375,4.9426,4.946,4.9642,4.9839,5.0051,5.0109,4.9763,4.9848,4.9879,4.9479,4.959,4.9884,5.0057,5.0285,5.0794,5.1722,5.1971,5.248,5.3387,5.3657,5.3947,5.4418,5.4454,5.4581,5.4888,5.5323,5.5939,5.6717,5.6464,5.6464,5.6736,5.6685,5.6848,5.7188,5.7156,5.7138,5.7188,5.7188,5.7188,5.7188,5.7188,5.7188,5.7188,5.7188,5.7496,5.7949,5.7949,5.8438,5.9198,5.9705,6.0285,6.0883,4.1588,4.1588,4.1588,4.1588,4.1588,4.1588,4.1588,4.1588,4.1588,4.1588,4.1588,4.1588,4.1588,4.1794,4.1936,4.1936,4.2141,4.2252,4.2236,4.303,4.3425,4.3266,4.3314,4.3314,4.3314,4.3614,4.4046,4.4538,4.4913,4.5284,4.5798,4.5798,4.5798,4.5798,4.603,4.6146,4.6146,4.6394,4.6493,4.6527,4.704,4.7255,4.7305,4.7819,4.8001,4.8001,4.8001,4.8001,4.8034,4.8266,4.8349,4.8398,4.863,4.9044,4.9558,5.0071,5.022,5.027,5.0485,5.0171,4.9856,5.0137,5.022,5.022,5.022,5.0255,5.0358,5.0409,5.061,5.0592,5.0154,5.0247,5.027,4.9842,4.9988,5.0231,5.0352,5.0666,5.1148,5.2088,5.2459,5.3034,5.406,5.432,5.4597,5.5067,5.5103,5.5212,5.5465,5.6002,5.6527,5.7087,5.7087,5.7087,5.7156,5.7188,5.7188,5.7188,5.7188,5.7188,5.7188,5.7188,5.7188,5.7188,5.7188,5.7188,5.7224,5.746,5.7895,5.8438,5.8691,5.9271,6.005,6.0611,6.0973,6.1281,4.1588,4.1588,4.1588,4.1588,4.1588,4.1588,4.1588,4.1588,4.1588,4.1604,4.1604,4.1604,4.1604,4.2252,4.2695,4.2695,4.3327,4.3706,4.369,4.4018,4.4372,4.4804,4.4804,4.4787,4.4787,4.5098,4.5291,4.5308,4.561,4.5798,4.5814,4.5814,4.5814,4.5847,4.6576,4.6908,4.6957,4.7686,4.8001,4.8001,4.8001,4.8001,4.8001,4.8001,4.8001,4.8017,4.8017,4.8017,4.8133,4.8862,4.9127,4.9243,4.9988,5.022,5.022,5.0237,5.0237,5.0386,5.1098,5.128,5.1115,5.0402,5.0237,5.0237,5.0237,5.0237,5.0289,5.0375,5.0426,5.0493,5.066,5.0727,5.0793,5.0974,5.1105,5.1282,5.149,5.1912,5.2339,5.2653,5.2927,5.3379,5.3922,5.4045,5.4454,5.5554,5.5608,5.5967,5.6758,5.6794,5.6794,5.6794,5.6794,5.6847,5.7003,5.7138,5.7188,5.7188,5.7188,5.7188,5.7188,5.7188,5.7188,5.7188,5.7206,5.7206,5.7261,5.8076,5.842,5.851,5.9307,6.0104,6.0828,6.0828,6.1317,6.2023,4.1588,4.1588,4.1588,4.1588,4.1588,4.1588,4.1588,4.1588,4.1778,4.2284,4.2363,4.2537,4.3026,4.3263,4.339,4.3406,4.3595,4.3997,4.4804,4.4904,4.5335,4.6245,4.5322,4.4787,4.4787,4.5098,4.5537,4.6061,4.6432,4.6841,4.7338,4.7338,4.7338,4.7355,4.757,4.7669,4.7686,4.7918,4.8001,4.8001,4.8001,4.8001,4.8001,4.8001,4.8315,4.8779,4.8779,4.911,4.9591,4.9806,4.9889,5.0005,5.0734,5.0949,5.1065,5.1578,5.1728,5.1777,5.1993,5.2042,5.1993,5.1794,5.1728,5.1728,5.1728,5.1728,5.1728,5.1781,5.1781,5.1685,5.1187,5.1208,5.1093,5.0627,5.0826,5.1105,5.1282,5.16,5.2162,5.3099,5.3554,5.4173,5.5119,5.5431,5.574,5.6116,5.6241,5.6402,5.6635,5.6742,5.6794,5.6794,5.6794,5.6847,5.7003,5.7054,5.7105,5.7188,5.7188,5.7188,5.7188,5.7188,5.7188,5.7224,5.7804,5.8039,5.8094,5.8909,5.9579,6.0122,6.0357,6.0937,6.1661,6.1661,6.1806,6.2023,4.1588,4.1588,4.1588,4.1588,4.1588,4.1683,4.1983,4.2031,4.2284,4.3011,4.3105,4.3263,4.3674,4.3943,4.4101,4.4117,4.4455,4.4929,4.5677,4.5763,4.6164,4.686,4.6067,4.5613,4.5613,4.5962,4.6372,4.6815,4.7144,4.7554,4.8001,4.8001,4.8001,4.8001,4.8001,4.8001,4.8001,4.8001,4.8001,4.8034,4.8315,4.8448,4.8481,4.8763,4.916,4.9558,4.9558,4.9839,5.0253,5.0535,5.0833,5.1148,5.1578,5.1711,5.1794,5.2258,5.2373,5.2373,5.2373,5.2373,5.2373,5.2373,5.2373,5.2373,5.2373,5.2373,5.2373,5.2373,5.2373,5.2241,5.1794,5.1765,5.1755,5.1358,5.1496,5.1715,5.1965,5.2227,5.2721,5.3536,5.3991,5.4608,5.5361,5.5724,5.6011,5.6217,5.6273,5.6383,5.6455,5.6492,5.66,5.6653,5.6689,5.6794,5.6899,5.7309,5.7361,5.7188,5.7188,5.7369,5.7677,5.7677,5.784,5.8184,5.8655,5.8872,5.8945,5.9742,6.0375,6.0846,6.1172,6.1589,6.2023,6.2023,6.2023,6.2023,4.1588,4.1588,4.1604,4.1683,4.1683,4.1936,4.2679,4.2774,4.3026,4.3722,4.3816,4.3832,4.3911,4.4448,4.4812,4.4812,4.5572,4.6168,4.6262,4.6458,4.6668,4.6876,4.6876,4.6892,4.6961,4.7319,4.7486,4.7486,4.7803,4.8001,4.8001,4.8001,4.8001,4.8001,4.8001,4.8034,4.81,4.81,4.815,4.8266,4.8945,4.921,4.9276,4.9955,5.0253,5.0303,5.0303,5.0353,5.0502,5.1148,5.1827,5.2373,5.2373,5.2373,5.2373,5.2373,5.2373,5.2373,5.2373,5.2373,5.2373,5.2373,5.2373,5.2373,5.2373,5.2373,5.2373,5.2373,5.2373,5.2373,5.2373,5.2373,5.2445,5.257,5.2553,5.2694,5.311,5.3298,5.3567,5.3915,5.4239,5.462,5.493,5.5252,5.5607,5.5861,5.5918,5.5993,5.6197,5.6197,5.629,5.6401,5.6617,5.6761,5.6902,5.7852,5.7957,5.7315,5.7387,5.7804,5.851,5.851,5.8909,5.9615,5.9687,5.9724,5.9778,6.0593,6.0919,6.0991,6.1734,6.2023,6.2023,6.2023,6.2023,6.2023,4.1588,4.1588,4.1762,4.2347,4.2457,4.2695,4.339,4.35,4.3737,4.4417,4.4496,4.4717,4.5302,4.5491,4.557,4.557,4.5873,4.6168,4.6262,4.6458,4.6668,4.6876,4.6876,4.6961,4.7098,4.7403,4.7486,4.7486,4.7803,4.8001,4.8001,4.8001,4.8001,4.8001,4.8001,4.8315,4.8862,4.8862,4.9193,4.9756,4.9906,4.9972,4.9988,5.0154,5.0568,5.1048,5.1048,5.1413,5.1943,5.2092,5.2258,5.2373,5.2373,5.2373,5.2373,5.2373,5.2373,5.2373,5.2373,5.2373,5.2373,5.2373,5.2373,5.2373,5.2373,5.2373,5.2373,5.2373,5.2373,5.2373,5.2373,5.2373,5.2373,5.2445,5.2499,5.2624,5.2694,5.3093,5.3433,5.35,5.3946,5.435,5.4575,5.5035,5.5396,5.5706,5.5861,5.5993,5.6197,5.629,5.6401,5.6546,5.7209,5.7622,5.7888,5.8735,5.8788,5.8148,5.8782,5.918,5.9343,5.9343,5.9452,5.9651,6.0285,6.0557,6.0611,6.1426,6.1752,6.177,6.1951,6.2023,6.2023,6.2023,6.2023,6.2023,4.1588,4.1873,4.2236,4.2616,4.2947,4.339,4.4085,4.4196,4.4448,4.5144,4.5238,4.5381,4.5776,4.5807,4.5807,4.5807,4.6008,4.6223,4.6278,4.6598,4.6807,4.6892,4.7232,4.7496,4.7704,4.8253,4.821,4.7604,4.7869,4.8183,4.8531,4.8531,4.8713,4.9061,4.9061,4.9276,4.9624,4.9624,4.9856,5.0237,5.0585,5.0717,5.075,5.1115,5.1479,5.1794,5.1794,5.2042,5.2373,5.2373,5.2373,5.2373,5.2373,5.2373,5.2373,5.2373,5.2373,5.2373,5.2373,5.2373,5.2373,5.2373,5.2373,5.2373,5.2373,5.2373,5.2373,5.2373,5.2373,5.2373,5.2373,5.2373,5.2373,5.2373,5.2445,5.2499,5.2553,5.2834,5.3093,5.3298,5.3683,5.4158,5.4683,5.4974,5.5277,5.5648,5.5764,5.6095,5.6843,5.6898,5.7243,5.7819,5.8286,5.861,5.8771,5.9619,5.9906,5.9561,5.9579,5.9814,6.0176,6.0176,6.0394,6.0774,6.1208,6.139,6.1426,6.1842,6.2023,6.2023,6.2023,6.2023,6.2023,6.2023,6.2023,6.2023,4.1778,4.2363,4.29,4.3011,4.3485,4.4085,4.478,4.4907,4.5128,4.5728,4.5807,4.5807,4.5807,4.5807,4.5807,4.5807,4.6136,4.6381,4.6509,4.6862,4.7135,4.7232,4.7848,4.8313,4.8523,4.9235,4.9148,4.8083,4.8299,4.8696,4.9293,4.9293,4.9624,5.022,5.022,5.0286,5.0402,5.0402,5.0469,5.0634,5.1231,5.1462,5.1529,5.2142,5.2373,5.2373,5.2373,5.2373,5.2373,5.2373,5.2373,5.2373,5.2373,5.2373,5.2373,5.2373,5.2373,5.2373,5.2373,5.2373,5.2373,5.2373,5.2373,5.2373,5.2373,5.2373,5.2373,5.2373,5.2373,5.2373,5.2373,5.2373,5.2373,5.2373,5.2373,5.2445,5.257,5.264,5.2764,5.311,5.3517,5.4145,5.5043,5.5183,5.5496,5.6112,5.617,5.6626,5.7813,5.7848,5.8246,5.9222,5.9475,5.9601,5.9655,6.0557,6.1027,6.1009,6.0339,6.0375,6.1027,6.1027,6.139,6.2023,6.2023,6.2023,6.2023,6.2023,6.2023,6.2023,6.2023,6.2023,6.2023,6.2023,6.2023,6.2023,4.2537,4.309,4.3737,4.4338,4.4512,4.4812,4.5555,4.5665,4.5697,4.5807,4.5807,4.5807,4.5807,4.5807,4.5807,4.5807,4.6136,4.6605,4.7213,4.7635,4.8123,4.8706,4.8962,4.9224,4.9452,4.9707,4.9813,4.9599,4.9837,4.9955,5.0071,5.0071,5.0121,5.022,5.022,5.0551,5.1131,5.1131,5.1496,5.2092,5.2191,5.2224,5.2241,5.234,5.2373,5.2373,5.2373,5.2373,5.2373,5.2373,5.2373,5.2373,5.2373,5.2373,5.2373,5.2373,5.2373,5.2373,5.2373,5.2373,5.2373,5.2373,5.2373,5.2373,5.2373,5.2373,5.2373,5.2373,5.2373,5.2373,5.2373,5.2373,5.2373,5.2373,5.2373,5.239,5.2445,5.2711,5.2903,5.2903,5.3517,5.4432,5.5681,5.5956,5.6545,5.7877,5.793,5.8201,5.8765,5.8821,5.8968,5.9349,6.007,6.0485,6.0593,6.1462,6.186,6.186,6.1752,6.1752,6.186,6.186,6.1915,6.2023,6.2023,6.2023,6.2023,6.2023,6.2023,6.2023,6.2023,6.2023,6.2023,6.2023,6.2023,6.2023,4.32,4.3801,4.4354,4.4654,4.5049,4.5428,4.576,4.5807,4.5807,4.5807,4.5807,4.5807,4.5807,4.5807,4.5965,4.6475,4.6797,4.7245,4.8111,4.8433,4.8706,4.9013,4.9619,4.9975,5.0205,5.0845,5.1201,5.1272,5.0532,5.0419,5.08,5.08,5.1032,5.1429,5.1429,5.1595,5.1893,5.1893,5.2075,5.2373,5.2373,5.2373,5.2373,5.2373,5.2373,5.2373,5.2373,5.2373,5.2373,5.2373,5.2373,5.2373,5.2373,5.2373,5.2373,5.2373,5.2373,5.2373,5.2373,5.2373,5.2373,5.2373,5.2373,5.2373,5.2373,5.2373,5.2373,5.2373,5.2373,5.2373,5.2373,5.2373,5.2373,5.2373,5.2373,5.2373,5.2373,5.2848,5.3444,5.4216,5.4822,5.5497,5.6267,5.6657,5.7192,5.8076,5.8231,5.8721,5.9721,5.9813,6.0122,6.0829,6.119,6.1426,6.148,6.1842,6.2023,6.2023,6.2023,6.2023,6.2023,6.2023,6.2023,6.2023,6.2023,6.2023,6.2023,6.2023,6.2023,6.2023,6.2023,6.2023,6.2023,6.2023,6.2023,6.2023]},{"header":{"parameterUnit":"m.s-1","parameterCategory":1,"la1":30.6,"la2":28.766,"lo1":-90.7593,"lo2":-88.6598,"dy":0.0162,"dx":0.0183,"nx":116,"ny":114,"refTime":"2024-02-13T06:00:00:Z","depth":0,"parameterNumber":3,"parameterNumberName":"V-component_of_WINDS"},"data":[0.0,0.0,0.0,0.0,0.0,0.0,0.0,0.0,0.0,0.0,0.0,0.0,0.0,0.0,0.0,0.0,0.0,0.0,0.0,0.0,0.0,0.0,0.0,0.0,0.0,0.0,0.0,0.0,0.0,0.0,0.0,0.0,0.0,0.0,0.0,0.0,0.0,0.0,0.0,0.0,0.0,0.0,0.0,0.0,0.0,0.0,0.0,0.0,0.0,0.0,0.0,0.0,0.0,0.0,0.0,0.0,0.0,0.0,0.0,0.0,0.0,0.0,0.0,0.0,0.0,0.0,0.0,0.0,0.0,0.0,0.0,0.0,0.0,0.0,0.0,0.0,0.0,0.0,0.0,0.0,0.0,0.0,0.0,0.0,0.0,0.0,0.0,0.0,0.0,0.0,0.0,0.0,0.0,0.0,0.0,0.0,0.0,0.0,0.0,0.0,0.0,0.0,0.0,0.0,0.0,0.0,0.0,0.0,0.0,0.0,0.0,0.0,0.0,0.0,0.0,0.0,0.0,0.0,0.0,0.0,0.0,0.0,0.0,0.0,0.0,0.0,0.0,0.0,0.0,0.0,0.0,0.0,0.0,0.0,0.0,0.0,0.0,0.0,0.0,0.0,0.0,0.0,0.0,0.0,0.0,0.0,0.0,0.0,0.0,0.0,0.0,0.0,0.0,0.0,0.0,0.0,0.0,0.0,0.0,0.0,0.0,0.0,0.0,0.0,0.0,0.0,0.0,0.0,0.0,0.0,0.0,0.0,0.0,0.0,0.0,0.0,0.0,0.0,0.0,0.0,0.0,0.0,0.0,0.0,0.0,0.0,0.0,0.0,0.0,0.0,0.0,0.0,0.0,0.0,0.0,0.0,0.0,0.0,0.0,0.0,0.0,0.0,0.0,0.0,0.0,0.0,0.0,0.0,0.0,0.0,0.0,0.0,0.0,0.0,0.0,0.0,0.0,0.0,0.0,0.0,0.0,0.0,0.0,0.0,0.0,0.0,0.0,0.0,0.0,0.0,0.0,0.0,0.0,0.0,0.0,0.0,0.0,0.0,0.0,0.0,0.0,0.0,0.0,0.0,0.0,0.0,0.0,0.0,0.0,0.0,0.0,0.0,0.0,0.0,0.0,0.0,0.0,0.0,0.0,0.0,0.0,0.0,0.0,0.0,0.0,0.0,0.0,0.0,0.0,0.0,0.0,0.0,0.0,0.0,0.0,0.0,0.0,0.0,0.0,0.0,0.0,0.0,0.0,0.0,0.0,0.0,0.0,0.0,0.0,0.0,0.0,0.0,0.0,0.0,0.0,0.0,0.0,0.0,0.0,0.0,0.0,0.0,0.0,0.0,0.0,0.0,0.0,0.0,0.0,0.0,0.0,0.0,0.0,0.0,0.0,0.0,0.0,0.0,0.0,0.0,0.0,0.0,0.0,0.0,0.0,0.0,0.0,0.0,0.0,0.0,0.0,0.0,0.0,0.0,0.0,0.0,0.0,0.0,0.0,0.0,0.0,0.0,0.0,0.0,0.0,0.0,0.0,0.0,0.0,0.0,0.0,0.0,0.0,0.0,0.0,0.0,0.0,0.0,0.0,0.0,0.0,0.0,0.0,0.0,0.0,0.0,0.0,0.0,0.0,0.0,0.0,0.0,0.0,0.0,0.0,0.0,0.0,0.0,0.0,0.0,0.0,0.0,0.0,0.0,0.0,0.0,0.0,0.0,0.0,0.0,0.0,0.0,0.0,0.0,0.0,0.0,0.0,0.0,0.0,0.0,0.0,0.0,0.0,0.0,0.0,0.0,0.0,0.0,0.0,0.0,0.0,0.0,0.0,0.0,0.0,0.0,0.0,0.0,0.0,0.0,0.0,0.0,0.0,0.0,0.0,0.0,0.0,0.0,0.0,0.0,0.0,0.0,0.0,0.0,0.0,0.0,0.0,0.0,0.0,0.0,0.0,0.0,0.0,0.0,0.0,0.0,0.0,0.0,0.0,0.0,0.0,0.0,0.0,0.0,0.0,0.0,0.0,0.0,0.0,0.0,0.0,0.0,0.0,0.0,0.0,0.0,0.0,0.0,0.0,0.0,0.0,0.0,0.0,0.0,0.0,0.0,0.0,0.0,0.0,0.0,0.0,0.0,0.0,0.0,0.0,0.0,0.0,0.0,0.0,0.0,0.0,0.0,0.0,0.0,0.0,0.0,0.0,0.0,0.0,0.0,0.0,0.0,0.0,0.0,0.0,0.0,0.0,0.0,0.0,0.0,0.0,0.0,0.0,0.0,0.0,0.0,0.0,0.0,0.0,0.0,0.0,0.0,0.0,0.0,0.0,0.0,0.0,0.0,0.0,0.0,0.0,0.0,0.0,0.0,0.0,0.0,0.0,0.0,0.0,0.0,0.0,0.0,0.0,0.0,0.0,0.0,0.0,0.0,0.0,0.0,0.0,0.0,0.0,0.0,0.0,0.0,0.0,0.0,0.0,0.0,0.0,0.0,0.0,0.0,0.0,0.0,0.0,0.0,0.0,0.0,0.0,0.0,0.0,0.0,0.0,0.0,0.0,0.0,0.0,0.0,0.0,0.0,0.0,0.0,0.0,0.0,0.0,0.0,0.0,0.0,0.0,0.0,0.0,0.0,0.0,0.0,0.0,0.0,0.0,0.0,0.0,0.0,0.0,0.0,0.0,0.0,0.0,0.0,0.0,0.0,0.0,0.0,0.0,0.0,0.0,0.0,0.0,0.0,0.0,0.0,0.0,0.0,0.0,0.0,0.0,0.0,0.0,0.0,0.0,0.0,0.0,0.0,0.0,0.0,0.0,0.0,0.0,0.0,0.0,0.0,0.0,0.0,0.0,0.0,0.0,0.0,0.0,0.0,0.0,0.0,0.0,0.0,0.0,0.0,0.0,0.0,0.0,0.0,0.0,0.0,0.0,0.0,0.0,0.0,0.0,0.0,0.0,0.0,0.0,0.0,0.0,0.0,0.0,0.0,0.0,0.0,0.0,0.0,0.0,0.0,0.0,0.0,0.0,0.0,0.0,0.0,0.0,0.0,0.0,0.0,0.0,0.0,0.0,0.0,0.0,0.0,0.0,0.0,0.0,0.0,0.0,0.0,0.0,0.0,0.0,0.0,0.0,0.0,0.0,0.0,0.0,0.0,0.0,0.0,0.0,0.0,0.0,0.0,0.0,0.0,0.0,0.0,0.0,0.0,0.0,0.0,0.0,0.0,0.0,0.0,0.0,0.0,0.0,0.0,0.0,0.0,0.0,0.0,0.0,0.0,0.0,0.0,0.0,0.0,0.0,0.0,0.0,0.0,0.0,0.0,0.0,0.0,0.0,0.0,0.0,0.0,0.0,0.0,0.0,0.0,0.0,0.0,0.0,0.0,0.0,0.0,0.0,0.0,0.0,0.0,0.0,0.0,0.0,0.0,0.0,0.0,0.0,0.0,0.0,0.0,0.0,0.0,0.0,0.0,0.0,0.0,0.0,0.0,0.0,0.0,0.0,0.0,0.0,0.0,0.0,0.0,0.0,0.0,0.0,0.0,0.0,0.0,0.0,0.0,0.0,0.0,0.0,0.0,0.0,0.0,0.0,0.0,0.0,0.0,0.0,0.0,0.0,0.0,0.0,0.0,0.0,0.0,0.0,0.0,0.0,0.0,0.0,0.0,0.0,0.0,0.0,0.0,0.0,0.0,0.0,0.0,0.0,0.0,0.0,0.0,0.0,0.0,0.0,0.0,0.0,0.0,0.0,0.0,0.0,0.0,0.0,0.0,0.0,0.0,0.0,0.0,0.0,0.0,0.0,0.0,0.0,0.0,0.0,0.0,0.0,0.0,0.0,0.0,0.0,0.0,0.0,0.0,0.0,0.0,0.0,0.0,0.0,0.0,0.0,0.0,0.0,0.0,0.0,0.0,0.0,0.0,0.0,0.0,0.0,0.0,0.0,0.0,0.0,0.0,0.0,0.0,0.0,0.0,0.0,0.0,0.0,0.0,0.0,0.0,0.0,0.0,0.0,0.0,0.0,0.0,0.0,0.0,0.0,0.0,0.0,0.0,0.0,0.0,0.0,0.0,0.0,0.0,0.0,0.0,0.0,0.0,0.0,0.0,0.0,0.0,0.0,0.0,0.0,0.0,0.0,0.0,0.0,0.0,0.0,0.0,0.0,0.0,0.0,0.0,0.0,0.0,0.0,0.0,0.0,0.0,0.0,0.0,0.0,0.0,0.0,0.0,0.0,0.0,0.0,0.0,0.0,0.0,0.0,0.0,0.0,0.0,0.0,0.0,0.0,0.0,0.0,0.0,0.0,0.0,0.0,0.0,0.0,0.0,0.0,0.0,0.0,0.0,0.0,0.0,0.0,0.0,0.0,0.0,0.0,0.0,0.0,0.0,0.0,0.0,0.0,0.0,0.0,0.0,0.0,0.0,0.0,0.0,0.0,0.0,0.0,0.0,0.0,0.0,0.0,0.0,0.0,0.0,0.0,0.0,0.0,0.0,0.0,0.0,0.0,0.0,0.0,0.0,0.0,0.0,0.0,0.0,0.0,0.0,0.0,0.0,0.0,0.0,0.0,0.0,0.0,0.0,0.0,0.0,0.0,0.0,0.0,0.0,0.0,0.0,0.0,0.0,0.0,0.0,0.0,0.0,0.0,0.0,0.0,0.0,0.0,0.0,0.0,0.0,0.0,0.0,0.0,0.0,0.0,0.0,0.0,0.0,0.0,0.0,0.0,0.0,0.0,0.0,0.0,0.0,0.0,0.0,0.0,0.0,0.0,0.0,0.0,0.0,0.0,0.0,0.0,0.0,0.0,0.0,0.0,0.0,0.0,0.0,0.0,0.0,0.0,0.0,0.0,0.0,0.0,0.0,0.0,0.0,0.0,0.0,0.0,0.0,0.0,0.0,0.0,0.0,0.0,0.0,0.0,0.0,0.0,0.0,0.0,0.0,0.0,0.0,0.0,0.0,0.0,0.0,0.0,0.0,0.0,0.0,0.0,0.0,0.0,0.0,0.0,0.0,0.0,0.0,0.0,0.0,0.0,0.0,0.0,0.0,0.0,0.0,0.0,0.0,0.0,0.0,0.0,0.0,0.0,0.0,0.0,0.0,0.0,0.0,0.0,0.0,0.0,0.0,0.0,0.0,0.0,0.0,0.0,0.0,0.0,0.0,0.0,0.0,0.0,0.0,0.0,0.0,0.0,0.0,0.0,0.0,0.0,0.0,0.0,0.0,0.0,0.0,0.0,0.0,0.0,0.0,0.0,0.0,0.0,0.0,0.0,0.0,0.0,0.0,0.0,0.0,0.0,0.0,0.0,0.0,0.0,0.0,0.0,0.0,0.0,0.0,0.0,0.0,0.0,0.0,0.0,0.0,0.0,0.0,0.0,0.0,0.0,0.0,0.0,0.0,0.0,0.0,0.0,0.0,0.0,0.0,0.0,0.0,0.0,0.0,0.0,0.0,0.0,0.0,0.0,0.0,0.0,0.0,0.0,0.0,0.0,0.0,0.0,0.0,0.0,0.0,0.0,0.0,0.0,0.0,0.0,0.0,0.0,0.0,0.0,0.0,0.0,0.0,0.0,0.0,0.0,0.0,0.0,0.0,0.0,0.0,0.0,0.0,0.0,0.0,0.0,0.0,0.0,0.0,0.0,0.0,0.0,0.0,0.0,0.0,0.0,0.0,0.0,0.0,0.0,0.0,0.0,0.0,0.0,0.0,0.0,0.0,0.0,0.0,0.0,0.0,0.0,0.0,0.0,0.0,0.0,0.0,0.0,0.0,0.0,0.0,0.0,0.0,0.0,0.0,0.0,0.0,0.0,0.0,0.0,0.0,0.0,0.0,0.0,0.0,0.0,0.0,0.0,0.0,0.0,0.0,0.0,0.0,0.0,0.0,0.0,0.0,0.0,0.0,0.0,0.0,0.0,0.0,0.0,0.0,0.0,0.0,0.0,0.0,0.0,0.0,0.0,0.0,0.0,0.0,0.0,0.0,0.0,0.0,0.0,0.0,0.0,0.0,0.0,0.0,0.0,0.0,0.0,0.0,0.0,0.0,0.0,0.0,0.0,0.0,0.0,0.0,0.0,0.0,0.0,0.0,0.0,0.0,0.0788,0.0645,0.0,0.0,0.0,0.0,0.0,0.0,0.0,0.0,0.0,0.0,0.0,0.0,0.0,0.0,0.0,0.0,0.0,0.0,0.0,0.0,0.0,0.0,0.0,0.0,0.0,0.0,0.0,0.0,0.0,0.0,0.0,0.0,0.0,0.0,-1.5473,-1.5663,-1.6065,-1.6573,-1.9012,-2.0757,-2.1788,-2.1755,-2.3173,-2.5758,0.0,0.0,0.0,0.0,0.0,0.0,0.0,0.0,0.0,0.0,0.0,0.0,0.0,0.0,0.0,0.0,0.0,0.0,0.0,0.0,0.0,0.0,0.0,0.0,0.0,0.0,0.0,0.0,0.0,0.0,0.0,0.0,0.0,0.0,0.0,0.0,0.0,0.0,0.0,0.0,0.0,0.0,0.0,0.0,0.0,0.0,0.0,0.0,0.0,0.0,0.0,0.0,0.0,0.0,0.0,0.0,0.0,0.0,0.0,0.0,0.0,0.0,0.0,0.0,0.0,0.0,0.0,0.0,0.0,0.0,0.1621,0.1386,0.0,0.0,0.0,0.0,0.0,0.0,0.0,0.0,0.0,0.0,0.0,0.0,0.0,0.0,0.0,0.0,0.0,0.0,0.0,0.0,0.0,0.0,0.0,-1.4697,-1.4776,-1.4877,-1.5342,-1.5612,-1.5508,-1.5964,-1.624,-1.6262,-1.6449,-1.6596,-1.6638,-1.7281,-1.7546,-1.7497,-1.9174,-2.0351,-2.1036,-2.0558,-2.1342,0.0,0.0,0.0,0.0,0.0,0.0,0.0,0.0,0.0,0.0,0.0,0.0,0.0,0.0,0.0,0.0,0.0,0.0,0.0,0.0,0.0,0.0,0.0,0.0,0.0,0.0,0.0,0.0,0.0,0.0,0.0,0.0,0.0,0.0,0.0,0.0,0.0,0.0,0.0,0.0,0.0,0.0,0.0,0.0,0.0,0.0,0.0,0.0,0.0,0.0,0.0,0.0,0.0,0.0,0.0,0.0,0.0,0.0,0.0,0.0,0.0,0.0,0.0,0.0,0.0,0.0762,0.1387,0.1886,0.2043,0.2199,0.2348,0.2257,0.207,0.1847,0.1773,0.0,0.0,0.0,0.0,0.0,0.0,0.0,0.0,0.0,0.0,0.0,0.0,0.0,0.0,0.0,0.0,0.0,0.0,0.0,0.0,0.0,-1.505,-1.5439,-1.6045,-1.6174,-1.6445,-1.6953,-1.7361,-1.7604,-1.7729,-1.8113,-1.8261,-1.8046,-1.7961,-1.8176,-1.8684,-1.8711,-1.8506,-1.8054,-1.7622,-1.7577,-1.785,0.0,0.0,0.0,0.0,0.0,0.0,0.0,0.0,0.0,0.0,0.0,0.0,0.0,0.0,0.0,0.0,0.0,0.0,0.0,0.0,0.0,0.0,0.0,0.0,0.0,0.0,0.0,0.0,0.0,0.0,0.0,0.0,0.0,0.0,0.0,0.0,0.0,0.0,0.0,0.0,0.0,0.0,0.0,0.0,-0.9466,-0.9247,0.0,0.0,0.0,0.0,0.0,0.0,0.0,0.0,0.0,0.0,0.0,0.0,0.0,-0.1246,-0.0452,0.0301,0.0687,0.0782,0.1564,0.2115,0.2433,0.2433,0.2669,0.2982,0.2965,0.0,0.2175,0.2097,0.0,0.0,0.0,0.0,0.0,0.0,0.0,0.0,0.0,0.0,0.0,0.0,0.0,0.0,0.0,0.0,0.0,0.0,0.0,0.0,0.0,-1.621,-1.6809,-1.7295,-1.7979,-1.8516,-1.8853,-1.9279,-1.9559,-1.9793,-1.921,-1.8847,-1.8809,-1.8178,-1.7599,-1.7157,-1.6379,-1.5621,-1.4859,-1.4513,-1.4436,-1.4542,-1.5898,-1.7413,-1.8958,-1.9304,0.0,0.0,0.0,0.0,0.0,0.0,0.0,0.0,0.0,0.0,0.0,0.0,0.0,0.0,0.0,0.0,0.0,0.0,0.0,0.0,0.0,0.0,0.0,0.0,0.0,0.0,0.0,0.0,0.0,0.0,0.0,0.0,0.0,0.0,0.0,0.0,0.0,0.0,0.0,-0.9486,-0.879,-0.8493,-0.8423,-0.8493,0.0,0.0,0.0,0.0,0.0,0.0,0.0,0.0,0.0,-0.2677,-0.1562,-0.0527,0.0386,0.1005,0.1399,0.1493,0.2042,0.2356,0.2511,0.2746,0.2904,0.3062,0.3062,0.2982,0.2668,0.2668,0.2591,0.2356,0.0,0.0,0.0,0.0,0.1257,0.11,0.0,0.0,0.0,0.0,0.0,0.0,0.0,0.0,0.0,0.0,0.0,0.0,-1.692,-1.765,-1.8352,-1.9022,-1.9997,-2.0708,-2.1014,-2.1389,-2.1431,-2.1057,-1.9935,-1.902,-1.8335,-1.7086,-1.5823,-1.4603,-1.3383,-1.2458,-1.1742,-1.1436,-1.1453,-1.1608,-1.173,-1.344,-1.6318,-1.6674,-1.7016,0.0,0.0,0.0,0.0,0.0,0.0,0.0,0.0,0.0,0.0,0.0,0.0,0.0,0.0,0.0,0.0,0.0,0.0,0.0,0.0,0.0,0.0,0.0,0.0,0.0,0.0,0.0,0.0,0.0,0.0,0.0,0.0,0.0,0.0,0.0,0.0,0.0,0.0,-0.8888,-0.8313,-0.787,-0.7726,-0.7721,0.0,0.0,0.0,0.0,0.0,0.0,-0.4588,-0.3854,-0.2918,-0.1602,-0.0764,0.0154,0.11,0.1571,0.1885,0.2043,0.2433,0.2668,0.2744,0.3059,0.3217,0.3295,0.3295,0.3295,0.3297,0.3141,0.2984,0.2826,0.2746,0.2511,0.2353,0.2042,0.1963,0.1963,0.0,0.0,0.0,0.0,0.0,0.0,0.0,0.0,0.0,0.0,0.0,-1.7693,-1.8681,-1.9202,-2.011,-2.1582,-2.2079,-2.2626,-2.3477,-2.3644,-2.2788,-2.0635,-2.0349,-1.8908,-1.6021,-1.4028,-1.2503,-1.135,-1.0212,-0.9385,-0.8896,-0.8576,-0.8398,-0.8431,-0.874,-1.0698,-1.3797,-1.3915,-1.4218,-1.4529,0.0,0.0,0.0,0.0,0.0,0.0,0.0,0.0,0.0,0.0,0.0,0.0,0.0,0.0,0.0,0.0,0.0,0.0,0.0,0.0,0.0,0.0,0.0,0.0,0.0,0.0,0.0,0.0,0.0,0.0,0.0,0.0,0.0,0.0,0.0,0.0,0.0,0.0,0.0,-0.7532,-0.7145,0.0,0.0,0.0,0.0,-0.5992,-0.5375,-0.4678,-0.3904,-0.3283,-0.2426,-0.1333,0.0,0.102,0.165,0.2041,0.2275,0.251,0.2668,0.2981,0.3448,0.3448,0.3606,0.3765,0.3765,0.3765,0.3763,0.3295,0.3062,0.3062,0.3062,0.2982,0.2747,0.2746,0.2589,0.2511,0.0,0.0,0.0,0.0,0.0,0.0,0.0,0.0,-1.8296,-1.8495,-1.8783,-1.9439,-2.0596,-2.1381,-2.2337,-2.3576,-2.4365,-2.4066,-2.2335,-2.226,-2.0964,-1.7986,-1.678,-1.4905,-1.2178,-1.0696,-0.9556,-0.8725,-0.7797,-0.7011,-0.6386,-0.6364,-0.6168,-0.5873,-0.6295,-0.7086,-0.8292,-1.0332,-1.133,-1.1729,-1.2631,-1.3554,0.0,0.0,0.0,0.0,0.0,0.0,0.0,0.0,0.0,0.0,0.0,0.0,0.0,0.0,0.0,0.0,0.0,0.0,0.0,0.0,0.0,0.0,0.0,0.0,0.0,0.0,0.0,0.0,0.0,0.0,0.0,0.0,0.0,0.0,0.0,0.0,0.0,-0.6395,-0.6163,0.0,-0.5699,-0.5619,-0.5389,-0.4927,-0.4304,-0.3839,-0.3532,-0.2431,-0.1412,-0.0471,0.0393,0.1266,0.2088,0.2167,0.2427,0.2792,0.3089,0.3317,0.3637,0.3799,0.3843,0.3921,0.3921,0.3921,0.3921,0.3686,0.3608,0.353,0.3376,0.3295,0.3214,0.3061,0.2982,0.2904,0.0,0.0,0.0,0.0,0.0,0.0,0.0,0.0,-2.0023,-2.0262,-2.0495,-2.1222,-2.2649,-2.3418,-2.3823,-2.3774,-2.4335,-2.3253,-1.9802,-1.9536,-1.8123,-1.4994,-1.2724,-1.0617,-0.8742,-0.7697,-0.6889,-0.6296,-0.5712,-0.5041,-0.4174,-0.4051,-0.3798,-0.3576,-0.3774,-0.3905,-0.403,-0.6113,-0.7749,-0.898,-0.9946,-1.0936,-1.1916,0.0,0.0,0.0,0.0,0.0,0.0,0.0,0.0,0.0,0.0,0.0,0.0,0.0,0.0,0.0,0.0,0.0,0.0,0.0,0.0,0.0,0.0,0.0,0.0,0.0,0.0,0.0,0.0,0.0,0.0,0.0,0.0,0.0,0.0,-0.7165,-0.6395,-0.5392,-0.5237,-0.5002,-0.4616,-0.4457,-0.4224,-0.3992,-0.3446,-0.291,-0.2619,-0.1429,-0.0398,0.0321,0.1126,0.1782,0.2301,0.2467,0.2735,0.3112,0.3397,0.363,0.3812,0.3914,0.4036,0.4017,0.4017,0.4017,0.4017,0.3937,0.3937,0.3848,0.3634,0.3608,0.3606,0.3452,0.3454,0.3452,0.0,0.0,0.0,0.0,0.0,0.0,0.0,-2.1707,-2.1761,-2.2027,-2.2065,-2.273,-2.455,-2.4846,-2.4063,-2.1869,-2.1833,-2.0174,-1.6071,-1.5695,-1.4425,-1.1706,-0.8512,-0.6506,-0.5862,-0.5141,-0.4527,-0.3983,-0.3954,-0.3331,-0.2336,-0.1616,-0.1346,-0.142,-0.1174,-0.1237,-0.138,-0.1526,-0.3325,-0.6115,-0.6966,-0.8212,-0.9697,0.0,0.0,0.0,0.0,0.0,0.0,0.0,0.0,0.0,0.0,0.0,0.0,0.0,0.0,0.0,0.0,0.0,0.0,0.0,0.0,0.0,0.0,0.0,0.0,0.0,0.0,0.0,0.0,0.0,0.0,0.0,0.0,0.0,-0.7161,-0.6398,-0.5553,-0.4776,-0.4462,-0.4229,-0.3763,-0.3368,-0.3054,-0.3057,-0.2669,-0.2063,-0.1217,-0.0244,0.0493,0.1092,0.2186,0.2692,0.2441,0.2779,0.3117,0.3449,0.3571,0.3824,0.4046,0.4014,0.401,0.4044,0.4044,0.4044,0.4044,0.404,0.4038,0.402,0.384,0.3847,0.3851,0.4088,0.4169,0.4164,0.0,0.0,0.0,0.0,0.0,0.0,0.0,-2.318,-2.3262,-2.344,-2.0942,-1.9653,-2.1,-1.8516,-1.68,-1.689,-1.8966,-1.7693,-1.1675,-1.1802,-1.0442,-0.6763,-0.6063,0.0,-0.4763,-0.4328,-0.3452,-0.2156,-0.1761,-0.133,-0.0809,-0.0228,0.0232,0.0541,0.0538,0.0689,0.0919,0.0536,-0.0153,-0.1292,-0.395,-0.5565,-0.6485,0.0,0.0,0.0,0.0,0.0,0.0,0.0,0.0,0.0,0.0,0.0,0.0,0.0,0.0,0.0,0.0,0.0,0.0,0.0,0.0,0.0,0.0,0.0,0.0,0.0,0.0,0.0,0.0,0.0,0.0,0.0,-0.6542,-0.5922,-0.5844,-0.5392,-0.4698,-0.3917,-0.3761,-0.3526,-0.2902,-0.2902,-0.2764,-0.241,-0.1691,-0.0976,-0.0249,0.05,0.1337,0.227,0.2439,0.2543,0.2672,0.2927,0.321,0.3524,0.3776,0.3951,0.4228,0.4242,0.424,0.4226,0.4226,0.4226,0.422,0.4132,0.4267,0.4342,0.4276,0.4247,0.4289,0.4665,0.4984,0.5096,0.0,0.0,0.0,0.0,0.0,0.0,0.0,-1.6747,-1.6948,-1.7265,-1.5383,-1.4538,-1.5858,-1.3903,-1.2255,-1.1677,-1.3158,-1.1719,-0.6006,-0.5931,0.0,0.0,0.0,-0.2863,-0.2588,-0.225,-0.1553,-0.0517,-0.0076,0.0382,0.0838,0.1552,0.2113,0.2344,0.25,0.2734,0.3047,0.281,0.2577,0.2261,-0.0,-0.2051,-0.3806,-0.5084,-0.6336,-0.7559,-0.8477,-0.9311,-1.0066,-1.0662,0.0,0.0,0.0,0.0,0.0,0.0,0.0,0.0,0.0,0.0,0.0,0.0,0.0,0.0,0.0,0.0,0.0,0.0,0.0,0.0,0.0,0.0,0.0,0.0,-0.5386,-0.4686,-0.43,-0.4148,-0.3761,-0.3136,-0.2978,-0.2755,-0.2386,-0.2151,-0.1851,-0.1398,-0.066,-0.0,0.0511,0.1363,0.214,0.2681,0.2594,0.2708,0.2856,0.3183,0.3486,0.3682,0.4049,0.4233,0.4414,0.4438,0.4434,0.4414,0.4414,0.4483,0.4533,0.4461,0.4583,0.4877,0.0,0.0,0.0,0.0,0.5739,0.6019,0.0,0.0,0.0,0.0,0.0,0.0,0.0,-0.6799,-0.717,-0.7712,-0.7636,-0.813,-0.9635,-0.95,-0.8282,-0.5825,-0.5418,-0.3723,0.0131,0.0599,0.0,0.0403,0.0484,0.0422,0.0282,0.0593,0.0835,0.1062,0.1473,0.1959,0.243,0.3526,0.3988,0.4053,0.453,0.4768,0.4921,0.4996,0.4924,0.4774,0.4062,0.1792,-0.1325,-0.2336,-0.3498,-0.473,-0.5733,-0.6732,-0.7651,-0.8344,0.0,0.0,0.0,0.0,0.0,0.0,0.0,0.0,0.0,0.0,0.0,0.0,0.0,0.0,0.0,0.0,0.0,0.0,0.0,0.0,0.0,0.0,0.0,0.0,-0.4455,-0.368,-0.2902,-0.2829,-0.2753,-0.2362,-0.2205,-0.1987,-0.1871,-0.1224,-0.0659,-0.0253,0.0337,0.0852,0.1306,0.2273,0.0,0.0,0.0,0.3009,0.3061,0.3554,0.3772,0.3815,0.4383,0.4573,0.4575,0.4622,0.4618,0.4666,0.4666,0.4808,0.4915,0.5009,0.5228,0.5565,0.5074,0.5071,0.5404,0.6077,0.6499,0.6906,0.0,0.0,0.0,0.0,0.0,0.0,0.0,-0.542,-0.5835,-0.6337,-0.3674,-0.2034,-0.2917,-0.0051,0.1996,0.2271,0.2044,0.2663,0.4452,0.0,0.31,0.283,0.2912,0.2987,0.3051,0.3067,0.3191,0.3191,0.3679,0.3919,0.3756,0.4768,0.5306,0.552,0.6307,0.6626,0.6472,0.685,0.6777,0.6398,0.6079,0.4051,0.1249,0.0234,-0.0858,-0.2104,-0.3115,-0.4126,-0.4977,-0.5906,-0.6904,-0.7897,-0.8652,0.0,0.0,0.0,0.0,0.0,0.0,0.0,0.0,0.0,0.0,0.0,0.0,0.0,0.0,0.0,0.0,0.0,0.0,0.0,0.0,-0.3912,-0.3606,-0.3217,-0.2668,-0.1835,-0.1292,-0.1452,-0.121,-0.0977,-0.0583,-0.0501,-0.0168,0.0689,0.1295,0.1918,0.2496,0.263,0.2749,0.2941,0.3177,0.3399,0.3411,0.3868,0.4063,0.4095,0.4476,0.0,0.4573,0.4864,0.4957,0.4946,0.5419,0.5596,0.5672,0.6048,0.6689,0.7191,0.637,0.644,0.7048,0.7225,0.7403,0.765,0.0,0.0,0.0,0.0,0.0,0.0,0.0,0.4877,0.4357,0.3639,0.5275,0.6082,0.5102,0.6755,0.7658,0.7108,0.6561,0.6469,0.0,0.6044,0.5352,0.4959,0.4748,0.4595,0.4509,0.4528,0.4613,0.4693,0.4932,0.524,0.5541,0.6096,0.6703,0.7141,0.7693,0.808,0.8232,0.838,0.8309,0.8084,0.7774,0.6454,0.459,0.2806,0.1482,0.0391,-0.0702,-0.1796,-0.2812,-0.3744,-0.4595,-0.5366,-0.6213,-0.7053,-0.7888,0.0,0.0,0.0,0.0,0.0,0.0,0.0,0.0,0.0,0.0,0.0,0.0,0.0,0.0,-0.6002,-0.5151,0.0,-0.3834,-0.3214,-0.2666,-0.2126,-0.1515,-0.0727,-0.0244,-0.0487,-0.0328,-0.0,0.0341,0.0513,0.0862,0.1675,0.2139,0.2613,0.2914,0.316,0.329,0.3474,0.3603,0.373,0.3657,0.4041,0.4355,0.4506,0.4801,0.4999,0.5291,0.5484,0.5674,0.5963,0.6158,0.6412,0.664,0.7146,0.759,0.8041,0.7696,0.7768,0.796,0.7875,0.8025,0.8201,0.0,0.0,0.0,0.0,0.0,0.0,0.0,1.5389,1.4755,1.3887,1.3721,1.3234,1.2052,1.1794,1.1265,1.0319,0.9668,0.0,0.0,0.812,0.7497,0.6951,0.6464,0.6079,0.5755,0.579,0.5844,0.6083,0.6083,0.6468,0.7242,0.75,0.8034,0.8689,0.8998,0.9377,0.975,0.975,0.9674,0.9523,0.9231,0.8613,0.7685,0.544,0.382,0.2579,0.1562,0.0391,-0.0783,-0.1642,-0.2266,-0.2888,-0.3748,-0.475,-0.5594,-0.6063,-0.6754,0.0,0.0,0.0,0.0,0.0,0.0,0.0,0.0,-0.7073,-0.6468,-0.5693,-0.5076,-0.4616,-0.3992,-0.3288,-0.2663,-0.2511,-0.1653,-0.0795,-0.0243,0.0492,0.0906,0.074,0.0836,0.1024,0.1308,0.1666,0.2038,0.2525,0.2943,0.3161,0.3163,0.37,0.3931,0.3931,0.4137,0.4166,0.4109,0.4501,0.4745,0.5035,0.5338,0.5739,0.6139,0.6239,0.6537,0.693,0.703,0.7365,0.7841,0.8112,0.8346,0.8623,0.8773,0.8773,0.8635,0.8454,0.8484,0.867,0.0,0.0,0.0,0.0,0.0,0.0,0.0,0.0,1.6853,1.6208,1.6138,1.5825,1.5107,1.4844,1.4042,1.2469,0.0,0.0,1.0571,1.011,0.9514,0.8764,0.8344,0.7999,0.7677,0.758,0.7613,0.7851,0.7851,0.8075,0.8528,0.9032,0.9499,0.9765,1.0513,1.0663,1.0438,1.1111,1.1105,1.0663,1.0588,1.0051,0.9291,0.8219,0.6535,0.4533,0.3437,0.25,0.1641,0.0625,-0.0234,-0.1015,-0.1719,-0.25,-0.3281,-0.3898,-0.452,-0.5226,-0.5838,-0.6146,-0.6227,-0.6307,-0.615,-0.5838,0.0,-0.5154,-0.4766,-0.4151,-0.3997,-0.3763,-0.3139,-0.2194,-0.1411,-0.1099,-0.0479,0.0162,0.0732,0.1854,0.2677,0.2935,0.2768,0.262,0.2674,0.2815,0.2941,0.3226,0.3382,0.3515,0.3801,0.4064,0.43,0.43,0.4767,0.5012,0.5018,0.5518,0.5824,0.5842,0.6334,0.6631,0.6731,0.7232,0.7431,0.7531,0.8031,0.8524,0.9004,0.9087,0.9174,0.9453,0.9388,0.9311,0.9275,0.91,0.9035,0.9039,0.0,0.0,0.0,0.0,0.0,0.0,0.0,0.0,0.0,1.8317,1.8244,1.8081,1.7615,1.6839,1.5867,1.4711,0.0,0.0,1.2549,1.1811,1.1115,1.0483,0.9971,0.9491,0.905,0.8924,0.8963,0.9109,0.9173,0.9606,1.0271,1.0506,1.0958,1.1484,1.1594,1.1822,1.2077,1.215,1.215,1.2003,1.1632,1.1105,1.0351,0.9604,0.8461,0.7076,0.5303,0.4219,0.0,0.0,0.1721,0.1096,0.0313,-0.0469,-0.133,-0.2267,-0.2973,-0.3521,-0.3906,-0.4528,-0.5076,-0.5157,-0.4688,-0.4219,-0.4068,-0.3917,-0.3761,-0.3137,-0.2668,-0.2196,-0.1569,-0.0863,-0.0235,0.0079,0.064,0.1305,0.1987,0.2728,0.3317,0.3622,0.3805,0.3837,0.3372,0.3405,0.3531,0.3854,0.4118,0.4355,0.4837,0.5125,0.5376,0.5473,0.572,0.5942,0.6134,0.6334,0.6631,0.6927,0.7129,0.7431,0.773,0.7932,0.823,0.8531,0.8931,0.9229,0.943,0.943,0.9529,0.962,0.9543,0.9514,0.9482,0.9198,0.9096,0.9096,0.0,0.0,0.0,0.0,0.0,0.0,0.0,0.0,0.0,0.0,1.9866,1.9741,1.9526,1.8465,1.7457,0.0,0.0,0.0,0.0,1.3408,1.2626,1.1888,1.1432,0.0,1.0369,1.0226,1.0253,1.0319,1.0521,1.0941,1.1665,1.1806,1.221,1.2813,1.2663,1.2976,1.3411,1.3185,1.3112,1.3112,1.2526,1.2003,1.1335,1.0519,0.9841,0.8998,0.6927,0.578,0.0,0.0,0.3522,0.2899,0.2116,0.1254,0.0313,-0.0548,-0.1254,-0.1882,-0.2115,-0.2738,-0.3287,-0.3365,-0.2974,-0.2506,-0.2507,-0.251,-0.2356,-0.1961,-0.1413,-0.0786,-0.0236,0.0314,0.0787,0.1188,0.1616,0.2233,0.2876,0.3457,0.3963,0.4198,0.4768,0.5008,0.4555,0.4287,0.4325,0.4693,0.4979,0.5324,0.5814,0.6192,0.6439,0.6736,0.6842,0.6942,0.7132,0.7229,0.7428,0.7819,0.7928,0.8233,0.8634,0.873,0.8931,0.9331,0.9529,0.9628,0.9628,0.9628,0.9628,0.9628,0.9628,0.9628,0.9596,0.934,0.9242,0.9242,0.0,0.0,0.0,0.0,0.0,0.0,0.0,0.0,0.0,0.0,0.0,0.0,0.0,1.9825,1.8939,0.0,0.0,0.0,0.0,1.4796,1.4076,1.2826,1.2783,1.2451,1.1638,1.1727,1.1758,1.1765,1.1765,1.1992,1.2381,1.2913,1.3273,1.3462,1.3973,1.4204,1.4057,1.4281,1.4129,1.376,1.3339,1.282,1.215,1.1335,1.0594,0.969,0.8241,0.0,0.0,0.5854,0.5004,0.4229,0.3524,0.2665,0.0,0.1568,0.0784,-0.0157,-0.0313,-0.0392,-0.0392,-0.0392,-0.0392,-0.047,-0.0628,-0.055,-0.0393,-0.0393,-0.0157,0.0079,0.0314,0.11,0.1821,0.2185,0.2483,0.2879,0.3373,0.4152,0.4746,0.4921,0.5729,0.6308,0.6438,0.57,0.5463,0.5858,0.5874,0.6234,0.6725,0.7033,0.7235,0.7531,0.7836,0.7939,0.7939,0.8233,0.8333,0.8432,0.8935,0.9137,0.9137,0.943,0.9529,0.9628,0.9628,0.9628,0.9628,0.9628,0.9628,0.9628,0.9628,0.9628,0.9624,0.9616,0.9612,0.9612,0.0,0.0,0.0,0.0,0.0,0.0,0.0,0.0,0.0,0.0,0.0,0.0,0.0,0.0,0.0,0.0,0.0,0.0,0.0,1.5901,1.5089,1.4255,1.39,1.3428,1.2765,1.2562,1.2534,1.2626,1.2518,1.2823,1.3481,1.3577,1.3886,1.4423,1.4494,1.471,1.4991,1.4999,1.4848,1.4697,1.4129,1.3615,1.3025,1.2224,1.1558,1.0962,0.0,0.0,0.0,0.6707,0.6012,0.5318,0.4693,0.3837,0.3057,0.2353,0.1961,0.1568,0.1333,0.1646,0.1803,0.094,0.0862,0.0941,0.0707,0.055,0.0393,0.0393,0.0943,0.1421,0.1602,0.2009,0.2428,0.2814,0.33,0.3871,0.4331,0.5122,0.5725,0.5899,0.6731,0.7329,0.7473,0.6914,0.6637,0.6958,0.7009,0.7332,0.8127,0.8031,0.8233,0.8634,0.8531,0.863,0.8836,0.8928,0.9023,0.9229,0.9331,0.943,0.943,0.9529,0.9628,0.9628,0.9628,0.9628,0.9628,0.9628,0.9628,0.9628,0.9628,0.9628,0.9628,0.9628,0.9628,0.9628,0.0,0.0,0.0,0.0,0.0,0.0,0.0,0.0,0.0,0.0,0.0,0.0,0.0,0.0,0.0,0.0,0.0,0.0,0.0,0.0,1.6026,1.5371,1.4923,1.4401,1.3752,1.3502,1.3369,1.3364,1.3255,1.357,1.4168,1.4164,1.4497,1.5035,1.5163,1.536,1.5661,1.5649,1.5559,1.5488,1.4768,1.4266,1.3833,1.2966,1.2305,0.0,0.0,0.0,0.0,0.7783,0.7092,0.6402,0.578,0.4927,0.4073,0.337,0.3057,0.2901,0.2743,0.2979,0.2979,0.2193,0.2036,0.2116,0.1805,0.157,0.1413,0.1413,0.1897,0.2318,0.235,0.2617,0.3065,0.347,0.4038,0.4692,0.5336,0.6025,0.6631,0.7032,0.7898,0.8613,0.8777,0.8568,0.8314,0.8216,0.8124,0.8524,0.9221,0.9027,0.9126,0.9628,0.9422,0.9422,0.9529,0.9521,0.9521,0.9628,0.9727,0.9723,0.9723,0.9821,0.992,0.992,0.992,0.992,0.992,0.992,0.992,0.992,0.992,0.992,0.992,0.992,0.9966,0.9917,0.0,0.0,0.0,0.0,0.0,0.0,0.0,0.0,0.0,0.0,0.0,0.0,0.0,0.0,0.0,0.0,0.0,0.0,0.0,0.0,0.0,1.6187,1.5806,1.5294,1.4588,1.4529,1.435,1.407,1.407,1.4187,1.4533,1.471,1.4969,1.5366,1.6034,1.6255,1.6053,1.6312,1.6272,1.6061,1.5338,1.484,1.4569,1.363,0.0,0.0,0.0,0.0,0.0,0.9155,0.8246,0.7407,0.6791,0.5938,0.5004,0.4616,0.4229,0.3919,0.3841,0.3682,0.3446,0.321,0.3132,0.3054,0.2666,0.2588,0.2589,0.2592,0.2641,0.2685,0.269,0.3152,0.3643,0.4243,0.4688,0.5328,0.6322,0.6874,0.746,0.8163,0.9255,1.0006,1.0196,1.0586,1.0404,0.941,0.9316,0.9517,1.0019,1.0019,1.0117,1.0413,1.0413,1.0314,1.0019,1.0031,0.9937,0.9644,0.9945,1.0048,1.0048,1.0345,1.0444,1.0444,1.0444,1.0444,1.0439,1.0439,1.0439,1.0444,1.0444,1.0444,1.0444,1.0444,1.0562,1.0698,0.0,0.0,0.0,0.0,0.0,0.0,0.0,0.0,0.0,0.0,0.0,0.0,0.0,0.0,0.0,0.0,0.0,0.0,0.0,0.0,0.0,0.0,0.0,0.0,0.0,0.0,0.0,0.0,0.0,1.4643,1.5153,1.5027,1.5172,1.5613,1.6457,1.677,1.6769,1.732,1.7295,1.689,0.0,1.5833,1.5213,0.0,0.0,0.0,0.0,0.0,0.0,1.0062,0.8932,0.8016,0.7322,0.663,0.6093,0.5619,0.5309,0.5082,0.4929,0.4851,0.4696,0.4226,0.407,0.3992,0.3528,0.345,0.3467,0.3531,0.3561,0.3611,0.3733,0.4197,0.4674,0.5215,0.5846,0.6562,0.7312,0.7845,0.8432,0.9152,0.9985,1.0562,1.0948,1.1453,1.1585,1.1287,1.0502,1.0212,1.0605,1.0413,1.0408,1.0708,1.0507,1.0404,1.0297,1.0454,1.0536,1.0436,1.0676,1.0741,1.0741,1.0843,1.0843,1.0843,1.0843,1.0946,1.1257,1.1257,1.1355,1.1559,1.1559,1.1559,1.1559,1.1559,1.1597,1.1531,0.0,0.0,0.0,0.0,0.0,0.0,0.0,0.0,0.0,0.0,0.0,0.0,0.0,0.0,0.0,0.0,0.0,0.0,0.0,0.0,0.0,0.0,0.0,0.0,0.0,0.0,0.0,0.0,0.0,0.0,0.0,1.5645,1.5763,1.6207,1.7042,1.7358,1.7338,0.0,0.0,0.0,0.0,0.0,0.0,0.0,0.0,0.0,0.0,0.0,0.0,1.0887,0.9841,0.8784,0.8161,0.7629,0.7176,0.6934,0.663,0.6247,0.6093,0.586,0.5547,0.5082,0.4849,0.4696,0.4309,0.4265,0.4236,0.4212,0.4292,0.4384,0.4574,0.5065,0.5643,0.6239,0.6871,0.7492,0.838,0.8727,0.9261,1.009,1.0774,1.1248,1.1753,1.2002,1.2175,1.2175,1.1389,1.0998,1.1096,1.0904,1.0904,1.111,1.1002,1.0941,1.0924,1.1139,1.1141,1.1044,1.1353,1.1615,1.1615,1.1719,1.1714,1.1714,1.1714,1.1925,1.2235,1.2235,1.2339,1.2638,1.2638,1.2638,1.2643,1.2442,1.2501,1.2477,0.0,0.0,0.0,0.0,0.0,0.0,0.0,0.0,0.0,0.0,0.0,0.0,0.0,0.0,0.0,0.0,0.0,0.0,0.0,0.0,0.0,0.0,0.0,0.0,0.0,0.0,0.0,0.0,0.0,0.0,0.0,0.0,0.0,0.0,0.0,0.0,0.0,0.0,0.0,0.0,0.0,0.0,0.0,0.0,0.0,0.0,0.0,0.0,0.0,0.0,1.0738,0.9695,0.9231,0.8703,0.8255,0.8178,0.7795,0.7257,0.7019,0.663,0.6163,0.578,0.555,0.5321,0.4932,0.4867,0.4955,0.4804,0.489,0.5124,0.5394,0.5917,0.6523,0.7139,0.7672,0.8376,0.9257,0.9607,1.0107,1.0982,1.1492,1.1859,1.242,1.2467,1.2467,1.2467,1.2078,1.1688,1.1688,1.1389,1.1413,1.1649,1.1776,1.1681,1.1659,1.1966,1.1968,1.1761,1.2205,1.2531,1.2531,1.2842,1.2946,1.2946,1.2946,1.305,1.3257,1.336,1.3561,1.3751,1.3751,1.3859,1.3756,1.3561,1.3482,1.3652,0.0,0.0,0.0,0.0,0.0,0.0,0.0,0.0,0.0,0.0,2.2509,0.0,0.0,0.0,0.0,0.0,0.0,0.0,0.0,0.0,0.0,0.0,0.0,0.0,0.0,0.0,0.0,0.0,0.0,0.0,0.0,0.0,0.0,0.0,0.0,0.0,0.0,0.0,0.0,0.0,0.0,0.0,0.0,0.0,0.0,0.0,0.0,0.0,0.0,0.0,1.1484,1.0513,0.9916,0.9468,0.9018,0.8703,0.825,0.7872,0.7484,0.7096,0.671,0.6254,0.6022,0.5709,0.5479,0.5424,0.5465,0.5729,0.5701,0.5921,0.6383,0.6946,0.7404,0.7933,0.8727,0.9428,0.9864,1.0212,1.0808,1.1527,1.1676,1.1952,1.2619,1.2764,1.2759,1.2953,1.2759,1.237,1.198,1.1883,1.1968,1.2164,1.2434,1.2545,1.249,1.27,1.2916,1.3021,1.3326,1.3628,1.3832,1.3939,1.3939,1.3939,1.3939,1.4046,1.4371,1.459,1.4904,1.5211,1.5429,1.5429,1.5429,1.5217,1.514,1.5068,0.0,0.0,0.0,0.0,0.0,0.0,0.0,0.0,0.0,0.0,2.1996,2.1841,0.0,0.0,0.0,0.0,0.0,0.0,0.0,0.0,0.0,0.0,0.0,0.0,0.0,0.0,1.6524,1.6591,0.0,0.0,0.0,1.7445,1.7501,1.7745,0.0,0.0,0.0,0.0,0.0,0.0,0.0,0.0,0.0,0.0,0.0,0.0,0.0,0.0,0.0,0.0,1.2224,1.1484,1.0738,0.9992,0.9392,0.9241,0.878,0.8327,0.8021,0.771,0.7326,0.7026,0.6637,0.6423,0.6274,0.6244,0.6302,0.6528,0.65,0.6705,0.7221,0.758,0.8109,0.8815,0.9428,0.9951,1.0477,1.0738,1.1077,1.1807,1.1957,1.2138,1.2909,1.2958,1.3147,1.3528,1.3431,1.3141,1.2559,1.2718,1.2899,1.309,1.3482,1.372,1.3554,1.409,1.4316,1.4215,1.4657,1.4922,1.503,1.503,1.503,1.503,1.503,1.5244,1.5464,1.5779,1.6099,1.6424,1.663,1.6743,1.653,1.6205,1.5992,1.5885,0.0,0.0,0.0,0.0,0.0,0.0,0.0,2.2231,2.2044,2.1902,2.1568,2.1326,2.1291,2.118,2.0871,0.0,0.0,0.0,0.0,0.0,0.0,0.0,0.0,0.0,0.0,0.0,0.0,1.6864,1.7022,0.0,0.0,0.0,0.0,0.0,1.919,1.961,1.9533,0.0,0.0,0.0,0.0,1.8931,0.0,0.0,0.0,0.0,0.0,0.0,0.0,0.0,1.2893,1.215,1.1484,1.0594,0.9846,0.962,0.9236,0.8699,0.8551,0.8169,0.7783,0.7633,0.7326,0.7064,0.6998,0.7078,0.7152,0.7225,0.7295,0.7492,0.8025,0.8288,0.8811,0.9602,1.0038,1.0391,1.0921,1.1008,1.1351,1.2086,1.2232,1.251,1.3193,1.3335,1.3624,1.4094,1.434,1.4087,1.3516,1.3768,1.4027,1.4248,1.4667,1.4915,1.4744,1.5358,1.5559,1.5458,1.5992,1.6205,1.6311,1.6311,1.6311,1.6311,1.6311,1.6424,1.6636,1.6842,1.7166,1.7384,1.7694,1.7694,1.7384,1.7054,1.6849,1.6643,0.0,0.0,0.0,0.0,0.0,0.0,0.0,2.1841,2.1616,2.1471,2.1326,2.1144,2.0987,2.0785,2.0459,0.0,0.0,0.0,0.0,0.0,0.0,0.0,0.0,0.0,0.0,0.0,0.0,1.6955,1.7301,0.0,0.0,0.0,0.0,0.0,0.0,1.9787,1.9698,2.038,0.0,0.0,0.0,0.0,0.0,0.0,0.0,0.0,0.0,0.0,1.4497,0.0,1.3105,1.2231,1.1781,1.1186,1.0513,0.9846,0.9311,0.8922,0.8699,0.8241,0.7783,0.7783,0.7633,0.7529,0.7703,0.7643,0.7741,0.8082,0.8166,0.8288,0.8995,0.934,0.9602,1.012,1.0651,1.0921,1.1008,1.1181,1.1526,1.2263,1.2597,1.2974,1.3759,1.4004,1.4388,1.4956,1.5686,1.5641,1.4654,1.5053,1.5341,1.5359,1.5629,1.5867,1.6156,1.618,1.6511,1.7041,1.7041,1.7259,1.7477,1.7477,1.7477,1.7477,1.7477,1.7477,1.7477,1.7806,1.7911,1.7911,1.822,1.8318,1.8213,1.801,1.7911,1.7806,0.0,0.0,0.0,0.0,0.0,0.0,0.0,2.1471,2.1264,2.1068,2.0921,2.0723,2.0498,2.0347,2.0118,0.0,0.0,0.0,0.0,0.0,0.0,0.0,0.0,0.0,0.0,0.0,1.7312,1.7412,1.7468,0.0,0.0,0.0,0.0,0.0,0.0,1.9828,1.9757,2.062,0.0,0.0,0.0,0.0,0.0,0.0,0.0,0.0,0.0,0.0,1.4848,1.4346,1.355,1.2753,1.2077,1.1484,1.0812,0.9992,0.9468,0.9165,0.9089,0.878,0.8542,0.8542,0.8394,0.8326,0.864,0.8693,0.8761,0.9244,0.9287,0.9423,0.9864,0.9951,1.0212,1.0651,1.0921,1.1008,1.1181,1.1354,1.1789,1.2541,1.2956,1.3609,1.4518,1.4867,1.5319,1.5969,1.6653,1.6905,1.668,1.6606,1.6607,1.6781,1.689,1.6942,1.7047,1.7265,1.7477,1.7687,1.7898,1.8003,1.8108,1.8108,1.8108,1.8108,1.8108,1.8108,1.8108,1.8443,1.8555,1.8555,1.8855,1.8855,1.8653,1.8548,1.8436,1.822,0.0,0.0,0.0,0.0,0.0,0.0,2.1264,2.1118,2.0921,2.0709,2.056,2.0422,2.0233,2.0029,1.9875,1.9759,0.0,0.0,0.0,0.0,0.0,0.0,0.0,0.0,0.0,0.0,1.759,1.7711,1.7645,1.7744,0.0,0.0,1.803,1.813,0.0,0.0,0.0,0.0,0.0,0.0,0.0,0.0,0.0,0.0,0.0,0.0,0.0,0.0,0.0,0.0,0.0,1.3046,0.0,0.0,0.0,0.0,0.9695,0.9397,0.9397,0.9241,0.9084,0.9084,0.9008,0.8971,0.9394,0.949,0.9611,1.0125,1.0212,1.0299,1.0472,1.0472,1.0651,1.1008,1.1094,1.1181,1.1267,1.1527,1.1964,1.2813,1.3411,1.416,1.519,1.5629,1.6136,1.6822,1.7429,1.7839,1.8259,1.7956,1.7791,1.7891,1.7793,1.7898,1.801,1.8122,1.8338,1.8436,1.8534,1.8639,1.8639,1.8639,1.8639,1.8639,1.8639,1.8639,1.8639,1.8966,1.8974,1.9078,1.9279,1.9175,1.8974,1.8974,1.8855,1.8639,0.0,0.0,0.0,0.0,0.0,0.0,0.0,2.0709,2.056,2.0422,2.0271,2.0182,2.0182,1.9965,1.9759,1.9617,0.0,0.0,0.0,0.0,0.0,0.0,0.0,0.0,0.0,0.0,0.0,1.7711,1.7854,1.792,1.7899,1.8041,1.8084,1.813,0.0,0.0,0.0,0.0,0.0,0.0,0.0,0.0,0.0,0.0,0.0,0.0,0.0,0.0,0.0,0.0,0.0,0.0,0.0,1.1558,1.0962,0.0,0.9922,0.962,0.962,0.9473,0.9322,0.9322,0.9322,0.9443,0.9893,0.9994,1.012,1.0641,1.0727,1.0733,1.0921,1.1008,1.1094,1.1262,1.1262,1.1262,1.1262,1.1527,1.2057,1.3091,1.387,1.4721,1.5677,1.6501,1.7108,1.7319,1.7927,1.8445,1.8774,1.9096,1.9056,1.8422,1.8422,1.8534,1.8869,1.8869,1.8974,1.9279,1.9272,1.9272,1.9272,1.9272,1.9272,1.9272,1.9272,1.9272,1.9272,1.9272,1.9279,1.9279,1.9279,1.9279,1.9279,1.9279,1.9272,1.9272,0.0,0.0,0.0,0.0,0.0,0.0,0.0,2.0422,2.0271,2.0016,1.9965,1.9862,1.9668,1.9577,1.9512,1.9473,0.0,0.0,0.0,0.0,0.0,0.0,0.0,0.0,0.0,0.0,0.0,0.0,1.7909,1.803,1.8271,1.815,1.8247,1.8499,1.9436,1.996,0.0,0.0,0.0,0.0,0.0,0.0,0.0,0.0,0.0,0.0,0.0,0.0,0.0,0.0,0.0,0.0,0.0,0.0,0.0,1.0588,1.0218,0.9992,0.9846,0.9771,0.9695,0.9695,0.9695,0.9816,1.029,1.0395,1.0526,1.0989,1.1084,1.1089,1.1176,1.1181,1.1262,1.1262,1.1262,1.1348,1.1527,1.1952,1.265,1.3808,1.5219,1.6285,1.6749,1.7052,1.7465,1.8011,1.8149,1.854,1.9096,1.922,1.9168,1.9063,1.9063,1.9063,1.9175,1.9175,1.9175,1.9279,1.9279,1.9279,1.9279,1.9279,1.9279,1.9279,1.9279,1.9279,1.9279,1.9279,1.9279,1.9279,1.9279,1.9279,1.9279,1.9279,1.9279,1.9279,0.0,0.0,0.0,0.0,0.0,0.0,0.0,2.0016,1.9926,1.9656,1.9656,1.9617,1.942,1.9316,1.9263,1.9263,0.0,0.0,0.0,0.0,0.0,0.0,0.0,0.0,0.0,0.0,0.0,0.0,0.0,0.0,1.8464,1.8356,1.8398,1.8661,1.9665,2.0123,0.0,0.0,0.0,0.0,0.0,0.0,1.9396,0.0,0.0,0.0,0.0,0.0,0.0,0.0,0.0,0.0,0.0,0.0,0.0,0.0,1.0443,1.0218,0.9992,0.9922,0.9922,0.9922,0.9992,1.0159,1.0546,1.0702,1.088,1.1187,1.1262,1.1262,1.1262,1.1262,1.1348,1.144,1.144,1.1607,1.1952,1.2457,1.3405,1.4863,1.6195,1.7066,1.7232,1.7435,1.7728,1.8262,1.8416,1.8716,1.925,1.9279,1.9279,1.9279,1.9279,1.9279,1.9279,1.9279,1.9279,1.9279,1.9279,1.9279,1.9279,1.9279,1.9279,1.9279,1.9279,1.9279,0.0,1.9279,1.9279,1.9279,1.9279,1.9279,1.9279,1.9279,1.9279,1.9279,0.0,0.0,0.0,0.0,0.0,0.0,0.0,0.0,0.0,0.0,1.9368,1.9368,1.9368,1.9158,1.8999,0.0,0.0,0.0,0.0,0.0,0.0,0.0,0.0,0.0,0.0,0.0,0.0,1.8422,1.8422,1.8464,1.8614,0.0,1.8614,1.8714,1.988,2.0461,0.0,0.0,0.0,0.0,2.0624,1.9966,0.0,0.0,0.0,0.0,0.0,0.0,0.0,0.0,0.0,0.0,0.0,0.0,0.0,0.0,0.0,0.0,0.0,0.9916,0.9922,0.9922,1.011,1.0353,1.0584,1.0816,0.0,1.13,1.1262,1.1354,1.1348,1.1354,1.1435,1.1699,1.1785,1.1952,1.2454,1.3126,1.4307,1.6057,1.6686,1.7066,1.7232,1.7625,1.7947,1.8277,1.8606,1.8935,1.9257,1.9279,1.9279,1.9279,1.9279,1.9279,1.9279,1.9279,1.9279,1.9279,1.9279,1.9279,1.9279,1.9279,1.9279,1.9279,1.9279,1.9279,1.9279,1.9279,1.9279,1.9279,1.9279,1.9279,1.9279,1.9279,1.9294,1.9316,0.0,0.0,0.0,0.0,0.0,0.0,0.0,0.0,0.0,0.0,1.9158,1.9052,1.8958,1.8786,0.0,0.0,0.0,0.0,0.0,0.0,0.0,0.0,0.0,0.0,0.0,0.0,0.0,1.8422,1.8518,1.8667,1.8881,1.8721,0.0,0.0,0.0,0.0,0.0,0.0,0.0,0.0,2.0914,2.0313,0.0,0.0,0.0,0.0,1.7038,1.6551,0.0,0.0,0.0,0.0,0.0,0.0,0.0,0.0,1.1037,1.0663,1.0438,0.0,0.9922,0.9922,1.011,1.0353,0.0,1.0816,0.0,0.0,0.0,0.0,0.0,1.1774,1.1935,1.2198,1.2448,1.279,1.3137,1.4342,1.5521,1.6366,1.6865,1.7239,1.7326,1.7625,1.7947,1.8277,1.8606,1.8935,1.9257,1.9279,1.9279,1.9279,1.9279,1.9279,1.9279,1.9279,1.9279,1.9279,1.9279,1.9279,1.9279,1.9279,1.9279,1.9279,1.9279,1.9279,1.9279,1.9279,1.9279,1.9279,1.9279,1.9279,1.9279,1.9279,1.9433,1.9652,0.0,0.0,0.0,0.0,0.0,0.0,0.0,0.0,0.0,0.0,0.0,0.0,0.0,0.0,0.0,0.0,0.0,0.0,0.0,0.0,0.0,0.0,0.0,0.0,0.0,0.0,0.0,0.0,0.0,1.8815,0.0,0.0,0.0,0.0,0.0,0.0,0.0,0.0,0.0,0.0,2.0914,0.0,0.0,0.0,0.0,0.0,1.7116,1.6621,0.0,1.5559,1.507,1.4649,0.0,0.0,0.0,0.0,1.1484,1.1186,1.0887,1.0519,1.0143,1.0143,1.0445,1.0802,1.0917,0.0,0.0,0.0,0.0,0.0,0.0,1.2209,1.2443,1.2784,1.313,1.3566,1.4349,1.5279,1.6102,1.6749,1.713,1.7326,1.7326,1.7757,1.8108,1.8291,1.8745,1.9089,1.9264,1.9279,1.9279,1.9279,1.9279,1.9279,1.9279,1.9279,1.9279,1.9279,1.9279,1.9279,1.9279,1.9279,1.9279,1.9279,1.9279,1.9279,1.9279,1.9279,1.9279,1.9279,1.9279,1.9279,1.9294,1.944,1.9616,1.9784,0.0,0.0,0.0,0.0,0.0,0.0,0.0,0.0,0.0,0.0,0.0,0.0,0.0,0.0,0.0,0.0,0.0,0.0,0.0,0.0,0.0,0.0,0.0,0.0,0.0,0.0,0.0,0.0,0.0,0.0,0.0,0.0,1.932,0.0,0.0,0.0,0.0,0.0,0.0,0.0,2.0903,0.0,0.0,0.0,0.0,0.0,0.0,0.0,0.0,1.5638,1.5221,1.4721,1.408,0.0,0.0,0.0,0.0,0.0,1.1409,1.1037,1.0738,1.0588,1.0958,1.1362,1.1416,0.0,0.0,0.0,0.0,0.0,0.0,1.2723,1.3033,1.3451,1.3756,1.4415,1.5676,1.5974,1.6404,1.7166,1.7326,1.7326,1.7326,1.7918,1.8299,1.8299,1.8906,1.9279,1.9279,1.9279,1.9279,1.9279,1.9279,1.9279,1.9279,1.9279,1.9279,1.9279,1.9279,1.9279,1.9279,1.9279,1.9279,1.9279,1.9279,1.9279,1.9279,1.9279,1.9279,1.9279,1.9279,1.9308,1.9389,1.9659,1.9828,1.9952,0.0,0.0,0.0,0.0,0.0,0.0,0.0,0.0,0.0,0.0,0.0,0.0,0.0,0.0,0.0,0.0,0.0,0.0,0.0,0.0,0.0,0.0,0.0,0.0,0.0,0.0,0.0,0.0,0.0,0.0,1.9368,1.9223,1.9763,2.0765,0.0,0.0,0.0,0.0,0.0,2.14,2.1019,0.0,0.0,0.0,0.0,0.0,0.0,0.0,0.0,1.5638,1.5141,1.4641,1.4361,0.0,0.0,0.0,0.0,0.0,1.215,1.2077,1.1855,1.1186,1.1426,1.1816,0.0,0.0,0.0,0.0,0.0,0.0,0.0,1.3438,1.3665,1.4132,1.4873,1.5526,1.6228,1.6519,1.6916,1.7282,1.7326,1.7326,1.7326,1.7918,1.8299,1.8299,1.8906,1.9279,1.9279,1.9279,1.9279,1.9279,1.9279,1.9279,1.9279,1.9279,1.9279,1.9279,1.9279,1.9279,1.9279,1.9279,1.9279,1.9279,1.9279,1.9279,1.9279,1.9279,1.9279,1.9279,1.9279,1.9447,1.9696,1.974,2.0106,2.0625,0.0,0.0,0.0,0.0,0.0,0.0,0.0,0.0,0.0,0.0,0.0,0.0,0.0,0.0,0.0,0.0,0.0,0.0,0.0,0.0,0.0,0.0,0.0,0.0,0.0,0.0,0.0,0.0,0.0,1.9011,1.9287,1.9526,2.0164,2.1183,0.0,0.0,2.1886,2.1675,2.1463,2.1388,0.0,0.0,0.0,0.0,0.0,0.0,0.0,0.0,0.0,0.0,1.5141,1.4721,1.4505,0.0,0.0,0.0,0.0,0.0,1.2673,1.2599,1.2526,1.215,1.2374,0.0,0.0,0.0,0.0,0.0,0.0,0.0,0.0,1.4139,1.4371,1.4824,1.5439,1.5929,1.6323,1.6645,1.6974,1.7289,1.7326,1.7326,1.7326,1.7918,1.8299,1.8299,1.8906,1.9279,1.9279,1.9279,1.9279,1.9279,1.9279,1.9279,1.9279,1.9279,1.9279,1.9279,1.9279,1.9279,1.9279,1.9279,1.9279,1.9279,1.9279,1.9279,1.9279,1.9279,1.9279,1.9294,1.9469,1.963,1.9806,2.0157,2.0581,2.1006,0.0,0.0,0.0,0.0,0.0,0.0,0.0,0.0,0.0,0.0,0.0,0.0,0.0,0.0,0.0,0.0,0.0,0.0,0.0,0.0,0.0,0.0,0.0,0.0,0.0,0.0,1.8667,1.8732,1.8798,1.9018,1.9376,2.0031,2.0656,2.1308,0.0,2.1495,2.1624,2.1463,2.1325,2.1273,0.0,0.0,0.0,0.0,0.0,0.0,0.0,0.0,0.0,0.0,0.0,0.0,0.0,0.0,0.0,1.3702,1.3492,1.3273,1.3046,1.3046,1.3046,1.3134,0.0,0.0,0.0,0.0,0.0,0.0,0.0,0.0,1.453,1.4762,1.4999,1.5347,1.576,1.6104,1.6338,1.6711,1.7055,1.7304,1.7326,1.7326,1.7326,1.7918,1.8299,1.8299,1.8906,1.9279,1.9279,1.9279,1.9279,1.9279,1.9279,1.9279,1.9279,1.9279,1.9279,1.9279,1.9279,1.9279,1.9279,1.9279,1.9279,1.9279,1.9279,1.9279,1.9279,1.9279,1.9279,1.9308,1.9638,1.9857,2.0055,2.0625,2.0998,2.1211,0.0,0.0,0.0,0.0,0.0,0.0,0.0,0.0,0.0,0.0,0.0,0.0,0.0,0.0,0.0,0.0,0.0,0.0,0.0,0.0,0.0,0.0,0.0,0.0,0.0,1.8536,1.859,1.8614,1.8881,1.9305,1.9934,2.0779,2.1236,2.1332,0.0,2.1577,2.1388,2.1388,2.1198,2.0955,2.0903,0.0,0.0,0.0,0.0,0.0,0.0,0.0,0.0,0.0,0.0,0.0,0.0,0.0,1.4057,1.4057,1.3775,1.3499,1.3492,1.3492,1.3506,1.3842,0.0,0.0,0.0,0.0,0.0,1.465,0.0,0.0,0.0,1.518,1.5347,1.5431,1.5935,1.6345,1.6367,1.6901,1.7304,1.7326,1.7326,1.7326,1.7326,1.7918,1.8299,1.8299,1.8906,1.9279,1.9279,1.9279,1.9279,1.9279,1.9279,1.9279,1.9279,1.9279,1.9279,1.9279,1.9279,1.9279,1.9279,1.9279,1.9279,1.9279,1.9279,1.9279,1.9279,1.9279,1.9279,1.9308,1.9638,2.0128,2.0698,2.105,2.1189,2.1211,0.0,0.0,0.0,0.0,0.0,0.0,0.0,0.0,0.0,0.0,0.0,0.0,0.0,0.0,0.0,0.0,0.0,0.0,0.0,0.0,0.0,0.0,0.0,1.8259,1.8193,1.8236,1.8344,1.8464,1.8944,1.9713,2.0686,2.095,0.0,0.0,0.0,2.1411,2.1285,2.1146,2.1031,2.0903,2.0646,2.0529,0.0,0.0,0.0,0.0,0.0,0.0,0.0,0.0,1.5221,1.4864,1.4577,1.4281,1.4065,1.3928,1.371,1.3492,1.3492,1.3492,1.3616,1.4052,0.0,0.0,0.0,0.0,0.0,1.5173,1.5173,0.0,0.0,1.5347,1.5496,1.5694,1.6089,1.644,1.6645,1.7047,1.7326,1.7326,1.7326,1.7326,1.7326,1.7918,1.8299,1.8299,1.8906,1.9279,1.9279,1.9279,1.9279,1.9279,1.9279,1.9279,1.9279,1.9279,1.9279,1.9279,1.9279,1.9279,1.9279,1.9279,1.9279,1.9279,1.9279,1.9279,1.9279,1.9279,1.9396,1.963,2.0157,2.0633,2.1042,2.1167,2.1211,2.1211,0.0,0.0,0.0,0.0,0.0,0.0,0.0,0.0,0.0,0.0,0.0,0.0,0.0,0.0,0.0,0.0,0.0,0.0,0.0,0.0,0.0,0.0,0.0,1.8379,1.8193,1.8354,1.8435,1.8556,1.933,2.0205,2.1032,0.0,0.0,0.0,0.0,2.1273,2.1094,2.0967,2.0839,2.0711,2.0464,2.0346,0.0,0.0,0.0,0.0,0.0,0.0,0.0,0.0,1.5221,1.4864,1.4505,1.4217,1.3992,1.3863,1.3717,1.3572,1.3572,1.3711,1.3926,0.0,0.0,0.0,0.0,0.0,0.0,1.5597,1.5597,1.5597,1.5597,1.5678,1.5819,1.6048,1.652,1.687,1.7093,1.7313,1.7426,1.7426,1.7333,1.7369,1.7472,1.7977,1.8343,1.8445,1.8964,1.9279,1.9279,1.9279,1.9279,1.9279,1.9279,1.9279,1.9279,1.9279,1.9279,1.9279,1.9279,1.9279,1.9279,1.9279,1.9279,1.9279,1.9279,1.9279,1.9279,1.9279,1.9528,1.9967,2.0508,2.0918,2.1211,2.1211,2.1211,2.1211,0.0,0.0,0.0,0.0,0.0,0.0,0.0,0.0,0.0,0.0,0.0,0.0,0.0,0.0,0.0,0.0,0.0,0.0,0.0,0.0,0.0,0.0,0.0,1.8522,1.8433,1.889,1.9033,1.8908,2.0097,2.0778,2.0899,2.1218,0.0,0.0,0.0,2.1094,2.0903,2.0903,2.0711,2.041,2.041,2.0281,2.0074,0.0,0.0,0.0,0.0,0.0,0.0,0.0,1.5221,1.4864,1.4505,1.4145,1.3797,1.3797,1.3797,1.3797,1.3797,1.4169,1.4682,0.0,0.0,0.0,0.0,0.0,0.0,1.6087,1.6087,1.6087,1.6087,1.6369,1.6598,1.6598,1.7148,1.7575,1.7583,1.7697,1.7721,1.7721,1.7434,1.7457,1.7786,1.8108,1.8438,1.8767,1.9089,1.9279,1.9279,1.9279,1.9279,1.9279,1.9279,1.9279,1.9279,1.9279,1.9279,1.9279,1.9279,1.9279,1.9279,1.9279,1.9279,1.9279,1.9279,1.9279,1.9279,1.9286,1.9667,2.0274,2.0603,2.0925,2.1211,2.1211,2.1211,2.1211,0.0,0.0,0.0,0.0,0.0,0.0,0.0,0.0,0.0,0.0,0.0,0.0,0.0,0.0,0.0,0.0,0.0,0.0,0.0,0.0,0.0,0.0,0.0,0.0,0.0,0.0,2.0084,2.0155,2.0384,2.0769,0.0,0.0,0.0,2.1221,0.0,0.0,2.0903,2.0658,2.0464,2.041,2.0281,2.0074,1.9944,0.0,0.0,0.0,0.0,0.0,0.0,0.0,0.0,0.0,1.4353,1.4,1.3797,1.3797,1.3797,1.3863,1.3992,1.4309,1.4712,1.5165,0.0,0.0,0.0,0.0,0.0,0.0,1.6087,1.6087,1.6087,1.6369,1.6667,1.6896,1.7293,1.7659,1.7896,1.7933,1.7994,1.7994,1.79,1.8029,1.8361,1.8701,1.8934,1.9063,1.939,1.948,1.9272,1.9279,1.9279,1.9279,1.9279,1.9279,1.9279,1.9279,1.9279,1.9279,1.9279,1.9279,1.9279,1.9279,1.9279,1.9279,1.9279,1.9279,1.9308,1.9762,2.0201,2.0611,2.094,2.1123,2.1211,2.1211,2.1211,2.1211,0.0,0.0,0.0,0.0,0.0,0.0,0.0,0.0,0.0,0.0,1.8084,0.0,0.0,0.0,0.0,0.0,0.0,0.0,0.0,0.0,0.0,0.0,0.0,0.0,0.0,2.009,2.0565,0.0,0.0,0.0,0.0,0.0,0.0,2.1094,0.0,2.0839,2.0722,2.0464,2.0346,2.0281,2.0074,1.9933,1.9868,0.0,0.0,0.0,0.0,0.0,0.0,0.0,0.0,0.0,1.4274,1.392,1.3717,1.3797,1.3863,1.3928,1.4137,1.4622,1.5117,1.5404,1.5897,1.6299,1.6601,0.0,0.0,0.0,1.6335,1.6374,1.6521,1.6815,1.7156,1.7482,1.783,1.8125,1.8334,1.828,1.828,1.828,1.8179,1.827,1.875,1.8979,1.9193,1.9539,1.9671,1.9576,1.948,1.9376,1.9279,1.9279,1.9279,1.9279,1.9279,1.9279,1.9279,1.9279,1.9279,1.9279,1.9279,1.9279,1.9279,1.9279,1.9279,1.9352,1.9513,2.0025,2.0428,2.0757,2.1086,2.1211,2.1211,2.1211,2.1211,2.1211,0.0,0.0,1.6581,1.6627,0.0,0.0,0.0,0.0,0.0,0.0,1.8398,1.8614,0.0,0.0,0.0,0.0,0.0,0.0,0.0,0.0,0.0,0.0,0.0,0.0,0.0,0.0,0.0,0.0,0.0,0.0,0.0,0.0,2.1094,2.0903,0.0,2.0722,2.041,2.041,2.0281,2.0085,1.9933,1.9868,1.9802,1.9274,0.0,0.0,0.0,0.0,0.0,0.0,0.0,0.0,1.4201,1.3848,1.3564,1.379,1.3928,1.4129,1.4353,1.5075,1.5674,1.5674,1.6206,1.673,1.673,1.673,1.673,1.673,1.673,1.6849,1.7215,1.7548,1.7882,1.824,1.8597,1.8827,1.8827,1.8651,1.8574,1.8574,1.828,1.8448,1.9131,1.9192,1.9476,2.0135,1.9879,1.968,1.968,1.948,1.9279,1.9279,1.9279,1.9279,1.9279,1.9279,1.9279,1.9279,1.9279,1.9279,1.9279,1.9279,1.9279,1.9279,1.9279,1.9477,1.9828,2.012,2.045,2.0794,2.1094,2.1211,2.1211,2.1211,2.1211,2.1211,0.0,0.0,1.6488,1.6705,0.0,0.0,0.0,0.0,0.0,0.0,0.0,0.0,0.0,0.0,0.0,0.0,0.0,0.0,0.0,0.0,0.0,0.0,0.0,0.0,0.0,0.0,0.0,0.0,0.0,0.0,0.0,0.0,0.0,2.0903,0.0,2.0475,2.041,2.0216,2.0151,2.0085,1.9933,1.9802,1.9605,1.9264,1.8875,0.0,0.0,0.0,0.0,0.0,0.0,0.0,1.4201,1.3848,1.3564,1.392,1.4057,1.4201,1.4497,1.5149,1.5674,1.5674,1.6206,1.673,1.673,1.673,1.673,1.673,1.673,1.6849,1.7215,1.7548,1.7882,1.824,1.8597,1.8827,1.8827,1.8735,1.8743,1.8743,1.8643,1.8918,1.97,1.9771,1.9964,2.0357,2.0197,1.9879,1.968,1.948,1.9279,1.9279,1.9279,1.9279,1.9279,1.9279,1.9279,1.9279,1.9279,1.9279,1.9279,1.9279,1.9279,1.9279,1.9279,1.9601,2.0142,2.0208,2.0581,2.1115,2.1181,2.1211,2.1211,2.1211,2.1211,2.1211,0.0,0.0,0.0,0.0,0.0,0.0,0.0,0.0,0.0,0.0,0.0,0.0,0.0,0.0,0.0,0.0,0.0,0.0,0.0,0.0,1.9645,1.9746,0.0,0.0,0.0,0.0,0.0,0.0,0.0,0.0,0.0,0.0,0.0,2.0658,0.0,2.0346,2.0281,2.0151,2.0074,2.0009,1.9813,1.9615,1.9417,1.9075,1.8741,1.8414,1.7657,0.0,0.0,0.0,0.0,0.0,0.0,0.0,1.3564,1.3992,1.4129,1.424,1.471,1.5284,1.5753,1.6103,1.646,1.673,1.673,1.6812,1.6894,1.6894,1.703,1.7171,1.7445,1.789,1.833,1.8494,1.8708,1.8827,1.8827,1.8827,1.8827,1.8827,1.8827,1.9105,1.9797,1.9868,2.0063,2.0467,2.0292,1.9983,1.968,1.948,1.9279,1.9279,1.9279,1.9279,1.9279,1.9279,1.9279,1.9279,1.9279,1.9279,1.9279,1.9279,1.9279,1.9279,1.9279,1.9638,2.0237,2.0237,2.0625,2.1211,2.1211,2.1211,2.1211,2.1211,2.1211,2.1211,0.0,0.0,0.0,0.0,0.0,0.0,0.0,0.0,0.0,0.0,0.0,0.0,0.0,0.0,0.0,0.0,0.0,0.0,0.0,1.9738,2.0141,2.0515,0.0,0.0,0.0,0.0,0.0,0.0,0.0,0.0,0.0,0.0,0.0,2.041,0.0,2.0281,2.0085,2.0074,2.0009,1.9868,1.9671,1.9473,1.9274,1.8942,1.8674,1.8414,1.7657,1.7019,1.6464,1.5638,0.0,0.0,0.0,0.0,1.3564,1.392,1.4103,1.4356,1.4954,1.5467,1.592,1.6571,1.673,1.673,1.673,1.6894,1.7139,1.7139,1.7424,1.7705,1.7881,1.8346,1.8709,1.8864,1.8827,1.8827,1.8827,1.8827,1.8827,1.8827,1.8827,1.9105,1.9797,1.9868,2.0063,2.0467,2.0292,1.9983,1.968,1.948,1.9279,1.9279,1.9279,1.9279,1.9279,1.9279,1.9279,1.9279,1.9279,1.9279,1.9279,1.9279,1.9279,1.9279,1.9279,1.9638,2.0237,2.0237,2.0625,2.1211,2.1211,2.1211,2.1211,2.1211,2.1211,2.1211,0.0,0.0,0.0,0.0,0.0,0.0,0.0,0.0,0.0,0.0,1.8732,1.8667,0.0,0.0,0.0,0.0,0.0,0.0,1.9609,0.0,0.0,2.1043,0.0,0.0,0.0,0.0,0.0,0.0,0.0,0.0,0.0,0.0,0.0,2.041,0.0,0.0,2.0074,2.0009,1.9933,1.9868,1.9473,1.9341,1.9274,1.8942,1.8674,1.8414,1.751,1.6811,1.6175,1.5284,1.4649,0.0,0.0,0.0,1.3564,1.379,1.4205,1.4582,1.486,0.0,1.623,1.6635,1.673,1.673,1.673,1.6894,1.7139,1.7139,1.7523,1.806,1.8321,1.8611,1.8799,1.9131,1.8912,1.8827,1.8827,1.8827,1.8827,1.8827,1.8827,1.9105,1.9797,1.9868,2.0063,2.0467,2.0292,1.9983,1.968,1.948,1.9279,1.9279,1.9279,1.9279,1.9279,1.9279,1.9279,1.9279,1.9279,1.9279,1.9279,1.9279,1.9279,1.9279,1.9279,1.9638,2.0237,2.0237,2.0625,2.1211,2.1211,2.1211,2.1211,2.1211,2.1211,2.1211,0.0,0.0,0.0,0.0,0.0,0.0,0.0,0.0,0.0,0.0,0.0,1.8677,0.0,0.0,0.0,0.0,0.0,0.0,2.0481,2.071,0.0,0.0,0.0,0.0,0.0,0.0,0.0,0.0,0.0,0.0,0.0,2.0281,2.0216,0.0,0.0,0.0,0.0,0.0,1.9736,1.9539,1.9341,1.9274,1.9142,1.8875,1.8674,1.8414,1.751,1.6802,1.6167,1.5213,1.4569,1.4057,1.3863,0.0,0.0,0.0,1.4103,1.4585,1.5273,1.5968,1.654,1.669,1.673,1.673,1.673,1.6976,1.7302,1.7302,1.8021,1.8641,1.8535,1.8943,1.929,1.9255,1.9096,1.9004,1.8827,1.8827,1.8827,1.8827,1.8827,1.9105,1.9797,1.9868,1.9956,2.0246,2.0189,1.9879,1.948,1.9376,1.9279,1.9279,1.9279,1.9279,1.9279,1.9279,1.9279,1.9279,1.9279,1.9279,1.9279,1.9279,1.9279,1.9279,1.9279,1.9638,2.0237,2.0237,2.0625,2.1211,2.1211,2.1211,2.1211,2.1211,2.1211,2.1211,0.0,0.0,0.0,0.0,0.0,0.0,0.0,0.0,0.0,0.0,0.0,0.0,0.0,0.0,0.0,0.0,0.0,0.0,2.1135,0.0,0.0,0.0,0.0,0.0,0.0,0.0,0.0,0.0,0.0,0.0,2.0346,2.0151,2.0074,0.0,2.0074,0.0,0.0,0.0,0.0,1.9285,1.9274,1.9208,1.9065,0.0,1.8674,0.0,0.0,1.6811,1.6105,1.5141,1.4497,1.4065,1.379,1.3645,0.0,0.0,0.0,1.4629,1.5697,1.6296,1.6648,1.6648,1.6648,1.673,1.673,1.6984,1.731,1.7392,1.8313,1.8998,1.8732,1.9343,1.9745,1.9463,1.9279,1.9096,1.892,1.8827,1.8827,1.8827,1.8827,1.9105,1.9797,1.9868,1.9857,2.0033,2.0086,1.9776,1.9383,1.9279,1.9279,1.9279,1.9279,1.9279,1.9279,1.9279,1.9279,1.9279,1.9279,1.9279,1.9279,1.9279,1.9279,1.9279,1.9367,1.9718,2.0245,2.0325,2.0691,2.1211,2.1211,2.1211,2.1211,2.1211,2.1211,2.1211,0.0,0.0,0.0,0.0,0.0,0.0,0.0,0.0,0.0,0.0,0.0,0.0,0.0,0.0,0.0,0.0,0.0,0.0,0.0,0.0,0.0,0.0,0.0,0.0,0.0,0.0,0.0,0.0,0.0,0.0,2.0151,2.0085,2.0009,1.9933,1.9933,1.9933,1.9868,0.0,0.0,1.9285,1.9142,1.9142,1.9065,0.0,0.0,0.0,0.0,1.6751,1.5991,1.4927,1.4425,1.4057,1.3637,1.3499,1.3492,0.0,0.0,0.0,1.5881,1.6229,1.6394,1.6394,1.6566,1.673,1.673,1.6894,1.7139,1.7392,1.8146,1.8912,1.9093,1.9609,1.9928,1.9837,1.9471,1.9188,1.9188,1.892,1.8827,1.8827,1.8827,1.9105,1.9797,1.9673,1.9667,2.0033,1.9879,1.9576,1.9272,1.9279,1.9279,1.9279,1.9279,1.9279,1.9279,1.9279,1.9279,1.9279,1.9279,1.9279,1.9279,1.9279,1.9279,1.9294,1.9608,1.993,2.0259,2.0567,2.0903,2.1211,2.1211,2.1211,2.1211,2.1211,2.1211,2.1211,0.0,0.0,0.0,0.0,0.0,0.0,0.0,0.0,0.0,0.0,0.0,0.0,0.0,0.0,0.0,2.1024,2.1144,0.0,0.0,0.0,0.0,0.0,0.0,0.0,0.0,0.0,0.0,0.0,0.0,2.0074,1.9933,1.9933,1.9868,1.9736,1.9868,1.9747,1.9473,1.9351,0.0,1.9142,1.9142,1.9075,1.9065,0.0,0.0,0.0,0.0,1.6621,1.5921,1.4927,1.4353,0.0,0.0,0.0,0.0,0.0,0.0,0.0,0.0,0.0,1.6394,1.6394,1.6566,1.673,1.673,1.6894,1.7139,1.7221,1.7969,1.8654,1.8732,1.9521,2.011,1.9936,1.9662,1.9387,1.9188,1.9012,1.8827,1.8827,1.8827,1.9105,1.9797,1.9673,1.9667,2.0033,1.9879,1.9576,1.9272,1.9279,1.9279,1.9279,1.9279,1.9279,1.9279,1.9279,1.9279,1.9279,1.9279,1.9279,1.9279,1.9279,1.9279,1.9301,1.9835,2.0128,2.0259,2.0589,2.0911,2.1211,2.1211,2.1211,2.1211,2.1211,2.1211,2.1211,0.0,0.0,0.0,0.0,0.0,0.0,0.0,0.0,0.0,0.0,0.0,0.0,0.0,0.0,0.0,2.1502,2.1749,2.1812,2.1588,2.1526,0.0,0.0,0.0,0.0,0.0,0.0,0.0,0.0,0.0,0.0,0.0,0.0,1.9671,1.9473,1.9671,1.9539,0.0,0.0,0.0,1.9075,1.9075,1.9075,1.9075,0.0,0.0,0.0,1.7176,1.6482,1.5842,1.4927,1.4353,1.4065,0.0,0.0,0.0,0.0,0.0,0.0,1.5493,0.0,0.0,1.6319,1.6484,1.6648,1.6656,1.6812,1.6976,1.7057,1.7695,1.8239,1.8448,1.9234,1.9875,1.9828,1.9571,1.9387,1.9188,1.9012,1.8827,1.8827,1.8827,1.9004,1.97,1.9486,1.9568,1.993,1.968,1.948,1.9279,1.9279,1.9279,1.9279,1.9279,1.9279,1.9279,1.9279,1.9279,1.9279,1.9279,1.9279,1.9279,1.9279,1.9279,1.9308,1.9959,2.0237,2.0267,2.0706,2.1013,2.1211,2.1211,2.1211,2.1211,2.1211,2.1211,2.1211,0.0,1.7078,1.7534,1.7723,1.7943,1.8279,0.0,0.0,0.0,0.0,0.0,0.0,0.0,0.0,0.0,2.1862,2.2123,2.2123,2.1925,2.1788,0.0,0.0,0.0,0.0,0.0,0.0,0.0,0.0,0.0,0.0,0.0,0.0,1.9473,0.0,1.9274,1.9274,1.9285,0.0,1.9075,1.9075,0.0,1.9075,1.9075,0.0,0.0,1.794,1.7185,1.6403,1.5692,1.4919,1.4418,1.4065,0.0,0.0,0.0,0.0,0.0,0.0,0.0,0.0,0.0,1.6004,1.6245,1.6476,1.6648,1.673,1.673,1.7049,1.7341,1.7782,1.8399,1.877,1.9142,1.953,1.9387,1.9188,1.9188,1.9012,1.8827,1.8827,1.8827,1.9012,1.9416,1.929,1.9277,1.9627,1.948,1.9279,1.9279,1.9279,1.9279,1.9279,1.9279,1.9279,1.9279,1.9279,1.9279,1.9279,1.9279,1.9279,1.9279,1.9279,1.9279,1.9308,1.9959,2.0237,2.0281,2.094,2.1211,2.1211,2.1211,2.1211,2.1211,2.1211,2.1211,2.1211,1.6694,1.7256,1.7823,1.8306,1.8577,1.8862,0.0,0.0,0.0,0.0,0.0,0.0,0.0,0.0,0.0,2.2408,2.2604,2.2604,2.2297,2.1987,2.1612,2.1158,2.0862,0.0,0.0,0.0,0.0,0.0,0.0,0.0,0.0,0.0,0.0,0.0,1.9142,1.9142,1.9142,1.9142,0.0,1.9075,1.9075,1.9075,1.9075,1.8808,1.8539,1.8134,1.752,1.676,1.6061,1.5275,1.4705,1.4255,0.0,0.0,0.0,0.0,0.0,0.0,1.5401,0.0,0.0,0.0,0.0,0.0,1.6476,1.6566,1.673,1.6812,1.71,1.7544,1.7881,1.8234,1.8595,1.8964,1.9104,1.9188,1.9188,1.9012,1.8827,1.8827,1.8658,1.884,1.9416,1.9102,1.9085,1.9627,1.948,1.9279,1.9279,1.9279,1.9279,1.9279,1.9279,1.9279,1.9279,1.9279,1.9279,1.9279,1.9279,1.9279,1.9279,1.9279,1.9279,1.9308,1.9959,2.0237,2.0281,2.094,2.1211,2.1211,2.1211,2.1211,2.1211,2.1211,2.1211,2.1211,1.6751,1.7476,1.8171,1.8635,1.8977,1.9401,0.0,0.0,0.0,0.0,0.0,0.0,0.0,0.0,0.0,0.0,2.2957,2.2909,2.2555,2.2185,2.18,2.1221,2.0862,2.054,0.0,0.0,0.0,0.0,0.0,0.0,0.0,0.0,0.0,0.0,0.0,0.0,0.0,0.0,0.0,0.0,1.9075,1.9075,1.9065,1.8875,1.8607,1.8202,1.7657,1.6899,1.6202,1.5417,1.4808,1.4317,1.4149,0.0,0.0,0.0,0.0,0.0,0.0,0.0,0.0,0.0,0.0,0.0,1.6237,1.6409,1.6492,1.6566,1.6731,1.7107,1.7683,1.7938,1.824,1.874,1.8912,1.9004,1.9004,1.892,1.8735,1.8651,1.8566,1.8597,1.8931,1.8829,1.8825,1.9338,1.9302,1.9279,1.9279,1.9279,1.9279,1.9279,1.9279,1.9279,1.9279,1.9279,1.9279,1.9279,1.9279,1.9279,1.9279,1.9279,1.9279,1.9308,1.9959,2.0237,2.0281,2.094,2.1211,2.1211,2.1211,2.1211,2.1211,2.1211,2.1211,2.1211,0.0,1.784,1.8656,1.8839,1.9412,0.0,0.0,0.0,0.0,0.0,0.0,0.0,0.0,0.0,0.0,0.0,2.3271,2.3163,2.2739,2.2371,0.0,2.1221,2.085,2.0399,1.9933,0.0,0.0,0.0,0.0,0.0,0.0,0.0,0.0,0.0,1.9075,1.9075,0.0,0.0,0.0,1.9075,1.9075,1.9075,1.9065,1.8875,1.8607,1.8269,1.7725,1.7038,1.6281,1.5539,1.4935,1.4426,1.4388,1.4643,1.4948,0.0,1.5204,0.0,0.0,0.0,0.0,0.0,1.565,0.0,1.5997,1.6087,1.617,1.6319,1.6394,1.6604,1.7557,1.7684,1.7913,1.8617,1.8735,1.8735,1.8735,1.8735,1.8651,1.8481,1.8388,1.8333,1.8185,1.8521,1.8651,1.8767,1.9096,1.9279,1.9279,1.9279,1.9279,1.9279,1.9279,1.9279,1.9279,1.9279,1.9279,1.9279,1.9279,1.9279,1.9279,1.9279,1.9294,1.9367,1.9974,2.0259,2.034,2.0955,2.1211,2.1211,2.1211,2.1211,2.1211,2.1211,2.1211,2.1211,1.7835,1.8628,1.9383,1.9984,0.0,0.0,0.0,0.0,0.0,0.0,0.0,0.0,0.0,0.0,0.0,0.0,0.0,2.3078,0.0,0.0,2.1788,2.14,2.0775,2.0335,2.0042,1.9671,0.0,0.0,0.0,0.0,0.0,0.0,0.0,0.0,0.0,1.9075,0.0,0.0,0.0,1.9075,1.9075,1.9075,1.9075,1.9075,1.8875,1.8674,1.8269,1.7716,1.7014,1.5978,1.5509,1.5396,1.5136,1.515,1.5227,1.5255,1.5379,0.0,0.0,0.0,0.0,1.5423,1.5582,0.0,1.5741,1.5914,1.6087,1.617,1.617,1.6369,1.7124,1.7247,1.747,1.8157,1.8272,1.8272,1.8566,1.8574,1.8473,1.8187,1.8001,1.795,1.8192,1.8319,1.8537,1.8767,1.9096,1.9279,1.9279,1.9279,1.9279,1.9279,1.9279,1.9279,1.9279,1.9279,1.9279,1.9279,1.9279,1.9279,1.9279,1.9279,1.9418,1.9689,2.0069,2.0384,2.0655,2.105,2.1211,2.1211,2.1211,2.1211,2.1211,2.1211,2.1211,2.1211,1.8633,1.9321,1.9981,2.0488,0.0,0.0,0.0,0.0,0.0,0.0,0.0,0.0,0.0,0.0,0.0,0.0,0.0,0.0,0.0,0.0,2.1675,2.1146,2.0658,2.0205,1.9857,1.9473,0.0,0.0,0.0,0.0,0.0,0.0,0.0,0.0,0.0,0.0,0.0,0.0,1.9075,1.9075,1.9075,1.9075,1.9075,1.9075,1.9008,1.8771,1.8781,1.8308,1.7675,1.6781,1.6337,1.6038,1.5833,1.5602,1.5524,1.553,1.5506,1.5431,1.5431,1.5431,1.5431,1.5431,1.5506,0.0,0.0,1.5665,1.5756,1.5914,1.5914,1.611,1.6949,1.7072,1.7293,1.7972,1.8087,1.8087,1.8102,1.8195,1.8126,1.7674,1.771,1.7628,1.7535,1.8022,1.8503,1.8994,1.9184,1.9279,1.9279,1.9279,1.9279,1.9279,1.9279,1.9279,1.9279,1.9279,1.9279,1.9279,1.9279,1.9279,1.9279,1.9279,1.9455,1.9777,2.0098,2.042,2.075,2.1079,2.1211,2.1211,2.1211,2.1211,2.1211,2.1211,2.1211,2.1211,1.9336,1.995,2.0538,2.0868,0.0,0.0,0.0,0.0,0.0,0.0,0.0,0.0,0.0,0.0,0.0,0.0,0.0,0.0,0.0,0.0,2.1486,2.0903,2.0529,2.0074,1.9605,1.9407,1.9208,0.0,0.0,0.0,0.0,0.0,0.0,0.0,0.0,0.0,0.0,0.0,0.0,1.9075,1.9235,1.9147,1.9085,1.9168,1.9142,1.8992,1.9222,1.8951,1.8369,1.7778,1.7252,1.6763,1.6461,1.6168,1.5899,1.5824,1.5665,1.5514,1.5506,1.5423,1.5423,1.5431,1.5431,1.5431,0.0,0.0,0.0,1.5575,1.5702,1.6017,1.6783,1.7037,1.728,1.7887,1.7994,1.79,1.7621,1.7807,1.7772,1.7175,1.7368,1.7427,1.697,1.7735,1.8547,1.914,1.9242,1.9279,1.9279,1.9279,1.9279,1.9279,1.9279,1.9279,1.9279,1.9279,1.9279,1.9279,1.9279,1.9279,1.9279,1.9279,1.9484,1.9872,2.0128,2.0457,2.0837,2.1101,2.1211,2.1211,2.1211,2.1211,2.1211,2.1211,2.1211,2.1211,2.0154,2.071,2.1307,2.1569,0.0,0.0,0.0,0.0,0.0,0.0,0.0,0.0,0.0,0.0,0.0,0.0,0.0,0.0,2.1937,0.0,0.0,2.0903,2.0324,1.9868,1.9615,1.9274,1.9142,1.9075,0.0,0.0,0.0,0.0,0.0,0.0,1.9075,0.0,0.0,0.0,1.9075,1.9106,1.9588,1.9505,1.9183,1.953,1.9686,1.9668,1.9758,1.962,1.9326,1.8718,1.8353,1.7954,1.7236,1.678,1.6484,1.617,1.6004,1.6004,1.5741,1.565,1.5658,1.5423,1.5431,1.5431,1.5431,0.0,1.5431,1.5423,0.0,1.5965,1.6389,0.0,0.0,1.7368,1.7426,1.7419,1.7333,1.7333,1.7301,1.6985,1.6978,1.6985,1.6948,1.7735,1.8452,1.8818,1.9111,1.9279,1.9279,1.9279,1.9279,1.9279,1.9279,1.9279,1.9279,1.9279,1.9279,1.9279,1.9279,1.9279,1.9279,1.9279,1.9608,2.0186,2.0223,2.0589,2.1159,2.1196,2.1211,2.1211,2.1211,2.1211,2.1211,2.1211,2.1211,2.1211,2.0922,2.1249,2.1651,2.1925,0.0,0.0,0.0,0.0,0.0,0.0,0.0,0.0,0.0,0.0,0.0,0.0,0.0,2.16,2.1348,2.1158,0.0,0.0,2.0129,1.9802,1.9605,1.9274,1.9075,1.9075,1.9075,0.0,0.0,0.0,0.0,0.0,1.9075,0.0,1.9075,0.0,1.923,1.9489,1.9754,1.9799,1.9882,2.0069,2.0307,2.0576,2.0471,2.0372,2.0293,1.9763,1.9252,1.8594,1.8031,1.7465,1.6894,1.6574,1.6252,1.6087,1.5997,1.5824,1.565,1.5575,1.5506,1.5474,1.5672,1.5716,1.576,1.5935,0.0,0.0,0.0,0.0,0.0,0.0,1.7326,1.7326,1.7326,1.7326,1.7208,1.6894,1.6857,1.6923,1.7113,1.7669,1.8233,1.8752,1.9096,1.9279,1.9279,1.9279,1.9279,1.9279,1.9279,1.9279,1.9279,1.9279,1.9279,1.9279,1.9279,1.9279,1.9286,1.9469,1.9806,2.0245,2.0435,2.0779,2.1211,2.1211,2.1211,2.1211,2.1211,2.1211,2.1211,2.1211,2.1211,2.124,2.1526,0.0,0.0,0.0,0.0,0.0,0.0,0.0,0.0,0.0,0.0,0.0,2.3017,2.2665,0.0,0.0,2.1514,2.121,2.0839,2.0775,2.0646,2.0335,1.9998,1.9736,1.9539,1.9208,1.9075,1.9075,0.0,0.0,0.0,0.0,0.0,0.0,0.0,1.9075,1.9075,1.921,1.9526,1.9858,2.0027,2.04,2.0793,2.0659,2.0897,2.13,2.1162,2.1065,2.1031,2.0566,2.0017,1.9316,1.8753,1.8172,1.7507,1.7191,1.6857,1.653,1.653,1.627,1.6087,1.601,1.5848,1.5745,1.5987,1.6038,1.6104,1.6323,1.644,0.0,0.0,0.0,0.0,0.0,0.0,1.7326,1.7326,1.7326,1.7208,1.6894,1.6777,1.6813,1.704,1.7523,1.8013,1.8482,1.8994,1.9279,1.9279,1.9279,1.9279,1.9279,1.9279,1.9279,1.9279,1.9279,1.9279,1.9279,1.9279,1.9279,1.9286,1.9616,1.9938,2.0252,2.0581,2.0911,2.1211,2.1211,2.1211,2.1211,2.1211,2.1211,2.1211,2.1211,2.1211,2.1262,2.18,2.2061,0.0,0.0,0.0,0.0,0.0,0.0,0.0,0.0,2.3628,2.339,2.28,2.2543,2.2099,2.1451,2.1273,2.1042,2.0733,2.054,2.0324,2.0107,1.9791,1.955,1.9285,1.9142,1.9075,1.9075,1.9075,0.0,0.0,0.0,0.0,0.0,1.9075,1.9075,1.9106,1.9551,1.9817,1.99,2.0721,2.1352,2.1714,2.1269,2.1383,2.1787,2.1787,2.1645,2.1425,2.1021,2.0672,2.0286,1.947,1.8979,1.8682,1.8275,1.7929,1.7739,1.7494,1.7224,1.7041,1.6793,1.6529,1.6338,1.6352,1.6352,1.636,1.6367,1.6623,1.6934,1.6857,0.0,0.0,0.0,0.0,0.0,0.0,1.7326,1.7208,1.6894,1.6572,1.6389,1.6396,1.726,1.7823,1.7845,1.8738,1.9279,1.9279,1.9279,1.9279,1.9279,1.9279,1.9279,1.9279,1.9279,1.9279,1.9279,1.9279,1.9279,1.9286,1.9616,1.9938,2.0252,2.0581,2.0911,2.1211,2.1211,2.1211,2.1211,2.1211,2.1211,2.1211,2.1211,2.1211,2.1262,2.2061,0.0,0.0,0.0,0.0,0.0,2.3949,2.4008,2.3891,2.3628,2.3378,2.3138,2.2739,2.2309,2.1862,2.1285,2.1042,2.0733,2.0346,2.014,2.0064,1.9987,1.9605,1.9341,1.9285,1.9142,1.9075,1.9075,1.9075,0.0,0.0,0.0,0.0,0.0,0.0,1.9241,1.9599,1.9765,2.011,2.071,2.1321,2.1662,2.1787,2.1631,2.1662,2.1849,2.2149,2.2107,2.2002,2.2139,2.1757,2.1037,2.0477,1.9729,1.899,1.8568,1.8127,1.7771,1.7692,1.7422,1.7072,1.6991,1.672,1.6426,1.6638,1.6689,1.6755,1.696,1.7091,1.7165,1.7165,0.0,0.0,0.0,0.0,0.0,0.0,1.7326,1.7289,1.7179,1.6696,1.6367,1.6367,1.7047,1.7582,1.7801,1.8723,1.9279,1.9279,1.9279,1.9279,1.9279,1.9279,1.9279,1.9279,1.9279,1.9279,1.9279,1.9279,1.9279,1.9294,1.9828,2.0135,2.0267,2.0808,2.1108,2.1211,2.1211,2.1211,2.1211,2.1211,2.1211,2.1211,2.1211,2.135,2.1606,2.2297,2.2665,0.0,0.0,2.3509,2.3865,2.4054,2.4008,2.3832,2.3569,2.3258,2.3032,2.2874,2.2462,2.2091,2.1881,2.1447,2.1052,2.0797,2.0519,2.0385,2.0318,1.9811,1.9525,1.9458,1.9225,1.9075,1.9075,1.9075,1.9075,0.0,0.0,0.0,0.0,0.0,1.9557,1.9848,2.011,2.0576,2.1176,2.1797,2.2056,2.2066,2.2232,2.219,2.2118,2.2573,2.267,2.2551,2.2848,2.2459,2.1903,2.1419,2.0585,1.9739,1.9125,1.8676,1.8322,1.8144,1.7788,1.743,1.743,1.7071,1.6762,1.6974,1.7026,1.7077,1.7282,1.7326,1.7326,1.7326,1.7326,0.0,0.0,0.0,0.0,0.0,1.7326,1.7326,1.7326,1.6762,1.6367,1.6367,1.6952,1.7413,1.7625,1.8657,1.9279,1.9279,1.9279,1.9279,1.9279,1.9279,1.9279,1.9279,1.9279,1.9279,1.9279,1.9279,1.9338,1.9469,1.9996,2.0303,2.0442,2.0976,2.1211,2.1211,2.1211,2.1211,2.1211,2.1211,2.1211,2.1211,2.1211,2.1489,2.1942,2.2592,2.2896,2.3198,2.339,2.3819,2.4112,2.4112,2.4008,2.3785,2.3501,2.3248,2.3145,2.3262,2.2939,2.2817,2.2977,2.2469,2.2056,2.194,2.1522,2.1171,2.103,2.0386,1.9938,1.9858,1.9365,1.9127,1.9106,1.9106,1.9096,0.0,0.0,0.0,0.0,1.9592,1.9869,1.9952,2.0752,2.1145,2.1259,2.2149,2.2511,2.2584,2.3049,2.2946,2.2625,2.306,2.3215,2.3225,2.3002,2.2875,2.2699,2.2026,2.1498,2.0817,2.011,1.9563,1.9096,1.8827,1.8458,1.8087,1.8087,1.7707,1.7333,1.7326,1.7326,1.7326,1.7326,1.7326,1.7326,1.7326,1.7326,0.0,0.0,0.0,0.0,0.0,1.7326,1.7326,1.7311,1.6755,1.6367,1.6367,1.6952,1.7326,1.7326,1.854,1.9279,1.9279,1.9279,1.9279,1.9279,1.9279,1.9279,1.9279,1.9279,1.9279,1.9279,1.9279,1.9447,1.9777,2.0091,2.0413,2.0742,2.1064,2.1211,2.1211,2.1211,2.1211,2.1211,2.1211,2.1218,2.1233,2.1247,2.1657,2.225,2.2896,2.339,2.376,2.3878,2.3995,2.4112,2.4112,2.3878,2.3722,2.3961,2.3642,2.3477,2.3758,2.3346,2.3073,2.3012,2.2469,2.2056,2.194,2.1371,2.103,2.103,2.054,2.0255,2.0255,2.0141,1.9913,1.965,1.965,1.9406,1.9075,0.0,0.0,0.0,2.0058,2.0441,2.0783,2.1021,2.1507,2.2159,2.2397,2.2708,2.306,2.3525,2.3629,2.3536,2.366,2.3701,2.3753,2.4,2.376,2.3248,2.2727,2.1817,2.0817,2.011,1.9563,1.9096,1.8827,1.8558,1.8381,1.8179,1.7807,1.7527,1.7333,1.7326,1.7326,1.7326,1.7326,1.7326,1.7326,1.7326,1.7326,0.0,0.0,0.0,1.7326,1.7326,1.7245,1.7004,1.6616,1.6367,1.6367,1.6952,1.7326,1.7326,1.854,1.9279,1.9279,1.9279,1.9279,1.9279,1.9279,1.9279,1.9279,1.9279,1.9279,1.9279,1.9279,1.9447,1.9777,2.0091,2.0413,2.0742,2.1064,2.1211,2.1211,2.1211,2.1211,2.1211,2.1211,2.1357,2.1598,2.184,2.2176,2.2557,2.3078,2.345,2.3819,2.3995,2.4144,2.424,2.4372,2.412,2.4009,2.4331,2.4025,2.3912,2.4159,2.3815,2.3638,2.3758,2.3269,2.2846,2.2633,2.206,2.1699,2.1637,2.1052,2.0731,2.0731,2.0524,2.0307,2.0048,2.0048,1.9924,1.9665,0.0,0.0,0.0,2.0524,2.0866,2.1145,2.1549,2.2025,2.2532,2.2936,2.3256,0.0,2.3991,2.4167,2.4167,2.4167,2.4167,2.4209,2.4457,2.4196,2.3764,2.3242,2.2432,2.1445,2.0645,2.0011,1.9504,1.9289,1.8972,1.8722,1.8681,1.8426,1.814,1.7941,1.7846,1.7757,1.7757,1.7757,1.7706,1.7567,1.7538,1.7494,1.7355,1.7326,1.7282,1.7135,1.7121,1.7004,1.6682,1.636,1.617,1.617,1.6872,1.7326,1.7326,1.854,1.9279,1.9279,1.9279,1.9279,1.9279,1.9279,1.9279,1.9279,1.9279,1.9279,1.9279,1.9425,1.9659,1.9981,2.0303,2.0625,2.0947,2.113,2.1211,2.1211,2.1211,2.1211,2.1218,2.1364,2.162,2.195,2.2264,2.2476,2.2674,2.3178,2.3492,2.3769,2.3978,2.4269,2.4553,2.4767,2.4579,2.4469,2.4573,2.4464,2.442,2.4662,2.4457,2.4472,2.4942,2.4457,2.4016,2.3794,2.3273,2.281,2.2583,2.1816,2.1352,2.13,2.0897,2.0638,2.0514,2.0514,2.0483,0.0,0.0,0.0,2.0534,2.1,2.1238,2.1352,2.2159,2.2563,2.2749,2.3557,2.3919,2.4002,2.4395,2.454,2.454,2.454,2.454,2.454,2.454,2.4378,2.413,2.3747,2.3047,2.226,2.1401,2.0702,2.0054,1.9903,1.951,1.92,1.9505,1.9184,1.8784,1.8686,1.8489,1.8299,1.8299,1.8299,1.8218,1.7933,1.7882,1.7786,1.7501,1.7421,1.7296,1.7018,1.6945,1.6799,1.6469,1.6199,0.0,1.6038,1.6821,1.7326,1.7326,1.854,1.9279,1.9279,1.9279,1.9279,1.9279,1.9279,1.9279,1.9279,1.9279,1.9279,1.9279,1.9608,1.993,2.0245,2.0574,2.0903,2.1211,2.1211,2.1211,2.1211,2.1211,2.1233,2.1306,2.1635,2.1957,2.2279,2.2571,2.2689,2.2725,2.3691,2.4088,2.4413,2.476,2.4862,2.4936,2.5128,2.4958,2.4793,2.5132,2.4872,2.4978,2.5721,2.5624,2.5619,2.5988,2.5645,2.5264,2.4891,2.4426,2.4035,2.3573,2.3261,2.2804,2.2263,2.217,2.1756,2.1,2.1,0.0,0.0,0.0,0.0,2.101,2.1476,2.1901,2.2263,2.2428,2.2936,2.365,2.3815,2.4095,2.4436,2.4509,2.454,2.454,2.454,2.454,2.454,2.454,2.4378,2.4181,2.4008,2.3483,2.2828,2.2146,2.1595,2.1147,2.0641,2.028,1.9998,1.9852,1.9388,1.8996,1.8784,1.8489,1.8299,1.8299,1.8299,1.8284,1.8225,1.8218,1.8196,1.8138,1.7904,1.7713,1.7655,1.7413,1.7128,1.6813,1.6726,1.6689,1.6689,1.7077,1.7326,1.7326,1.854,1.9279,1.9279,1.9279,1.9279,1.9279,1.9279,1.9279,1.9279,1.9279,1.9279,1.9279,1.9608,1.993,2.0245,2.0574,2.0903,2.1211,2.1211,2.1211,2.1211,2.1211,2.1364,2.1642,2.1972,2.2279,2.2586,2.2908,2.3025,2.3032,2.4165,2.4266,2.4341,2.4551,2.4772,2.5012,2.5294,2.5322,2.542,2.5816,2.5712,2.5875,2.6442,2.6315,2.6261,2.6282,2.6065,2.5681,2.515,2.4837,2.4443,2.4057,2.3657,2.3322,2.3012,2.2932,2.2522,2.1828,2.1828,0.0,0.0,0.0,0.0,2.1487,2.1952,2.2418,2.2873,2.3111,2.3474,2.3898,2.4136,2.4353,2.454,2.454,2.4695,2.4902,2.4902,2.5047,2.5202,2.4974,2.4959,2.5098,2.4876,2.4485,2.3784,2.3149,2.2546,2.1944,2.1476,2.1137,2.0876,2.0659,2.0216,1.9721,1.9504,1.91,1.8803,1.8803,1.8803,1.876,1.8584,1.8416,1.8299,1.8299,1.8174,1.8013,1.7838,1.7684,1.7457,1.7135,1.7099,1.7099,1.7099,1.7545,1.783,1.783,1.873,1.9279,1.9279,1.9279,1.9279,1.9279,1.9279,1.9279,1.9279,1.9279,1.936,1.9528,1.9857,2.0179,2.0501,2.083,2.1057,2.1211,2.1211,2.1211,2.1218,2.1393,2.1554,2.1745,2.2228,2.2498,2.2659,2.2988,2.3106,2.3106,2.4357,2.4369,2.4298,2.4542,2.4796,2.5129,2.5457,2.5742,2.6077,2.6432,2.6432,2.6564,2.6968,2.6864,2.6747,2.6623,2.6469,2.6081,2.5475,2.5238,2.4988,2.4508,2.4115,2.3829,2.3654,2.3491,2.3182,2.2646,2.2646,2.2459,2.2097,0.0,0.0,2.2118,2.248,2.2904,2.336,2.3722,2.3929,2.4053,2.4405,2.4602,2.4685,2.4685,2.4974,2.5368,2.5368,2.5647,2.5968,2.5627,2.5678,2.5896,2.5757,2.5411,2.4858,2.4191,2.356,2.2871,2.2512,2.2098,2.1761,2.155,2.1019,2.0514,2.0292,1.9783,1.9383,1.9272,1.9279,1.9199,1.8935,1.8686,1.8511,1.8511,1.8452,1.8313,1.8057,1.7962,1.7823,1.7567,1.7538,1.756,1.7633,1.8101,1.8438,1.8503,1.8986,1.9279,1.9279,1.9279,1.9279,1.9279,1.9279,1.9279,1.9279,1.9279,1.944,1.9769,2.0084,2.0406,2.0735,2.1057,2.1211,2.1211,2.1211,2.1247,2.1335,2.1591,2.1774,2.1942,2.2432,2.2659,2.2754,2.3018,2.3106,2.3106,2.4238,2.439,2.4759,2.5517,2.5658,2.5787,2.6158,2.62,2.6299,2.6538,2.6614,2.6816,2.7263,2.7323,2.7447,2.7693,2.7475,2.7128,2.6498,2.6416,2.6168,2.5514,2.543,2.4986,2.4147,2.4147,2.3834,2.3122,2.3122,2.3101,2.306,2.306,2.306,2.306,2.3101,2.3381,2.3815,2.3857,2.4115,2.4478,2.4519,2.4788,2.5171,2.5171,2.544,2.5813,2.5813,2.6113,2.6496,2.6455,2.6196,2.5958,2.6115,2.5959,2.5654,2.5266,2.4799,2.423,2.3665,2.2976,2.2383,2.2417,2.1623,2.0822,2.0514,2.0101,1.9576,1.9376,1.9279,1.9264,1.9235,1.9206,1.9184,1.9184,1.8935,1.873,1.8701,1.8445,1.8247,1.8211,1.8211,1.8328,1.8621,1.8708,1.8869,1.9162,1.9242,1.9279,1.9279,1.9279,1.9279,1.9279,1.9279,1.9279,1.9279,1.9279,1.944,1.9769,2.0084,2.0406,2.0735,2.1057,2.1211,2.1211,2.1211,2.1379,2.165,2.1686,2.203,2.2542,2.2601,2.2806,2.3069,2.3098,2.3106,2.3106,2.4885,2.5051,2.5288,2.5808,2.5937,2.6036,2.6395,2.6387,2.6581,2.6895,2.6909,2.7066,2.7664,2.7723,2.7726,2.7684,2.7441,2.7115,2.6633,2.6479,2.6146,2.5822,2.5644,2.5389,2.4766,2.4682,2.4294,2.3598,2.3598,2.3463,2.3184,2.3184,2.3339,2.3598,2.3598,2.3857,2.4281,2.4281,2.454,2.4954,2.4954,2.5223,2.5616,2.5616,2.5896,2.6289,2.6289,2.6589,2.6982,2.6982,2.6858,2.6744,2.6837,2.6709,2.637,2.6147,2.5606,2.5109,2.4322,2.3836,2.3329,2.2627,2.1928,2.1224,2.0822,2.03,1.9879,1.9576,1.9376,1.9279,1.9279,1.9279,1.9279,1.9279,1.9169,1.9081,1.9081,1.8964,1.8884,1.8884,1.8884,1.8935,1.9067,1.9081,1.9133,1.9264,1.9279,1.9279,1.9279,1.9279,1.9279,1.9279,1.9279,1.9279,1.9279,1.9469,1.9725,2.0047,2.0377,2.0698,2.102,2.1152,2.1211,2.1218,2.1415,2.1576,2.1723,2.2096,2.2396,2.2645,2.2835,2.2996,2.3106,2.3106,2.3106,2.3106,2.5471,2.5541,2.5704,2.6086,2.6178,2.6262,2.6611,2.6691,2.6818,2.7185,2.729,2.7485,2.7777,2.7788,2.7766,2.7743,2.7591,2.7318,2.706,2.6819,2.6565,2.631,2.6021,2.5764,2.5402,2.5094,2.4714,2.4074,2.4074,2.3908,2.3588,2.3588,2.3753,2.4074,2.4074,2.4322,2.4747,2.4747,2.5006,2.542,2.542,2.5689,2.6082,2.6082,2.6372,2.6775,2.6775,2.6982,2.7262,2.7262,2.7262,2.7262,2.7262,2.7177,2.6986,2.6699,2.6294,2.58,2.502,2.4529,2.4035,2.3229,2.2426,2.1827,2.1326,2.0806,2.0189,1.9783,1.9583,1.9376,1.9272,1.9279,1.9279,1.9279,1.9279,1.9279,1.9279,1.9279,1.9279,1.9279,1.9279,1.9279,1.9279,1.9279,1.9279,1.9279,1.9279,1.9279,1.9279,1.9279,1.9279,1.9279,1.9279,1.9323,1.9418,1.9652,1.9967,2.0384,2.0611,2.0896,2.1211,2.1211,2.1262,2.1364,2.1598,2.1803,2.2001,2.244,2.2681,2.2791,2.3018,2.3106,2.3106,2.3106,2.3106,2.3106,2.5704,2.5704,2.5865,2.637,2.6462,2.6622,2.7139,2.7219,2.7219,2.7231,2.7656,2.7854,2.7569,2.7522,2.7731,2.8266,2.8145,2.8003,2.7962,2.7984,2.7733,2.7293,2.6867,2.6347,2.5902,2.5434,2.4946,2.4444,2.4444,2.4529,2.4519,2.4519,2.4529,2.4444,2.4444,2.4788,2.5223,2.5223,2.5471,2.5875,2.5875,2.6144,2.6558,2.6558,2.6848,2.7251,2.7251,2.7251,2.7262,2.7262,2.7262,2.7262,2.7262,2.7262,2.7262,2.6986,2.6699,2.639,2.579,2.5109,2.443,2.4134,2.3329,2.2426,2.2131,2.1428,2.0609,1.9887,1.968,1.9576,1.9383,1.9279,1.9279,1.9279,1.9279,1.9279,1.9279,1.9279,1.9279,1.9279,1.9279,1.9279,1.9279,1.9279,1.9279,1.9279,1.9279,1.9279,1.9279,1.9279,1.9279,1.9279,1.9279,1.9433,1.9755,1.9762,2.0084,2.072,2.072,2.0896,2.1211,2.1211,2.1386,2.1693,2.1693,2.2045,2.2608,2.2615,2.2813,2.3106,2.3106,2.3106,2.3106,2.3106,2.3106,2.3106,2.6152,2.6221,2.6393,2.6898,2.699,2.7151,2.7667,2.7748,2.7862,2.8184,2.8367,2.8413,2.8326,2.8303,2.8372,2.8545,2.8397,2.8207,2.7995,2.7854,2.7679,2.7315,2.7173,2.691,2.6646,2.6331,2.5992,2.5737,2.555,2.5451,2.5451,2.5451,2.5451,2.5451,2.5451,2.5533,2.5668,2.5668,2.5937,2.6351,2.6351,2.663,2.7044,2.7044,2.7138,2.7262,2.7262,2.7262,2.7262,2.7262,2.7262,2.7262,2.7262,2.7262,2.7262,2.7177,2.6986,2.6699,2.61,2.5606,2.5109,2.4332,2.3728,2.3229,2.2728,2.1928,2.1019,2.0609,2.0094,1.968,1.9583,1.9376,1.9279,1.9279,1.9279,1.9279,1.9279,1.9279,1.9279,1.9279,1.9279,1.9279,1.9279,1.9279,1.9279,1.9279,1.9279,1.9279,1.9279,1.9279,1.9279,1.9279,1.9491,1.9659,1.9762,2.0201,2.0516,2.0728,2.0947,2.1108,2.1218,2.1445,2.1598,2.1723,2.214,2.244,2.2637,2.2864,2.3018,2.3106,2.3106,2.3106,2.3106,2.3106,2.3106,2.3106,2.6691,2.6749,2.6909,2.7426,2.7518,2.7679,2.8172,2.8253,2.8356,2.8666,2.8873,2.8999,2.8999,2.916,2.9194,2.9022,2.8935,2.874,2.8744,2.8489,2.8232,2.7951,2.7687,2.7499,2.723,2.6969,2.6615,2.6267,2.6066,2.5875,2.5875,2.5875,2.5875,2.5875,2.5875,2.5978,2.6134,2.6134,2.6403,2.6827,2.6827,2.7003,2.7262,2.7262,2.7262,2.7262,2.7262,2.7262,2.7262,2.7262,2.7262,2.7262,2.7262,2.7262,2.7262,2.7262,2.7167,2.689,2.64,2.6091,2.5606,2.4726,2.4233,2.3827,2.3229,2.2426,2.1623,2.1121,2.0609,2.0094,1.9879,1.968,1.9576,1.9576,1.948,1.948,1.948,1.9376,1.9279,1.9279,1.9279,1.9279,1.9279,1.9279,1.9279,1.9279,1.9279,1.933,1.9447,1.9345,1.933,1.9455,1.9659,1.9879,2.012,2.0523,2.0786,2.0911,2.1115,2.1276,2.1401,2.1606,2.1825,2.2067,2.2454,2.2689,2.282,2.3025,2.3106,2.3106,2.3106,2.3106,2.3106,2.3106,2.3106,2.3106,2.7323,2.7334,2.7483,2.7954,2.8035,2.8195,2.8677,2.8758,2.8769,2.8804,2.924,2.955,2.955,2.9952,3.0032,2.9584,2.955,2.9656,2.9863,2.9691,2.9393,2.9128,2.8422,2.8,2.7817,2.7284,2.6879,2.6361,2.616,2.5978,2.5978,2.5978,2.5978,2.5978,2.5978,2.6216,2.662,2.662,2.6868,2.7262,2.7262,2.7262,2.7262,2.7262,2.7262,2.7262,2.7262,2.7262,2.7262,2.7262,2.7262,2.7262,2.7293,2.7303,2.7303,2.7272,2.7282,2.7208,2.6739,2.646,2.6093,2.5615,2.5017,2.4415,2.3609,2.3007,2.2401,2.1595,2.1194,2.0885,2.0362,2.0235,2.022,2.022,1.9894,1.968,1.968,1.948,1.9272,1.9279,1.9279,1.9279,1.9279,1.9279,1.9286,1.9308,1.9308,1.9447,1.9777,1.9506,1.9484,1.9784,1.982,2.012,2.072,2.075,2.0918,2.124,2.124,2.1415,2.173,2.1752,2.2074,2.2623,2.2645,2.2828,2.3106,2.3106,2.3106,2.3106,2.3106,2.3106,2.3106,2.3106,2.3106,2.3106,2.8276,2.8356,2.839,2.8505,2.8528,2.8712,2.9228,2.9309,2.9435,2.9814,2.9963,3.0044,3.0044,3.0147,3.017,3.0055,3.0044,3.0022,2.9886,2.9691,2.9393,2.9128,2.8833,2.8582,2.8582,2.8207,2.7772,2.7306,2.7025,2.6931,2.6931,2.6931,2.6931,2.6931,2.6931,2.6993,2.7096,2.7096,2.7158,2.7262,2.7262,2.7262,2.7262,2.7262,2.7262,2.7262,2.7262,2.7262,2.7262,2.7262,2.7262,2.7324,2.7655,2.7769,2.7696,2.7365,2.75,2.7672,2.738,2.7527,2.7582,2.7102,2.6497,2.5879,2.5078,2.4648,2.4216,2.3286,2.277,2.2356,2.2038,2.1391,2.0888,2.0888,2.0358,1.9983,1.968,1.968,1.948,1.9272,1.9279,1.9279,1.9279,1.9279,1.9381,1.963,1.9652,1.9791,2.0106,2.0055,2.0047,2.012,2.0362,2.0567,2.072,2.0969,2.1262,2.1584,2.1584,2.1752,2.2081,2.2301,2.2484,2.2637,2.2886,2.304,2.3106,2.3106,2.3106,2.3106,2.3106,2.3106,2.3106,2.3106,2.3106,2.3106,2.8643,2.87,2.8781,2.9022,2.9068,2.924,2.9745,2.9825,2.9917,3.0181,3.0216,3.0216,3.0216,3.0216,3.0216,3.0216,3.0216,3.0136,3.0057,2.9669,2.9393,2.9312,2.8943,2.8757,2.8757,2.8664,2.829,2.7809,2.7441,2.7262,2.7262,2.7262,2.7262,2.7262,2.7262,2.7262,2.7262,2.7262,2.7262,2.7262,2.7262,2.7262,2.7262,2.7262,2.7262,2.7262,2.7262,2.7262,2.7293,2.7489,2.7562,2.7645,2.809,2.8235,2.8193,2.7945,2.8048,2.8136,2.7938,2.8013,2.8096,2.7723,2.7206,2.6686,2.6275,2.5655,2.5032,2.4395,2.3877,2.3356,2.3134,2.2552,2.2095,2.2095,2.1513,2.0965,2.0755,2.0446,2.0136,1.9931,1.9817,1.9718,1.9718,1.9718,1.9791,1.9967,1.9981,2.012,2.0442,2.0457,2.0457,2.0457,2.0633,2.0794,2.094,2.1384,2.1641,2.1693,2.1958,2.2193,2.2389,2.255,2.2703,2.2857,2.3032,2.3106,2.3106,2.3106,2.3106,2.3106,2.3106,2.3106,2.3106,2.3106,2.3106,2.3128,2.8919,2.893,2.9068,2.9527,2.9607,2.9745,3.0147,3.0216,3.0216,3.0216,3.0216,3.0216,3.0216,3.0216,3.0216,3.0216,3.0216,3.0216,3.0216,2.976,2.9485,2.9485,2.9024,2.8757,2.8757,2.8757,2.8466,2.7998,2.7536,2.7357,2.7262,2.7262,2.7262,2.7262,2.7262,2.7262,2.7262,2.7262,2.7262,2.7262,2.7262,2.7262,2.7262,2.7262,2.7303,2.7365,2.7365,2.7407,2.7521,2.7893,2.8028,2.811,2.8566,2.8721,2.8731,2.8804,2.8825,2.8703,2.842,2.845,2.8411,2.8228,2.7801,2.7373,2.727,2.6465,2.5746,2.5309,2.4897,2.4483,2.4049,2.3679,2.3538,2.344,2.2741,2.2172,2.2065,2.1318,2.0891,2.0674,2.0456,2.0237,2.0237,2.0237,2.0259,2.0303,2.0311,2.045,2.0779,2.0794,2.0794,2.0794,2.0794,2.0955,2.1276,2.1911,2.2096,2.184,2.2453,2.2751,2.2696,2.2696,2.2842,2.3106,2.3106,2.3106,2.3106,2.3106,2.3106,2.3106,2.3106,2.3106,2.3106,2.3106,2.3142,2.3223,2.9894,2.9975,3.0009,3.0089,3.0101,3.0135,3.0204,3.0216,3.0216,3.0216,3.0216,3.0216,3.0216,3.0216,3.0216,3.0216,3.0216,3.0216,3.0216,2.976,2.9485,2.9485,2.9024,2.8757,2.8757,2.8581,2.829,2.7998,2.7726,2.7452,2.7262,2.7262,2.7262,2.7262,2.7262,2.7262,2.7262,2.7262,2.7262,2.7262,2.7262,2.7262,2.7262,2.7262,2.7489,2.7821,2.7821,2.8069,2.8421,2.8483,2.8504,2.8587,2.9052,2.9197,2.927,2.9673,2.9777,2.9694,2.9301,2.9384,2.9673,2.935,2.9245,2.9025,2.8298,2.798,2.7554,2.6578,2.6254,2.6037,2.5501,2.4893,2.4459,2.4162,2.3558,2.2815,2.2065,2.185,2.1534,2.0783,2.0674,2.0456,2.0237,2.0237,2.0347,2.0625,2.0647,2.0786,2.1115,2.113,2.113,2.113,2.113,2.1291,2.162,2.2022,2.2312,2.2476,2.2892,2.3085,2.3032,2.3032,2.3062,2.3106,2.3106,2.3106,2.3106,2.3106,2.3106,2.3106,2.3106,2.3106,2.3106,2.3106,2.3281,2.353,3.017,3.0216,3.0216,3.0216,3.0216,3.0216,3.0216,3.0216,3.0216,3.0216,3.0216,3.0216,3.0216,3.0216,3.0216,3.0216,3.0216,3.0216,3.0216,2.976,2.9485,2.9485,2.9024,2.8757,2.8757,2.8384,2.8092,2.7998,2.7631,2.7357,2.7262,2.7262,2.7262,2.7262,2.7262,2.7262,2.7262,2.7262,2.7262,2.7282,2.7521,2.7614,2.7645,2.7893,2.8121,2.8297,2.8297,2.8431,2.8649,2.8897,2.899,2.9063,2.9528,2.9673,2.9715,2.9932,2.9994,2.9953,2.9735,2.9829,2.9994,2.9889,2.9669,2.9448,2.9132,2.8611,2.8184,2.7638,2.7098,2.6772,2.6445,2.5855,2.5404,2.5313,2.4602,2.3938,2.3611,2.3072,2.264,2.1976,2.165,2.1316,2.0981,2.0869,2.0823,2.0976,2.0984,2.105,2.1203,2.1379,2.1474,2.1474,2.1474,2.1628,2.1957,2.2476,2.2699,2.2623,2.3167,2.3207,2.3106,2.3106,2.3106,2.3106,2.3106,2.3106,2.3106,2.3106,2.3106,2.3106,2.3106,2.3106,2.3128,2.331,2.3464,2.3647,3.0216,3.0216,3.0216,3.0216,3.0216,3.0216,3.0216,3.0216,3.0216,3.0216,3.0216,3.0216,3.0216,3.0216,3.0216,3.0216,3.0216,3.0216,3.0216,2.976,2.9485,2.9485,2.9024,2.8757,2.8757,2.8373,2.8092,2.7998,2.7536,2.7357,2.7262,2.7262,2.7262,2.7262,2.7365,2.7417,2.7427,2.7531,2.7572,2.7603,2.7945,2.8079,2.8121,2.8473,2.868,2.8773,2.8773,2.8845,2.899,2.9342,2.9466,2.9528,2.988,2.9994,2.9994,2.9994,2.9994,2.9994,2.9994,2.9994,2.9994,2.9994,2.9889,2.9659,2.9659,2.9026,2.8504,2.8291,2.7755,2.7314,2.7098,2.6663,2.6345,2.6345,2.567,2.5221,2.5008,2.4351,2.3576,2.3127,2.2675,2.2116,2.1782,2.1439,2.1354,2.132,2.132,2.1357,2.143,2.1672,2.184,2.1913,2.1847,2.1964,2.2286,2.287,2.3026,2.2732,2.336,2.3355,2.3106,2.3106,2.3106,2.3106,2.3106,2.3106,2.3106,2.3106,2.3106,2.3106,2.3106,2.3157,2.3252,2.3501,2.3691,2.3896,3.0216,3.0216,3.0216,3.0216,3.0216,3.0216,3.0216,3.0216,3.0216,3.0216,3.0216,3.0216,3.0216,3.0216,3.0216,3.0216,3.0216,3.0216,3.0216,2.976,2.9485,2.9485,2.9024,2.8757,2.8757,2.8488,2.829,2.7998,2.7726,2.7452,2.7262,2.7262,2.7262,2.7282,2.7686,2.7872,2.7903,2.8328,2.8514,2.8514,2.8556,2.8566,2.8566,2.8597,2.8876,2.9259,2.9259,2.9528,2.9901,2.9932,2.9942,2.9953,2.9984,2.9994,2.9994,2.9994,2.9994,2.9994,2.9994,2.9994,2.9994,2.9994,2.9994,2.9889,2.9659,2.9554,2.9237,2.8504,2.8291,2.8077,2.7431,2.7314,2.7206,2.6989,2.6663,2.6218,2.5679,2.5119,2.4342,2.3456,2.3127,2.257,2.1782,2.1668,2.168,2.1642,2.1657,2.1796,2.2096,2.2132,2.2271,2.255,2.2293,2.2293,2.2586,2.2974,2.3145,2.3076,2.3472,2.3355,2.3106,2.3106,2.3106,2.3106,2.3106,2.3106,2.3106,2.3106,2.3106,2.3106,2.3106,2.3296,2.3567,2.3588,2.3976,2.4503,3.0216,3.0216,3.0216,3.0216,3.0216,3.0216,3.0216,3.0216,3.0216,3.0216,3.0216,3.0216,3.0216,3.0216,3.0216,3.0216,3.0216,3.0216,3.0216,3.0054,2.9624,2.9139,2.8943,2.8757,2.8757,2.8373,2.8241,2.8434,2.7955,2.7918,2.81,2.81,2.81,2.811,2.8276,2.8349,2.8359,2.8535,2.8618,2.8638,2.8928,2.9042,2.9073,2.9363,2.958,2.9735,2.9735,2.9849,2.9994,2.9994,2.9994,2.9994,2.9994,3.0191,3.0481,3.077,3.0853,3.0853,3.0853,3.0646,3.0491,3.0781,3.0853,3.0853,3.0735,3.0607,3.0272,2.9947,2.963,2.9223,2.873,2.8346,2.7933,2.7568,2.7206,2.6663,2.6336,2.5898,2.5325,2.467,2.4234,2.364,2.2937,2.25,2.2208,2.1986,2.2001,2.2052,2.2176,2.2352,2.2601,2.2915,2.2813,2.2813,2.2923,2.3046,2.3113,2.3106,2.3238,2.323,2.3106,2.3106,2.3106,2.3106,2.3106,2.3106,2.3106,2.3106,2.323,2.3413,2.3413,2.361,2.3918,2.4123,2.4357,2.4598,3.0216,3.0216,3.0216,3.0216,3.0216,3.0216,3.0216,3.0216,3.0216,3.0216,3.0216,3.0216,3.0216,3.0365,3.0468,3.0468,3.0618,3.0698,3.0686,3.0552,3.0125,2.9321,2.9216,2.9216,2.9216,2.8731,2.8604,2.8923,2.8338,2.8297,2.8618,2.8618,2.8618,2.8618,2.8763,2.8835,2.8835,2.899,2.9052,2.9073,2.9394,2.9528,2.9559,2.988,2.9994,2.9994,2.9994,2.9994,3.0015,3.016,3.0212,3.0243,3.0387,3.0646,3.0967,3.1288,3.1381,3.1412,3.1547,3.135,3.1153,3.1329,3.1381,3.1381,3.1381,3.1251,3.1011,3.0891,3.056,3.0249,2.9839,2.9451,2.9023,2.8631,2.8138,2.7701,2.7481,2.694,2.6484,2.597,2.5303,2.4589,2.3787,2.3338,2.3035,2.2669,2.2684,2.2728,2.2833,2.2911,2.3126,2.3355,2.3355,2.3355,2.3238,2.3106,2.3106,2.3106,2.3106,2.3106,2.3106,2.3106,2.3106,2.3106,2.3106,2.3106,2.312,2.3215,2.3391,2.361,2.3713,2.3947,2.4262,2.4488,2.4635,2.4759,3.0216,3.0216,3.0216,3.0216,3.0216,3.0216,3.0216,3.0216,3.0216,3.0227,3.0227,3.0227,3.0227,3.0698,3.1019,3.1019,3.1479,3.1754,3.1743,3.1253,3.0782,3.022,3.022,3.0209,3.0209,2.9708,2.9413,2.9423,2.8917,2.8618,2.8628,2.8628,2.8628,2.8649,2.9104,2.9311,2.9342,2.9798,2.9994,2.9994,2.9994,2.9994,2.9994,2.9994,2.9994,3.0005,3.0005,3.0005,3.0077,3.0532,3.0698,3.077,3.1236,3.1381,3.1381,3.1391,3.1391,3.1485,3.193,3.2043,3.194,3.1495,3.1391,3.1391,3.1391,3.1391,3.1271,3.1021,3.0901,3.0791,3.059,3.048,3.0369,3.0026,2.9803,2.9458,2.9132,2.8333,2.7537,2.6973,2.6388,2.5461,2.429,2.4063,2.396,2.3581,2.3604,2.3757,2.4092,2.4108,2.4108,2.4108,2.4108,2.3984,2.3611,2.323,2.3106,2.3106,2.3106,2.3106,2.3106,2.3106,2.3106,2.3106,2.3113,2.3113,2.3135,2.3464,2.3603,2.364,2.3962,2.4284,2.4576,2.4576,2.4774,2.5059,3.0216,3.0216,3.0216,3.0216,3.0216,3.0216,3.0216,3.0216,3.0354,3.0721,3.0778,3.0905,3.126,3.1433,3.1525,3.1536,3.1674,3.1819,3.1664,3.1589,3.145,3.1192,3.057,3.0209,3.0209,2.9708,2.9572,2.9913,2.9297,2.927,2.958,2.958,2.958,2.9591,2.9725,2.9787,2.9798,2.9942,2.9994,2.9994,2.9994,2.9994,2.9994,2.9994,3.0191,3.0481,3.0481,3.0688,3.0988,3.1122,3.1174,3.1247,3.1702,3.1836,3.1909,3.223,3.2323,3.2354,3.2489,3.252,3.2489,3.2364,3.2323,3.2323,3.2323,3.2323,3.2323,3.22,3.22,3.1984,3.1676,3.138,3.1157,3.0721,3.0238,2.9803,2.9458,2.8897,2.8322,2.7937,2.714,2.6422,2.5849,2.5408,2.4963,2.4692,2.4454,2.4378,2.4479,2.4232,2.4108,2.4108,2.4108,2.3984,2.3611,2.3487,2.3362,2.3106,2.3106,2.3106,2.3106,2.3106,2.3106,2.312,2.3354,2.3449,2.3471,2.3801,2.4071,2.4291,2.4386,2.462,2.4913,2.4913,2.4971,2.5059,3.0216,3.0216,3.0216,3.0216,3.0216,3.0285,3.0503,3.0537,3.0721,3.1249,3.1318,3.1433,3.1731,3.1926,3.2041,3.2053,3.2151,3.2195,3.1984,3.1895,3.1728,3.1607,3.1072,3.0766,3.0766,3.0278,3.0115,3.0402,2.9889,2.9715,2.9994,2.9994,2.9994,2.9994,2.9994,2.9994,2.9994,2.9994,2.9994,3.0015,3.0191,3.0274,3.0294,3.047,3.0719,3.0967,3.0967,3.1143,3.1402,3.1578,3.1764,3.1961,3.223,3.2313,3.2364,3.2654,3.2727,3.2727,3.2727,3.2727,3.2727,3.2727,3.2727,3.2727,3.2727,3.2727,3.2727,3.2727,3.2727,3.2644,3.2364,3.2189,3.1871,3.1472,3.1095,3.0767,3.0305,2.985,2.9374,2.9067,2.8256,2.7525,2.7151,2.6579,2.597,2.5472,2.5349,2.5103,2.4988,2.4857,2.461,2.4487,2.4355,2.4108,2.386,2.3738,2.3613,2.3106,2.3106,2.3179,2.3303,2.3303,2.3369,2.3508,2.3698,2.3786,2.3815,2.4137,2.4393,2.4583,2.4715,2.4883,2.5059,2.5059,2.5059,2.5059,3.0216,3.0216,3.0227,3.0285,3.0285,3.0468,3.1008,3.1077,3.126,3.1766,3.1834,3.1846,3.1903,3.2294,3.2558,3.2558,3.2807,3.2779,3.2544,3.2229,3.1924,3.1618,3.1618,3.1629,3.1527,3.1023,3.0838,3.0838,3.0308,2.9994,2.9994,2.9994,2.9994,2.9994,2.9994,3.0015,3.0056,3.0056,3.0087,3.016,3.0584,3.075,3.0791,3.1215,3.1402,3.1433,3.1433,3.1464,3.1557,3.1961,3.2385,3.2727,3.2727,3.2727,3.2727,3.2727,3.2727,3.2727,3.2727,3.2727,3.2727,3.2727,3.2727,3.2727,3.2727,3.2727,3.2727,3.2727,3.2727,3.2727,3.2727,3.2727,3.2612,3.2373,3.2363,3.2133,3.1441,3.1082,3.0616,3.0039,2.945,2.8737,2.814,2.7547,2.6822,2.6197,2.6075,2.5961,2.561,2.561,2.5357,2.5111,2.4765,2.4533,2.4154,2.4111,2.3859,2.3157,2.3186,2.3354,2.364,2.364,2.3801,2.4086,2.4115,2.413,2.4152,2.4481,2.4613,2.4642,2.4942,2.5059,2.5059,2.5059,2.5059,2.5059,3.0216,3.0216,3.0342,3.0767,3.0847,3.1019,3.1525,3.1605,3.1777,3.2271,3.2328,3.2489,3.2914,3.3051,3.3109,3.3109,3.3024,3.2779,3.2544,3.2229,3.1924,3.1618,3.1618,3.1527,3.1322,3.0931,3.0838,3.0838,3.0308,2.9994,2.9994,2.9994,2.9994,2.9994,2.9994,3.0191,3.0532,3.0532,3.0739,3.1091,3.1184,3.1226,3.1236,3.134,3.1598,3.1899,3.1899,3.2126,3.2457,3.2551,3.2654,3.2727,3.2727,3.2727,3.2727,3.2727,3.2727,3.2727,3.2727,3.2727,3.2727,3.2727,3.2727,3.2727,3.2727,3.2727,3.2727,3.2727,3.2727,3.2727,3.2727,3.2727,3.2727,3.2612,3.2487,3.2248,3.2133,3.1431,3.085,3.0733,2.9903,2.9203,2.8865,2.7891,2.7168,2.6571,2.6197,2.5961,2.561,2.5357,2.5111,2.4734,2.4875,2.4756,2.4126,2.4329,2.4201,2.3493,2.3749,2.391,2.3976,2.3976,2.402,2.4101,2.4357,2.4466,2.4488,2.4818,2.4949,2.4957,2.503,2.5059,2.5059,2.5059,2.5059,2.5059,3.0216,3.0422,3.0686,3.0962,3.1203,3.1525,3.203,3.211,3.2294,3.2799,3.2868,3.2971,3.3258,3.3281,3.3281,3.3281,3.2969,3.2667,3.2555,3.2026,3.1721,3.1629,3.1859,3.1886,3.1575,3.1486,3.1158,3.062,3.0203,3.0108,3.0325,3.0325,3.0439,3.0657,3.0657,3.0791,3.1008,3.1008,3.1153,3.1391,3.1609,3.1692,3.1712,3.194,3.2168,3.2364,3.2364,3.252,3.2727,3.2727,3.2727,3.2727,3.2727,3.2727,3.2727,3.2727,3.2727,3.2727,3.2727,3.2727,3.2727,3.2727,3.2727,3.2727,3.2727,3.2727,3.2727,3.2727,3.2727,3.2727,3.2727,3.2727,3.2727,3.2727,3.2612,3.2487,3.2363,3.1903,3.1431,3.1082,3.0372,2.9558,2.8618,2.8011,2.7409,2.6692,2.6449,2.6158,2.5606,2.5482,2.5187,2.4841,2.4891,2.4728,2.4344,2.4543,2.4356,2.4064,2.4071,2.4166,2.4313,2.4313,2.4401,2.4554,2.473,2.4803,2.4818,2.4986,2.5059,2.5059,2.5059,2.5059,2.5059,2.5059,2.5059,2.5059,3.0354,3.0778,3.1169,3.1249,3.1593,3.203,3.2535,3.2627,3.2787,3.3224,3.3281,3.3281,3.3281,3.3281,3.3281,3.3281,3.2757,3.2476,3.2566,3.2057,3.1793,3.1859,3.2274,3.2282,3.1965,3.2126,3.1613,3.0632,3.0327,3.0429,3.0801,3.0801,3.1008,3.1381,3.1381,3.1422,3.1495,3.1495,3.1536,3.164,3.2012,3.2157,3.2199,3.2582,3.2727,3.2727,3.2727,3.2727,3.2727,3.2727,3.2727,3.2727,3.2727,3.2727,3.2727,3.2727,3.2727,3.2727,3.2727,3.2727,3.2727,3.2727,3.2727,3.2727,3.2727,3.2727,3.2727,3.2727,3.2727,3.2727,3.2727,3.2727,3.2727,3.2727,3.2727,3.2612,3.2373,3.2258,3.2018,3.1441,3.0743,2.9705,2.8349,2.8117,2.7669,2.6764,2.6641,2.6405,2.5589,2.5605,2.5477,2.4986,2.4787,2.4688,2.4557,2.4621,2.4657,2.4649,2.4379,2.4393,2.4657,2.4657,2.4803,2.5059,2.5059,2.5059,2.5059,2.5059,2.5059,2.5059,2.5059,2.5059,2.5059,2.5059,2.5059,2.5059,3.0905,3.1306,3.1777,3.2213,3.234,3.2558,3.3097,3.3178,3.3201,3.3281,3.3281,3.3281,3.3281,3.3281,3.3281,3.3281,3.2757,3.2633,3.3059,3.2586,3.2459,3.2853,3.2716,3.2427,3.2114,3.1972,3.1734,3.1598,3.1293,3.1215,3.1288,3.1288,3.1319,3.1381,3.1381,3.1588,3.195,3.195,3.2178,3.2551,3.2613,3.2633,3.2644,3.2706,3.2727,3.2727,3.2727,3.2727,3.2727,3.2727,3.2727,3.2727,3.2727,3.2727,3.2727,3.2727,3.2727,3.2727,3.2727,3.2727,3.2727,3.2727,3.2727,3.2727,3.2727,3.2727,3.2727,3.2727,3.2727,3.2727,3.2727,3.2727,3.2727,3.2727,3.2727,3.2737,3.2612,3.2143,3.1787,3.1787,3.0743,2.9708,2.8985,2.8665,2.8192,2.7142,2.7167,2.6677,2.5704,2.5576,2.5334,2.4735,2.4882,2.4899,2.4635,2.4832,2.4993,2.4993,2.4949,2.4949,2.4993,2.4993,2.5015,2.5059,2.5059,2.5059,2.5059,2.5059,2.5059,2.5059,2.5059,2.5059,2.5059,2.5059,2.5059,2.5059,3.1387,3.1823,3.2225,3.2443,3.273,3.3005,3.3247,3.3281,3.3281,3.3281,3.3281,3.3281,3.3281,3.3281,3.3396,3.3457,3.3073,3.3081,3.3376,3.2977,3.2853,3.306,3.2998,3.2921,3.2604,3.2548,3.2462,3.235,3.1729,3.1505,3.1743,3.1743,3.1888,3.2137,3.2137,3.224,3.2426,3.2426,3.254,3.2727,3.2727,3.2727,3.2727,3.2727,3.2727,3.2727,3.2727,3.2727,3.2727,3.2727,3.2727,3.2727,3.2727,3.2727,3.2727,3.2727,3.2727,3.2727,3.2727,3.2727,3.2727,3.2727,3.2727,3.2727,3.2727,3.2727,3.2727,3.2727,3.2727,3.2727,3.2727,3.2727,3.2727,3.2727,3.2727,3.2727,3.2727,3.2703,3.2591,3.2255,3.1333,3.0447,2.976,2.918,2.8515,2.7545,2.7308,2.6761,2.5658,2.5543,2.5366,2.4886,2.5034,2.4974,2.484,2.4986,2.5059,2.5059,2.5059,2.5059,2.5059,2.5059,2.5059,2.5059,2.5059,2.5059,2.5059,2.5059,2.5059,2.5059,2.5059,2.5059,2.5059,2.5059,2.5059,2.5059]}]]